<?xml version="1.0" encoding="UTF-8" standalone="no" ?><gpx xmlns="http://www.topografix.com/GPX/1/1" xmlns:gpxx="http://www.garmin.com/xmlschemas/GpxExtensions/v3" xmlns:wptx1="http://www.garmin.com/xmlschemas/WaypointExtension/v1" xmlns:gpxtpx="http://www.garmin.com/xmlschemas/TrackPointExtension/v1" creator="Alpha 100" version="1.1" xmlns:xsi="http://www.w3.org/2001/XMLSchema-instance" xsi:schemaLocation="http://www.topografix.com/GPX/1/1 http://www.topografix.com/GPX/1/1/gpx.xsd http://www.garmin.com/xmlschemas/GpxExtensions/v3 http://www8.garmin.com/xmlschemas/GpxExtensionsv3.xsd http://www.garmin.com/xmlschemas/WaypointExtension/v1 http://www8.garmin.com/xmlschemas/WaypointExtensionv1.xsd http://www.garmin.com/xmlschemas/TrackPointExtension/v1 http://www.garmin.com/xmlschemas/TrackPointExtensionv1.xsd"><metadata><link href="http://www.garmin.com"><text>Garmin International</text></link><time>2026-08-15T10:50:03Z</time></metadata><trk><name>2026-08-15 ЛИСА18ВАРГА</name><trkseg><trkpt lat="59.3505530711" lon="34.6995321661"><ele>167.41</ele><time>2026-08-15T00:45:10Z</time></trkpt><trkpt lat="59.3505273387" lon="34.6995121334"><ele>165.48</ele><time>2026-08-15T00:45:39Z</time></trkpt><trkpt lat="59.3505489640" lon="34.6995263826"><ele>165.48</ele><time>2026-08-15T00:45:54Z</time></trkpt><trkpt lat="59.3505605310" lon="34.6994998120"><ele>165.48</ele><time>2026-08-15T00:46:27Z</time></trkpt><trkpt lat="59.3505604472" lon="34.6994976327"><ele>165.48</ele><time>2026-08-15T00:47:00Z</time></trkpt><trkpt lat="59.3505465332" lon="34.6994787734"><ele>165.48</ele><time>2026-08-15T00:47:34Z</time></trkpt><trkpt lat="59.3505525682" lon="34.6994729061"><ele>165.96</ele><time>2026-08-15T00:48:03Z</time></trkpt><trkpt lat="59.3505540770" lon="34.6994812042"><ele>164.52</ele><time>2026-08-15T00:48:15Z</time></trkpt><trkpt lat="59.3505502213" lon="34.6995093673"><ele>164.52</ele><time>2026-08-15T00:48:57Z</time></trkpt><trkpt lat="59.3505540770" lon="34.6995123848"><ele>165.96</ele><time>2026-08-15T00:49:42Z</time></trkpt><trkpt lat="59.3505546637" lon="34.6995100379"><ele>165.96</ele><time>2026-08-15T00:50:03Z</time></trkpt><trkpt lat="59.3505546637" lon="34.6995097864"><ele>166.45</ele><time>2026-08-15T00:50:33Z</time></trkpt><trkpt lat="59.3505559210" lon="34.6994666196"><ele>165.00</ele><time>2026-08-15T00:50:36Z</time></trkpt><trkpt lat="59.3505543284" lon="34.6994545497"><ele>165.96</ele><time>2026-08-15T00:50:41Z</time></trkpt><trkpt lat="59.3505461980" lon="34.6994330082"><ele>165.96</ele><time>2026-08-15T00:50:52Z</time></trkpt><trkpt lat="59.3505423423" lon="34.6994211059"><ele>165.00</ele><time>2026-08-15T00:51:07Z</time></trkpt><trkpt lat="59.3505389057" lon="34.6994199324"><ele>164.52</ele><time>2026-08-15T00:51:23Z</time></trkpt><trkpt lat="59.3499209080" lon="34.6993932780"><ele>165.96</ele><time>2026-08-15T01:28:20Z</time></trkpt><trkpt lat="59.3499209080" lon="34.6993932780"><ele>165.96</ele><time>2026-08-15T01:28:21Z</time></trkpt><trkpt lat="59.3499932438" lon="34.6993895061"><ele>166.45</ele><time>2026-08-15T01:28:44Z</time></trkpt><trkpt lat="59.3500024639" lon="34.6993537992"><ele>166.93</ele><time>2026-08-15T01:29:09Z</time></trkpt><trkpt lat="59.3500284478" lon="34.6993361134"><ele>166.93</ele><time>2026-08-15T01:29:41Z</time></trkpt><trkpt lat="59.3500359077" lon="34.6993378736"><ele>167.41</ele><time>2026-08-15T01:30:05Z</time></trkpt><trkpt lat="59.3500330579" lon="34.6993587445"><ele>165.96</ele><time>2026-08-15T01:30:22Z</time></trkpt><trkpt lat="59.3500273582" lon="34.6993607562"><ele>166.45</ele><time>2026-08-15T01:30:40Z</time></trkpt><trkpt lat="59.3500219099" lon="34.6993608400"><ele>166.45</ele><time>2026-08-15T01:31:04Z</time></trkpt><trkpt lat="59.3500212394" lon="34.6993487701"><ele>166.45</ele><time>2026-08-15T01:31:30Z</time></trkpt><trkpt lat="59.3500231672" lon="34.6993490215"><ele>167.41</ele><time>2026-08-15T01:32:03Z</time></trkpt><trkpt lat="59.3500200659" lon="34.6993433218"><ele>166.93</ele><time>2026-08-15T01:32:39Z</time></trkpt><trkpt lat="59.3500199821" lon="34.6993396338"><ele>166.93</ele><time>2026-08-15T01:33:02Z</time></trkpt><trkpt lat="59.3500210717" lon="34.6993605047"><ele>166.93</ele><time>2026-08-15T01:33:26Z</time></trkpt><trkpt lat="59.3500255980" lon="34.6993621811"><ele>166.93</ele><time>2026-08-15T01:33:31Z</time></trkpt><trkpt lat="59.3501442857" lon="34.6993776038"><ele>166.93</ele><time>2026-08-15T01:33:46Z</time></trkpt><trkpt lat="59.3501522485" lon="34.6993817948"><ele>166.93</ele><time>2026-08-15T01:33:47Z</time></trkpt><trkpt lat="59.3502837606" lon="34.6993951220"><ele>165.48</ele><time>2026-08-15T01:34:02Z</time></trkpt><trkpt lat="59.3504177034" lon="34.6994081140"><ele>165.48</ele><time>2026-08-15T01:34:18Z</time></trkpt><trkpt lat="59.3505125027" lon="34.6994730737"><ele>165.00</ele><time>2026-08-15T01:34:32Z</time></trkpt><trkpt lat="59.3505779654" lon="34.6995020751"><ele>165.00</ele><time>2026-08-15T01:34:44Z</time></trkpt><trkpt lat="59.3505798094" lon="34.6994827967"><ele>166.45</ele><time>2026-08-15T01:35:04Z</time></trkpt><trkpt lat="59.3505571783" lon="34.6994731575"><ele>166.45</ele><time>2026-08-15T01:35:20Z</time></trkpt><trkpt lat="59.3505316973" lon="34.6994794440"><ele>165.00</ele><time>2026-08-15T01:35:27Z</time></trkpt><trkpt lat="59.3505224772" lon="34.6995062660"><ele>165.00</ele><time>2026-08-15T01:35:43Z</time></trkpt><trkpt lat="59.3504680786" lon="34.6994261350"><ele>165.00</ele><time>2026-08-15T01:35:57Z</time></trkpt><trkpt lat="59.3503340520" lon="34.6993725747"><ele>165.00</ele><time>2026-08-15T01:36:12Z</time></trkpt><trkpt lat="59.3502284400" lon="34.6993729938"><ele>165.00</ele><time>2026-08-15T01:36:25Z</time></trkpt><trkpt lat="59.3501557689" lon="34.6993179247"><ele>166.45</ele><time>2026-08-15T01:36:36Z</time></trkpt><trkpt lat="59.3499991111" lon="34.6991667151"><ele>166.45</ele><time>2026-08-15T01:36:53Z</time></trkpt><trkpt lat="59.3499535974" lon="34.6991261467"><ele>166.45</ele><time>2026-08-15T01:36:58Z</time></trkpt><trkpt lat="59.3498186488" lon="34.6990015078"><ele>166.45</ele><time>2026-08-15T01:37:14Z</time></trkpt><trkpt lat="59.3497116119" lon="34.6988836583"><ele>166.45</ele><time>2026-08-15T01:37:27Z</time></trkpt><trkpt lat="59.3495836202" lon="34.6987649705"><ele>165.48</ele><time>2026-08-15T01:37:43Z</time></trkpt><trkpt lat="59.3495492544" lon="34.6987376455"><ele>165.48</ele><time>2026-08-15T01:37:48Z</time></trkpt><trkpt lat="59.3494921736" lon="34.6986975800"><ele>166.45</ele><time>2026-08-15T01:38:04Z</time></trkpt><trkpt lat="59.3495061714" lon="34.6987086441"><ele>166.45</ele><time>2026-08-15T01:38:10Z</time></trkpt><trkpt lat="59.3496197462" lon="34.6988108195"><ele>166.45</ele><time>2026-08-15T01:38:23Z</time></trkpt><trkpt lat="59.3497962691" lon="34.6989664715"><ele>165.48</ele><time>2026-08-15T01:38:41Z</time></trkpt><trkpt lat="59.3499445450" lon="34.6991047729"><ele>166.45</ele><time>2026-08-15T01:38:59Z</time></trkpt><trkpt lat="59.3499468919" lon="34.6990947984"><ele>165.48</ele><time>2026-08-15T01:39:04Z</time></trkpt><trkpt lat="59.3499474786" lon="34.6990963910"><ele>165.48</ele><time>2026-08-15T01:39:06Z</time></trkpt><trkpt lat="59.3499809224" lon="34.6991446707"><ele>165.48</ele><time>2026-08-15T01:39:09Z</time></trkpt><trkpt lat="59.3500961736" lon="34.6992671303"><ele>165.48</ele><time>2026-08-15T01:39:25Z</time></trkpt><trkpt lat="59.3501719460" lon="34.6993720718"><ele>165.96</ele><time>2026-08-15T01:39:35Z</time></trkpt><trkpt lat="59.3501873687" lon="34.6993899252"><ele>165.48</ele><time>2026-08-15T01:39:53Z</time></trkpt><trkpt lat="59.3501840997" lon="34.6993901767"><ele>166.45</ele><time>2026-08-15T01:40:11Z</time></trkpt><trkpt lat="59.3501615524" lon="34.6993755084"><ele>166.45</ele><time>2026-08-15T01:40:31Z</time></trkpt><trkpt lat="59.3501540925" lon="34.6993673779"><ele>166.45</ele><time>2026-08-15T01:40:53Z</time></trkpt><trkpt lat="59.3501478899" lon="34.6993605047"><ele>166.45</ele><time>2026-08-15T01:41:15Z</time></trkpt><trkpt lat="59.3501462135" lon="34.6993569843"><ele>166.45</ele><time>2026-08-15T01:41:38Z</time></trkpt><trkpt lat="59.3501406815" lon="34.6993544698"><ele>166.45</ele><time>2026-08-15T01:42:05Z</time></trkpt><trkpt lat="59.3501364905" lon="34.6993576549"><ele>166.45</ele><time>2026-08-15T01:42:32Z</time></trkpt><trkpt lat="59.3501372449" lon="34.6993591636"><ele>166.45</ele><time>2026-08-15T01:42:51Z</time></trkpt><trkpt lat="59.3501423579" lon="34.6993660368"><ele>165.96</ele><time>2026-08-15T01:43:10Z</time></trkpt><trkpt lat="59.3501442019" lon="34.6993623488"><ele>165.48</ele><time>2026-08-15T01:43:30Z</time></trkpt><trkpt lat="59.3501442019" lon="34.6993540507"><ele>165.48</ele><time>2026-08-15T01:43:46Z</time></trkpt><trkpt lat="59.3501483090" lon="34.6993731614"><ele>165.48</ele><time>2026-08-15T01:43:54Z</time></trkpt><trkpt lat="59.3501462974" lon="34.6993894223"><ele>166.93</ele><time>2026-08-15T01:43:58Z</time></trkpt><trkpt lat="59.3501468003" lon="34.6993889194"><ele>165.00</ele><time>2026-08-15T01:44:04Z</time></trkpt><trkpt lat="59.3501468841" lon="34.6993810404"><ele>165.00</ele><time>2026-08-15T01:44:25Z</time></trkpt><trkpt lat="59.3501713593" lon="34.6993641928"><ele>166.45</ele><time>2026-08-15T01:44:32Z</time></trkpt><trkpt lat="59.3502223212" lon="34.6993686352"><ele>165.48</ele><time>2026-08-15T01:44:41Z</time></trkpt><trkpt lat="59.3503197189" lon="34.6993654501"><ele>166.45</ele><time>2026-08-15T01:44:58Z</time></trkpt><trkpt lat="59.3504244089" lon="34.6993942838"><ele>166.45</ele><time>2026-08-15T01:45:13Z</time></trkpt><trkpt lat="59.3505274225" lon="34.6994445752"><ele>166.45</ele><time>2026-08-15T01:45:30Z</time></trkpt><trkpt lat="59.3506182823" lon="34.6995664481"><ele>166.45</ele><time>2026-08-15T01:45:48Z</time></trkpt><trkpt lat="59.3506047875" lon="34.6995305736"><ele>166.45</ele><time>2026-08-15T01:46:09Z</time></trkpt><trkpt lat="59.3505979143" lon="34.6995120496"><ele>166.45</ele><time>2026-08-15T01:46:31Z</time></trkpt><trkpt lat="59.3505933043" lon="34.6995060146"><ele>166.45</ele><time>2026-08-15T01:46:49Z</time></trkpt><trkpt lat="59.3505950645" lon="34.6995040867"><ele>166.45</ele><time>2026-08-15T01:47:15Z</time></trkpt><trkpt lat="59.3505955674" lon="34.6995032486"><ele>165.00</ele><time>2026-08-15T01:47:31Z</time></trkpt><trkpt lat="59.3505977467" lon="34.6995001473"><ele>166.45</ele><time>2026-08-15T01:47:56Z</time></trkpt><trkpt lat="59.3505995069" lon="34.6995113790"><ele>166.45</ele><time>2026-08-15T01:48:23Z</time></trkpt><trkpt lat="59.3505973276" lon="34.6995158214"><ele>166.45</ele><time>2026-08-15T01:48:41Z</time></trkpt><trkpt lat="59.3505957350" lon="34.6995129716"><ele>166.93</ele><time>2026-08-15T01:48:53Z</time></trkpt><trkpt lat="59.3505966570" lon="34.6995189227"><ele>165.48</ele><time>2026-08-15T01:49:14Z</time></trkpt><trkpt lat="59.3505980819" lon="34.6995121334"><ele>165.48</ele><time>2026-08-15T01:49:38Z</time></trkpt><trkpt lat="59.3505966570" lon="34.6995082777"><ele>165.48</ele><time>2026-08-15T01:49:57Z</time></trkpt><trkpt lat="59.3505949806" lon="34.6995166596"><ele>165.48</ele><time>2026-08-15T01:50:17Z</time></trkpt><trkpt lat="59.3505915441" lon="34.6995128877"><ele>165.48</ele><time>2026-08-15T01:50:44Z</time></trkpt><trkpt lat="59.3505922146" lon="34.6995191742"><ele>165.48</ele><time>2026-08-15T01:51:00Z</time></trkpt><trkpt lat="59.3505997583" lon="34.6995326690"><ele>165.48</ele><time>2026-08-15T01:51:19Z</time></trkpt><trkpt lat="59.3505962379" lon="34.6995301545"><ele>165.48</ele><time>2026-08-15T01:51:37Z</time></trkpt><trkpt lat="59.3505943101" lon="34.6995305736"><ele>165.48</ele><time>2026-08-15T01:51:56Z</time></trkpt><trkpt lat="59.3505875207" lon="34.6995274723"><ele>165.48</ele><time>2026-08-15T01:52:16Z</time></trkpt><trkpt lat="59.3505470362" lon="34.6994682122"><ele>165.48</ele><time>2026-08-15T01:52:30Z</time></trkpt><trkpt lat="59.3504612055" lon="34.6994063538"><ele>165.48</ele><time>2026-08-15T01:52:47Z</time></trkpt><trkpt lat="59.3504445255" lon="34.6994158253"><ele>165.48</ele><time>2026-08-15T01:53:00Z</time></trkpt><trkpt lat="59.3504451960" lon="34.6994177531"><ele>166.45</ele><time>2026-08-15T01:53:01Z</time></trkpt><trkpt lat="59.3504321203" lon="34.6994136460"><ele>165.00</ele><time>2026-08-15T01:53:08Z</time></trkpt><trkpt lat="59.3503292743" lon="34.6993771009"><ele>166.45</ele><time>2026-08-15T01:53:25Z</time></trkpt><trkpt lat="59.3502286077" lon="34.6993860696"><ele>165.96</ele><time>2026-08-15T01:53:41Z</time></trkpt><trkpt lat="59.3501609657" lon="34.6993662044"><ele>166.45</ele><time>2026-08-15T01:53:57Z</time></trkpt><trkpt lat="59.3500841875" lon="34.6993916016"><ele>166.45</ele><time>2026-08-15T01:54:15Z</time></trkpt><trkpt lat="59.3500541802" lon="34.6993856505"><ele>166.93</ele><time>2026-08-15T01:54:32Z</time></trkpt><trkpt lat="59.3499696068" lon="34.6993656177"><ele>166.93</ele><time>2026-08-15T01:54:53Z</time></trkpt><trkpt lat="59.3499809224" lon="34.6993666235"><ele>166.93</ele><time>2026-08-15T01:55:16Z</time></trkpt><trkpt lat="59.3501215708" lon="34.6993751731"><ele>166.93</ele><time>2026-08-15T01:55:33Z</time></trkpt><trkpt lat="59.3502188846" lon="34.6993684676"><ele>165.48</ele><time>2026-08-15T01:55:45Z</time></trkpt><trkpt lat="59.3503811583" lon="34.6993846446"><ele>165.48</ele><time>2026-08-15T01:56:04Z</time></trkpt><trkpt lat="59.3503910489" lon="34.6993879974"><ele>165.48</ele><time>2026-08-15T01:56:05Z</time></trkpt><trkpt lat="59.3505541608" lon="34.6994796116"><ele>165.00</ele><time>2026-08-15T01:56:23Z</time></trkpt><trkpt lat="59.3505655602" lon="34.6994831320"><ele>166.45</ele><time>2026-08-15T01:56:36Z</time></trkpt><trkpt lat="59.3505622912" lon="34.6994885802"><ele>165.00</ele><time>2026-08-15T01:56:57Z</time></trkpt><trkpt lat="59.3505622074" lon="34.6994875744"><ele>166.45</ele><time>2026-08-15T01:56:59Z</time></trkpt><trkpt lat="59.3505624589" lon="34.6994951181"><ele>166.45</ele><time>2026-08-15T01:57:25Z</time></trkpt><trkpt lat="59.3505613692" lon="34.6995003987"><ele>165.00</ele><time>2026-08-15T01:57:30Z</time></trkpt><trkpt lat="59.3505610339" lon="34.6995011531"><ele>166.45</ele><time>2026-08-15T01:57:37Z</time></trkpt><trkpt lat="59.3505836651" lon="34.6995226108"><ele>165.00</ele><time>2026-08-15T01:57:46Z</time></trkpt><trkpt lat="59.3505853415" lon="34.6995136421"><ele>166.45</ele><time>2026-08-15T01:57:54Z</time></trkpt><trkpt lat="59.3505835813" lon="34.6994846407"><ele>166.45</ele><time>2026-08-15T01:58:07Z</time></trkpt><trkpt lat="59.3505790550" lon="34.6994856466"><ele>166.93</ele><time>2026-08-15T01:58:20Z</time></trkpt><trkpt lat="59.3505798932" lon="34.6994772647"><ele>166.93</ele><time>2026-08-15T01:58:37Z</time></trkpt><trkpt lat="59.3505814858" lon="34.6994773485"><ele>165.96</ele><time>2026-08-15T01:58:41Z</time></trkpt><trkpt lat="59.3506030273" lon="34.6995480079"><ele>165.96</ele><time>2026-08-15T01:58:55Z</time></trkpt><trkpt lat="59.3506033625" lon="34.6995432302"><ele>165.96</ele><time>2026-08-15T01:58:59Z</time></trkpt><trkpt lat="59.3505949806" lon="34.6994719002"><ele>165.96</ele><time>2026-08-15T01:59:02Z</time></trkpt><trkpt lat="59.3505271710" lon="34.6989323571"><ele>165.96</ele><time>2026-08-15T01:59:22Z</time></trkpt><trkpt lat="59.3504255824" lon="34.6983383317"><ele>165.96</ele><time>2026-08-15T01:59:40Z</time></trkpt><trkpt lat="59.3504151888" lon="34.6982723661"><ele>166.93</ele><time>2026-08-15T01:59:42Z</time></trkpt><trkpt lat="59.3503363989" lon="34.6976479981"><ele>166.93</ele><time>2026-08-15T02:00:00Z</time></trkpt><trkpt lat="59.3502421863" lon="34.6970893443"><ele>166.93</ele><time>2026-08-15T02:00:16Z</time></trkpt><trkpt lat="59.3501033820" lon="34.6965684928"><ele>166.45</ele><time>2026-08-15T02:00:32Z</time></trkpt><trkpt lat="59.3500792421" lon="34.6965042036"><ele>165.48</ele><time>2026-08-15T02:00:34Z</time></trkpt><trkpt lat="59.3499823473" lon="34.6960314643"><ele>165.48</ele><time>2026-08-15T02:00:47Z</time></trkpt><trkpt lat="59.3499607220" lon="34.6953485068"><ele>165.48</ele><time>2026-08-15T02:01:02Z</time></trkpt><trkpt lat="59.3499157112" lon="34.6947181039"><ele>165.48</ele><time>2026-08-15T02:01:15Z</time></trkpt><trkpt lat="59.3498510029" lon="34.6938345674"><ele>164.04</ele><time>2026-08-15T02:01:32Z</time></trkpt><trkpt lat="59.3497898988" lon="34.6932075173"><ele>165.00</ele><time>2026-08-15T02:01:44Z</time></trkpt><trkpt lat="59.3497327343" lon="34.6922622062"><ele>166.45</ele><time>2026-08-15T02:02:03Z</time></trkpt><trkpt lat="59.3497035652" lon="34.6915037278"><ele>166.45</ele><time>2026-08-15T02:02:18Z</time></trkpt><trkpt lat="59.3496158067" lon="34.6905901004"><ele>166.93</ele><time>2026-08-15T02:02:37Z</time></trkpt><trkpt lat="59.3494491745" lon="34.6900226455"><ele>166.93</ele><time>2026-08-15T02:02:50Z</time></trkpt><trkpt lat="59.3494067620" lon="34.6898312028"><ele>165.48</ele><time>2026-08-15T02:02:54Z</time></trkpt><trkpt lat="59.3493324984" lon="34.6891873050"><ele>165.96</ele><time>2026-08-15T02:03:07Z</time></trkpt><trkpt lat="59.3493080232" lon="34.6889997181"><ele>165.96</ele><time>2026-08-15T02:03:13Z</time></trkpt><trkpt lat="59.3492635991" lon="34.6885822993"><ele>165.96</ele><time>2026-08-15T02:03:27Z</time></trkpt><trkpt lat="59.3492532894" lon="34.6880865935"><ele>165.96</ele><time>2026-08-15T02:03:43Z</time></trkpt><trkpt lat="59.3492507748" lon="34.6875696816"><ele>166.93</ele><time>2026-08-15T02:03:58Z</time></trkpt><trkpt lat="59.3492273055" lon="34.6869610716"><ele>166.93</ele><time>2026-08-15T02:04:17Z</time></trkpt><trkpt lat="59.3492352683" lon="34.6864123084"><ele>166.93</ele><time>2026-08-15T02:04:32Z</time></trkpt><trkpt lat="59.3492598273" lon="34.6862379648"><ele>166.93</ele><time>2026-08-15T02:04:37Z</time></trkpt><trkpt lat="59.3492761720" lon="34.6860875096"><ele>166.93</ele><time>2026-08-15T02:04:42Z</time></trkpt><trkpt lat="59.3492805306" lon="34.6860549040"><ele>166.93</ele><time>2026-08-15T02:04:43Z</time></trkpt><trkpt lat="59.3493403774" lon="34.6854882874"><ele>165.96</ele><time>2026-08-15T02:05:00Z</time></trkpt><trkpt lat="59.3493569735" lon="34.6852959227"><ele>165.48</ele><time>2026-08-15T02:05:07Z</time></trkpt><trkpt lat="59.3493587337" lon="34.6852592099"><ele>166.93</ele><time>2026-08-15T02:05:08Z</time></trkpt><trkpt lat="59.3493765034" lon="34.6847969480"><ele>166.93</ele><time>2026-08-15T02:05:22Z</time></trkpt><trkpt lat="59.3493979611" lon="34.6844549663"><ele>167.41</ele><time>2026-08-15T02:05:33Z</time></trkpt><trkpt lat="59.3493977096" lon="34.6844128892"><ele>167.41</ele><time>2026-08-15T02:05:34Z</time></trkpt><trkpt lat="59.3494288903" lon="34.6841445845"><ele>166.45</ele><time>2026-08-15T02:05:43Z</time></trkpt><trkpt lat="59.3494721409" lon="34.6839005873"><ele>166.45</ele><time>2026-08-15T02:05:53Z</time></trkpt><trkpt lat="59.3494715542" lon="34.6838627011"><ele>166.45</ele><time>2026-08-15T02:05:54Z</time></trkpt><trkpt lat="59.3494728953" lon="34.6838126611"><ele>166.45</ele><time>2026-08-15T02:05:55Z</time></trkpt><trkpt lat="59.3495385256" lon="34.6833338868"><ele>166.45</ele><time>2026-08-15T02:06:08Z</time></trkpt><trkpt lat="59.3495609052" lon="34.6832783148"><ele>166.45</ele><time>2026-08-15T02:06:11Z</time></trkpt><trkpt lat="59.3495673593" lon="34.6832467150"><ele>166.45</ele><time>2026-08-15T02:06:12Z</time></trkpt><trkpt lat="59.3495702930" lon="34.6832146961"><ele>167.89</ele><time>2026-08-15T02:06:13Z</time></trkpt><trkpt lat="59.3495723885" lon="34.6831823420"><ele>167.89</ele><time>2026-08-15T02:06:14Z</time></trkpt><trkpt lat="59.3495772500" lon="34.6831526700"><ele>167.89</ele><time>2026-08-15T02:06:15Z</time></trkpt><trkpt lat="59.3495835364" lon="34.6831185557"><ele>167.89</ele><time>2026-08-15T02:06:16Z</time></trkpt><trkpt lat="59.3496676069" lon="34.6826923359"><ele>167.89</ele><time>2026-08-15T02:06:29Z</time></trkpt><trkpt lat="59.3496759050" lon="34.6826619096"><ele>167.89</ele><time>2026-08-15T02:06:30Z</time></trkpt><trkpt lat="59.3496843707" lon="34.6826327406"><ele>167.89</ele><time>2026-08-15T02:06:31Z</time></trkpt><trkpt lat="59.3496907409" lon="34.6825997159"><ele>167.89</ele><time>2026-08-15T02:06:32Z</time></trkpt><trkpt lat="59.3496971112" lon="34.6825699601"><ele>167.89</ele><time>2026-08-15T02:06:33Z</time></trkpt><trkpt lat="59.3497041520" lon="34.6825399529"><ele>167.89</ele><time>2026-08-15T02:06:34Z</time></trkpt><trkpt lat="59.3497098517" lon="34.6825071797"><ele>167.89</ele><time>2026-08-15T02:06:35Z</time></trkpt><trkpt lat="59.3497151323" lon="34.6824743226"><ele>167.89</ele><time>2026-08-15T02:06:36Z</time></trkpt><trkpt lat="59.3497422058" lon="34.6823209338"><ele>167.89</ele><time>2026-08-15T02:06:41Z</time></trkpt><trkpt lat="59.3497518450" lon="34.6823008172"><ele>167.89</ele><time>2026-08-15T02:06:42Z</time></trkpt><trkpt lat="59.3497608975" lon="34.6822800301"><ele>167.89</ele><time>2026-08-15T02:06:43Z</time></trkpt><trkpt lat="59.3497736380" lon="34.6822692174"><ele>167.89</ele><time>2026-08-15T02:06:44Z</time></trkpt><trkpt lat="59.3497873843" lon="34.6822646074"><ele>167.89</ele><time>2026-08-15T02:06:45Z</time></trkpt><trkpt lat="59.3498017173" lon="34.6822589077"><ele>167.89</ele><time>2026-08-15T02:06:46Z</time></trkpt><trkpt lat="59.3498143740" lon="34.6822535433"><ele>167.89</ele><time>2026-08-15T02:06:47Z</time></trkpt><trkpt lat="59.3500258494" lon="34.6823967900"><ele>167.89</ele><time>2026-08-15T02:07:01Z</time></trkpt><trkpt lat="59.3500738777" lon="34.6824257076"><ele>166.45</ele><time>2026-08-15T02:07:05Z</time></trkpt><trkpt lat="59.3501666654" lon="34.6823290642"><ele>166.45</ele><time>2026-08-15T02:07:12Z</time></trkpt><trkpt lat="59.3503298610" lon="34.6819020063"><ele>166.45</ele><time>2026-08-15T02:07:28Z</time></trkpt><trkpt lat="59.3503700104" lon="34.6816290915"><ele>166.45</ele><time>2026-08-15T02:07:38Z</time></trkpt><trkpt lat="59.3503590301" lon="34.6814746968"><ele>166.45</ele><time>2026-08-15T02:07:44Z</time></trkpt><trkpt lat="59.3503110018" lon="34.6811648179"><ele>166.45</ele><time>2026-08-15T02:07:56Z</time></trkpt><trkpt lat="59.3502829224" lon="34.6810966730"><ele>166.45</ele><time>2026-08-15T02:07:59Z</time></trkpt><trkpt lat="59.3501849379" lon="34.6809393447"><ele>167.41</ele><time>2026-08-15T02:08:08Z</time></trkpt><trkpt lat="59.3500104267" lon="34.6806453913"><ele>167.41</ele><time>2026-08-15T02:08:23Z</time></trkpt><trkpt lat="59.3499374203" lon="34.6803023200"><ele>167.89</ele><time>2026-08-15T02:08:37Z</time></trkpt><trkpt lat="59.3499141186" lon="34.6801504400"><ele>167.89</ele><time>2026-08-15T02:08:43Z</time></trkpt><trkpt lat="59.3499168009" lon="34.6800490189"><ele>167.89</ele><time>2026-08-15T02:08:46Z</time></trkpt><trkpt lat="59.3500141986" lon="34.6797263157"><ele>167.89</ele><time>2026-08-15T02:09:03Z</time></trkpt><trkpt lat="59.3500494026" lon="34.6795771178"><ele>167.89</ele><time>2026-08-15T02:09:19Z</time></trkpt><trkpt lat="59.3499918189" lon="34.6791493054"><ele>167.89</ele><time>2026-08-15T02:09:36Z</time></trkpt><trkpt lat="59.3499643262" lon="34.6789726987"><ele>167.89</ele><time>2026-08-15T02:09:45Z</time></trkpt><trkpt lat="59.3499595486" lon="34.6785585489"><ele>167.89</ele><time>2026-08-15T02:10:00Z</time></trkpt><trkpt lat="59.3499561958" lon="34.6784582175"><ele>167.89</ele><time>2026-08-15T02:10:03Z</time></trkpt><trkpt lat="59.3499817606" lon="34.6781055909"><ele>168.85</ele><time>2026-08-15T02:10:15Z</time></trkpt><trkpt lat="59.3499881309" lon="34.6780778468"><ele>168.85</ele><time>2026-08-15T02:10:16Z</time></trkpt><trkpt lat="59.3500043079" lon="34.6780242864"><ele>167.41</ele><time>2026-08-15T02:10:18Z</time></trkpt><trkpt lat="59.3500067387" lon="34.6779998951"><ele>167.41</ele><time>2026-08-15T02:10:19Z</time></trkpt><trkpt lat="59.3500521686" lon="34.6776471846"><ele>166.93</ele><time>2026-08-15T02:10:33Z</time></trkpt><trkpt lat="59.3500690162" lon="34.6775511280"><ele>166.93</ele><time>2026-08-15T02:10:36Z</time></trkpt><trkpt lat="59.3500850257" lon="34.6775035188"><ele>166.93</ele><time>2026-08-15T02:10:38Z</time></trkpt><trkpt lat="59.3501216546" lon="34.6772962343"><ele>166.93</ele><time>2026-08-15T02:10:45Z</time></trkpt><trkpt lat="59.3502105027" lon="34.6770186257"><ele>166.93</ele><time>2026-08-15T02:10:59Z</time></trkpt><trkpt lat="59.3502517417" lon="34.6768600401"><ele>168.37</ele><time>2026-08-15T02:11:05Z</time></trkpt><trkpt lat="59.3503404222" lon="34.6764239296"><ele>168.37</ele><time>2026-08-15T02:11:20Z</time></trkpt><trkpt lat="59.3503891211" lon="34.6760962810"><ele>168.37</ele><time>2026-08-15T02:11:33Z</time></trkpt><trkpt lat="59.3504382391" lon="34.6757523715"><ele>168.85</ele><time>2026-08-15T02:11:46Z</time></trkpt><trkpt lat="59.3504989240" lon="34.6754281595"><ele>168.85</ele><time>2026-08-15T02:12:01Z</time></trkpt><trkpt lat="59.3505257461" lon="34.6753638703"><ele>168.85</ele><time>2026-08-15T02:12:04Z</time></trkpt><trkpt lat="59.3505573459" lon="34.6753108967"><ele>168.85</ele><time>2026-08-15T02:12:07Z</time></trkpt><trkpt lat="59.3506023567" lon="34.6752070449"><ele>168.85</ele><time>2026-08-15T02:12:11Z</time></trkpt><trkpt lat="59.3506291788" lon="34.6751300991"><ele>167.89</ele><time>2026-08-15T02:12:14Z</time></trkpt><trkpt lat="59.3506718427" lon="34.6750111599"><ele>166.93</ele><time>2026-08-15T02:12:19Z</time></trkpt><trkpt lat="59.3507537339" lon="34.6747507341"><ele>166.93</ele><time>2026-08-15T02:12:33Z</time></trkpt><trkpt lat="59.3507662229" lon="34.6745399293"><ele>166.45</ele><time>2026-08-15T02:12:47Z</time></trkpt><trkpt lat="59.3507773709" lon="34.6743939165"><ele>166.45</ele><time>2026-08-15T02:12:56Z</time></trkpt><trkpt lat="59.3507633731" lon="34.6742416173"><ele>167.41</ele><time>2026-08-15T02:13:03Z</time></trkpt><trkpt lat="59.3507238943" lon="34.6738620847"><ele>167.41</ele><time>2026-08-15T02:13:17Z</time></trkpt><trkpt lat="59.3507364672" lon="34.6734758466"><ele>168.37</ele><time>2026-08-15T02:13:31Z</time></trkpt><trkpt lat="59.3507166859" lon="34.6730380598"><ele>166.93</ele><time>2026-08-15T02:13:46Z</time></trkpt><trkpt lat="59.3507171050" lon="34.6730098128"><ele>166.93</ele><time>2026-08-15T02:13:47Z</time></trkpt><trkpt lat="59.3506852537" lon="34.6726216469"><ele>168.37</ele><time>2026-08-15T02:14:02Z</time></trkpt><trkpt lat="59.3506822363" lon="34.6724176314"><ele>168.37</ele><time>2026-08-15T02:14:10Z</time></trkpt><trkpt lat="59.3506642990" lon="34.6721401066"><ele>167.41</ele><time>2026-08-15T02:14:23Z</time></trkpt><trkpt lat="59.3506658915" lon="34.6719547827"><ele>167.41</ele><time>2026-08-15T02:14:36Z</time></trkpt><trkpt lat="59.3506532349" lon="34.6717929281"><ele>167.41</ele><time>2026-08-15T02:14:42Z</time></trkpt><trkpt lat="59.3506194558" lon="34.6716037486"><ele>169.33</ele><time>2026-08-15T02:14:50Z</time></trkpt><trkpt lat="59.3505781330" lon="34.6714744996"><ele>169.33</ele><time>2026-08-15T02:14:55Z</time></trkpt><trkpt lat="59.3505394086" lon="34.6712087095"><ele>167.89</ele><time>2026-08-15T02:15:05Z</time></trkpt><trkpt lat="59.3505401630" lon="34.6711857431"><ele>169.33</ele><time>2026-08-15T02:15:07Z</time></trkpt><trkpt lat="59.3504912127" lon="34.6709634550"><ele>169.81</ele><time>2026-08-15T02:15:14Z</time></trkpt><trkpt lat="59.3504534941" lon="34.6707586013"><ele>169.81</ele><time>2026-08-15T02:15:20Z</time></trkpt><trkpt lat="59.3504706770" lon="34.6703322977"><ele>169.81</ele><time>2026-08-15T02:15:33Z</time></trkpt><trkpt lat="59.3504757900" lon="34.6699961834"><ele>168.85</ele><time>2026-08-15T02:15:44Z</time></trkpt><trkpt lat="59.3504888657" lon="34.6699012164"><ele>168.85</ele><time>2026-08-15T02:15:48Z</time></trkpt><trkpt lat="59.3505427614" lon="34.6694444027"><ele>170.29</ele><time>2026-08-15T02:16:04Z</time></trkpt><trkpt lat="59.3505271710" lon="34.6690963022"><ele>171.25</ele><time>2026-08-15T02:16:17Z</time></trkpt><trkpt lat="59.3505200464" lon="34.6685993392"><ele>171.25</ele><time>2026-08-15T02:16:33Z</time></trkpt><trkpt lat="59.3505140115" lon="34.6685353853"><ele>171.25</ele><time>2026-08-15T02:16:35Z</time></trkpt><trkpt lat="59.3505074736" lon="34.6681343950"><ele>171.25</ele><time>2026-08-15T02:16:47Z</time></trkpt><trkpt lat="59.3505175319" lon="34.6680314653"><ele>169.81</ele><time>2026-08-15T02:16:50Z</time></trkpt><trkpt lat="59.3505300209" lon="34.6678989474"><ele>169.81</ele><time>2026-08-15T02:16:54Z</time></trkpt><trkpt lat="59.3506508041" lon="34.6674736496"><ele>168.85</ele><time>2026-08-15T02:17:08Z</time></trkpt><trkpt lat="59.3507925421" lon="34.6671137307"><ele>168.85</ele><time>2026-08-15T02:17:22Z</time></trkpt><trkpt lat="59.3508699909" lon="34.6667441726"><ele>169.33</ele><time>2026-08-15T02:17:37Z</time></trkpt><trkpt lat="59.3508657999" lon="34.6665590163"><ele>169.33</ele><time>2026-08-15T02:17:44Z</time></trkpt><trkpt lat="59.3508642912" lon="34.6664970741"><ele>169.33</ele><time>2026-08-15T02:17:46Z</time></trkpt><trkpt lat="59.3508870061" lon="34.6660669986"><ele>170.29</ele><time>2026-08-15T02:18:02Z</time></trkpt><trkpt lat="59.3509234674" lon="34.6656277031"><ele>170.77</ele><time>2026-08-15T02:18:18Z</time></trkpt><trkpt lat="59.3509331904" lon="34.6654844563"><ele>170.77</ele><time>2026-08-15T02:18:22Z</time></trkpt><trkpt lat="59.3509420753" lon="34.6653759107"><ele>170.77</ele><time>2026-08-15T02:18:25Z</time></trkpt><trkpt lat="59.3509050272" lon="34.6650675405"><ele>171.73</ele><time>2026-08-15T02:18:35Z</time></trkpt><trkpt lat="59.3509113975" lon="34.6649411414"><ele>170.29</ele><time>2026-08-15T02:18:38Z</time></trkpt><trkpt lat="59.3509355374" lon="34.6646120679"><ele>170.29</ele><time>2026-08-15T02:18:51Z</time></trkpt><trkpt lat="59.3509590067" lon="34.6645426657"><ele>169.81</ele><time>2026-08-15T02:18:56Z</time></trkpt><trkpt lat="59.3509938754" lon="34.6644586790"><ele>169.81</ele><time>2026-08-15T02:19:00Z</time></trkpt><trkpt lat="59.3511364516" lon="34.6639989316"><ele>169.81</ele><time>2026-08-15T02:19:17Z</time></trkpt><trkpt lat="59.3512899242" lon="34.6636608057"><ele>169.33</ele><time>2026-08-15T02:19:33Z</time></trkpt><trkpt lat="59.3514884915" lon="34.6635349933"><ele>166.93</ele><time>2026-08-15T02:19:46Z</time></trkpt><trkpt lat="59.3515042495" lon="34.6635195706"><ele>170.77</ele><time>2026-08-15T02:19:47Z</time></trkpt><trkpt lat="59.3515205104" lon="34.6635009628"><ele>170.77</ele><time>2026-08-15T02:19:48Z</time></trkpt><trkpt lat="59.3515694607" lon="34.6634209156"><ele>168.85</ele><time>2026-08-15T02:19:54Z</time></trkpt><trkpt lat="59.3515915051" lon="34.6633538604"><ele>168.85</ele><time>2026-08-15T02:19:58Z</time></trkpt><trkpt lat="59.3516059220" lon="34.6633245237"><ele>168.85</ele><time>2026-08-15T02:20:00Z</time></trkpt><trkpt lat="59.3516749889" lon="34.6632811893"><ele>168.85</ele><time>2026-08-15T02:20:06Z</time></trkpt><trkpt lat="59.3517437205" lon="34.6630021557"><ele>168.85</ele><time>2026-08-15T02:20:18Z</time></trkpt><trkpt lat="59.3517876416" lon="34.6628622618"><ele>169.81</ele><time>2026-08-15T02:20:24Z</time></trkpt><trkpt lat="59.3518562894" lon="34.6626593359"><ele>171.25</ele><time>2026-08-15T02:20:33Z</time></trkpt><trkpt lat="59.3519631587" lon="34.6623686515"><ele>171.73</ele><time>2026-08-15T02:20:46Z</time></trkpt><trkpt lat="59.3521055672" lon="34.6620995086"><ele>171.73</ele><time>2026-08-15T02:21:00Z</time></trkpt><trkpt lat="59.3522730377" lon="34.6617133543"><ele>170.29</ele><time>2026-08-15T02:21:17Z</time></trkpt><trkpt lat="59.3523886241" lon="34.6615535114"><ele>170.29</ele><time>2026-08-15T02:21:27Z</time></trkpt><trkpt lat="59.3524444476" lon="34.6614905633"><ele>171.73</ele><time>2026-08-15T02:21:32Z</time></trkpt><trkpt lat="59.3524644803" lon="34.6614643279"><ele>172.21</ele><time>2026-08-15T02:21:34Z</time></trkpt><trkpt lat="59.3525003549" lon="34.6614359133"><ele>170.77</ele><time>2026-08-15T02:21:37Z</time></trkpt><trkpt lat="59.3526360579" lon="34.6612610668"><ele>170.29</ele><time>2026-08-15T02:21:49Z</time></trkpt><trkpt lat="59.3526765425" lon="34.6611445583"><ele>170.29</ele><time>2026-08-15T02:21:54Z</time></trkpt><trkpt lat="59.3528176937" lon="34.6607906744"><ele>169.33</ele><time>2026-08-15T02:22:09Z</time></trkpt><trkpt lat="59.3528493773" lon="34.6607119683"><ele>169.33</ele><time>2026-08-15T02:22:13Z</time></trkpt><trkpt lat="59.3529621977" lon="34.6604128182"><ele>168.85</ele><time>2026-08-15T02:22:32Z</time></trkpt><trkpt lat="59.3529963959" lon="34.6602869220"><ele>170.29</ele><time>2026-08-15T02:22:40Z</time></trkpt><trkpt lat="59.3530555721" lon="34.6600656398"><ele>170.77</ele><time>2026-08-15T02:22:49Z</time></trkpt><trkpt lat="59.3531327695" lon="34.6598245762"><ele>172.21</ele><time>2026-08-15T02:23:00Z</time></trkpt><trkpt lat="59.3532761838" lon="34.6595371608"><ele>173.17</ele><time>2026-08-15T02:23:14Z</time></trkpt><trkpt lat="59.3533979729" lon="34.6593372524"><ele>173.17</ele><time>2026-08-15T02:23:24Z</time></trkpt><trkpt lat="59.3535677064" lon="34.6590713784"><ele>171.73</ele><time>2026-08-15T02:23:34Z</time></trkpt><trkpt lat="59.3537050858" lon="34.6586770099"><ele>171.25</ele><time>2026-08-15T02:23:49Z</time></trkpt><trkpt lat="59.3537450675" lon="34.6585007384"><ele>171.25</ele><time>2026-08-15T02:24:07Z</time></trkpt><trkpt lat="59.3538357597" lon="34.6581057832"><ele>170.29</ele><time>2026-08-15T02:24:22Z</time></trkpt><trkpt lat="59.3538674433" lon="34.6579206269"><ele>171.73</ele><time>2026-08-15T02:24:29Z</time></trkpt><trkpt lat="59.3538837880" lon="34.6576643083"><ele>171.73</ele><time>2026-08-15T02:24:36Z</time></trkpt><trkpt lat="59.3538610730" lon="34.6573225781"><ele>171.73</ele><time>2026-08-15T02:24:53Z</time></trkpt><trkpt lat="59.3538837880" lon="34.6572377533"><ele>171.73</ele><time>2026-08-15T02:25:12Z</time></trkpt><trkpt lat="59.3538650963" lon="34.6571510006"><ele>172.21</ele><time>2026-08-15T02:25:29Z</time></trkpt><trkpt lat="59.3538212590" lon="34.6571509168"><ele>172.21</ele><time>2026-08-15T02:25:45Z</time></trkpt><trkpt lat="59.3536314089" lon="34.6568308957"><ele>172.21</ele><time>2026-08-15T02:26:00Z</time></trkpt><trkpt lat="59.3535330053" lon="34.6565466654"><ele>170.77</ele><time>2026-08-15T02:26:12Z</time></trkpt><trkpt lat="59.3534726556" lon="34.6563856490"><ele>170.77</ele><time>2026-08-15T02:26:24Z</time></trkpt><trkpt lat="59.3534558918" lon="34.6563563962"><ele>172.21</ele><time>2026-08-15T02:26:28Z</time></trkpt><trkpt lat="59.3534388766" lon="34.6563198511"><ele>172.21</ele><time>2026-08-15T02:26:32Z</time></trkpt><trkpt lat="59.3534227833" lon="34.6562805399"><ele>170.77</ele><time>2026-08-15T02:26:35Z</time></trkpt><trkpt lat="59.3533711508" lon="34.6561621875"><ele>170.77</ele><time>2026-08-15T02:26:45Z</time></trkpt><trkpt lat="59.3533032574" lon="34.6559905261"><ele>172.21</ele><time>2026-08-15T02:26:59Z</time></trkpt><trkpt lat="59.3532988150" lon="34.6559793781"><ele>172.21</ele><time>2026-08-15T02:27:00Z</time></trkpt><trkpt lat="59.3532242160" lon="34.6558096446"><ele>170.77</ele><time>2026-08-15T02:27:15Z</time></trkpt><trkpt lat="59.3531714939" lon="34.6556985006"><ele>170.77</ele><time>2026-08-15T02:27:25Z</time></trkpt><trkpt lat="59.3531429116" lon="34.6556238178"><ele>170.77</ele><time>2026-08-15T02:27:30Z</time></trkpt><trkpt lat="59.3531175144" lon="34.6555622108"><ele>170.77</ele><time>2026-08-15T02:27:35Z</time></trkpt><trkpt lat="59.3530740123" lon="34.6554499771"><ele>171.73</ele><time>2026-08-15T02:27:43Z</time></trkpt><trkpt lat="59.3530432507" lon="34.6553494781"><ele>171.73</ele><time>2026-08-15T02:27:50Z</time></trkpt><trkpt lat="59.3529972341" lon="34.6551680937"><ele>171.73</ele><time>2026-08-15T02:28:04Z</time></trkpt><trkpt lat="59.3529361300" lon="34.6549762320"><ele>171.73</ele><time>2026-08-15T02:28:17Z</time></trkpt><trkpt lat="59.3528747745" lon="34.6548399422"><ele>172.21</ele><time>2026-08-15T02:28:27Z</time></trkpt><trkpt lat="59.3528441805" lon="34.6547712106"><ele>172.21</ele><time>2026-08-15T02:28:33Z</time></trkpt><trkpt lat="59.3528100662" lon="34.6546880621"><ele>170.77</ele><time>2026-08-15T02:28:41Z</time></trkpt><trkpt lat="59.3527492974" lon="34.6545205079"><ele>172.21</ele><time>2026-08-15T02:28:54Z</time></trkpt><trkpt lat="59.3527449388" lon="34.6545025706"><ele>172.21</ele><time>2026-08-15T02:29:11Z</time></trkpt><trkpt lat="59.3527505547" lon="34.6545180771"><ele>172.21</ele><time>2026-08-15T02:29:30Z</time></trkpt><trkpt lat="59.3527466152" lon="34.6545181610"><ele>170.29</ele><time>2026-08-15T02:29:47Z</time></trkpt><trkpt lat="59.3527115788" lon="34.6544373594"><ele>170.29</ele><time>2026-08-15T02:29:58Z</time></trkpt><trkpt lat="59.3527004309" lon="34.6543744951"><ele>171.73</ele><time>2026-08-15T02:30:15Z</time></trkpt><trkpt lat="59.3527106568" lon="34.6543119662"><ele>171.73</ele><time>2026-08-15T02:30:26Z</time></trkpt><trkpt lat="59.3526880257" lon="34.6542544663"><ele>170.29</ele><time>2026-08-15T02:30:31Z</time></trkpt><trkpt lat="59.3526504748" lon="34.6540746745"><ele>170.29</ele><time>2026-08-15T02:30:45Z</time></trkpt><trkpt lat="59.3526049610" lon="34.6539212856"><ele>170.29</ele><time>2026-08-15T02:30:58Z</time></trkpt><trkpt lat="59.3525636382" lon="34.6538007539"><ele>170.29</ele><time>2026-08-15T02:31:06Z</time></trkpt><trkpt lat="59.3525578547" lon="34.6537528932"><ele>170.29</ele><time>2026-08-15T02:31:13Z</time></trkpt><trkpt lat="59.3525160290" lon="34.6536336187"><ele>171.73</ele><time>2026-08-15T02:31:26Z</time></trkpt><trkpt lat="59.3524879497" lon="34.6536163520"><ele>171.25</ele><time>2026-08-15T02:31:47Z</time></trkpt><trkpt lat="59.3524797354" lon="34.6536161005"><ele>172.69</ele><time>2026-08-15T02:31:57Z</time></trkpt><trkpt lat="59.3524809927" lon="34.6536033601"><ele>173.17</ele><time>2026-08-15T02:32:07Z</time></trkpt><trkpt lat="59.3524808250" lon="34.6535995882"><ele>172.21</ele><time>2026-08-15T02:32:09Z</time></trkpt><trkpt lat="59.3524259236" lon="34.6534247417"><ele>172.21</ele><time>2026-08-15T02:32:21Z</time></trkpt><trkpt lat="59.3524075672" lon="34.6533751208"><ele>172.21</ele><time>2026-08-15T02:32:23Z</time></trkpt><trkpt lat="59.3522983510" lon="34.6531374939"><ele>173.66</ele><time>2026-08-15T02:32:37Z</time></trkpt><trkpt lat="59.3521670066" lon="34.6530111786"><ele>174.14</ele><time>2026-08-15T02:32:53Z</time></trkpt><trkpt lat="59.3520585448" lon="34.6528880484"><ele>174.14</ele><time>2026-08-15T02:33:05Z</time></trkpt><trkpt lat="59.3519719597" lon="34.6528126951"><ele>172.69</ele><time>2026-08-15T02:33:11Z</time></trkpt><trkpt lat="59.3518182356" lon="34.6526720468"><ele>171.73</ele><time>2026-08-15T02:33:25Z</time></trkpt><trkpt lat="59.3517091870" lon="34.6525971964"><ele>170.29</ele><time>2026-08-15T02:33:39Z</time></trkpt><trkpt lat="59.3516236078" lon="34.6525291353"><ele>170.29</ele><time>2026-08-15T02:33:49Z</time></trkpt><trkpt lat="59.3515091110" lon="34.6523879003"><ele>171.25</ele><time>2026-08-15T02:34:03Z</time></trkpt><trkpt lat="59.3513679598" lon="34.6520322561"><ele>171.73</ele><time>2026-08-15T02:34:21Z</time></trkpt><trkpt lat="59.3512512837" lon="34.6517484449"><ele>172.69</ele><time>2026-08-15T02:34:35Z</time></trkpt><trkpt lat="59.3511549756" lon="34.6515426692"><ele>173.66</ele><time>2026-08-15T02:34:50Z</time></trkpt><trkpt lat="59.3511039298" lon="34.6513641346"><ele>172.21</ele><time>2026-08-15T02:35:05Z</time></trkpt><trkpt lat="59.3511057738" lon="34.6511684172"><ele>172.21</ele><time>2026-08-15T02:35:16Z</time></trkpt><trkpt lat="59.3511258904" lon="34.6509781480"><ele>172.21</ele><time>2026-08-15T02:35:31Z</time></trkpt><trkpt lat="59.3511241302" lon="34.6509431954"><ele>172.21</ele><time>2026-08-15T02:35:33Z</time></trkpt><trkpt lat="59.3511321768" lon="34.6506883018"><ele>172.21</ele><time>2026-08-15T02:35:46Z</time></trkpt><trkpt lat="59.3511351105" lon="34.6505505871"><ele>173.17</ele><time>2026-08-15T02:35:54Z</time></trkpt><trkpt lat="59.3511382118" lon="34.6503268741"><ele>173.17</ele><time>2026-08-15T02:36:11Z</time></trkpt><trkpt lat="59.3511383794" lon="34.6503263712"><ele>173.17</ele><time>2026-08-15T02:36:26Z</time></trkpt><trkpt lat="59.3511393853" lon="34.6503184084"><ele>172.21</ele><time>2026-08-15T02:36:39Z</time></trkpt><trkpt lat="59.3511434086" lon="34.6503229346"><ele>173.66</ele><time>2026-08-15T02:37:03Z</time></trkpt><trkpt lat="59.3511383794" lon="34.6503309812"><ele>173.66</ele><time>2026-08-15T02:37:29Z</time></trkpt><trkpt lat="59.3511018343" lon="34.6500806976"><ele>173.66</ele><time>2026-08-15T02:37:45Z</time></trkpt><trkpt lat="59.3510826398" lon="34.6500295680"><ele>169.33</ele><time>2026-08-15T02:37:48Z</time></trkpt><trkpt lat="59.3510751799" lon="34.6500135586"><ele>175.58</ele><time>2026-08-15T02:37:49Z</time></trkpt><trkpt lat="59.3510426581" lon="34.6498987265"><ele>173.17</ele><time>2026-08-15T02:38:02Z</time></trkpt><trkpt lat="59.3510056939" lon="34.6497508697"><ele>173.66</ele><time>2026-08-15T02:38:11Z</time></trkpt><trkpt lat="59.3509781174" lon="34.6496815514"><ele>172.21</ele><time>2026-08-15T02:38:15Z</time></trkpt><trkpt lat="59.3509460986" lon="34.6496017557"><ele>172.21</ele><time>2026-08-15T02:38:20Z</time></trkpt><trkpt lat="59.3508514669" lon="34.6492710058"><ele>172.21</ele><time>2026-08-15T02:38:39Z</time></trkpt><trkpt lat="59.3508405704" lon="34.6491493843"><ele>172.21</ele><time>2026-08-15T02:38:46Z</time></trkpt><trkpt lat="59.3507930450" lon="34.6488466300"><ele>170.29</ele><time>2026-08-15T02:39:01Z</time></trkpt><trkpt lat="59.3507551588" lon="34.6486333106"><ele>169.81</ele><time>2026-08-15T02:39:11Z</time></trkpt><trkpt lat="59.3506542407" lon="34.6483355016"><ele>169.33</ele><time>2026-08-15T02:39:28Z</time></trkpt><trkpt lat="59.3506579287" lon="34.6482881438"><ele>169.33</ele><time>2026-08-15T02:39:31Z</time></trkpt><trkpt lat="59.3506100681" lon="34.6481008921"><ele>169.33</ele><time>2026-08-15T02:39:45Z</time></trkpt><trkpt lat="59.3506000098" lon="34.6480904985"><ele>168.85</ele><time>2026-08-15T02:39:46Z</time></trkpt><trkpt lat="59.3505191244" lon="34.6479880717"><ele>170.29</ele><time>2026-08-15T02:39:55Z</time></trkpt><trkpt lat="59.3504602835" lon="34.6478337608"><ele>170.29</ele><time>2026-08-15T02:40:07Z</time></trkpt><trkpt lat="59.3504304439" lon="34.6476908494"><ele>170.29</ele><time>2026-08-15T02:40:19Z</time></trkpt><trkpt lat="59.3504142668" lon="34.6475923620"><ele>170.29</ele><time>2026-08-15T02:40:35Z</time></trkpt><trkpt lat="59.3503629696" lon="34.6473911125"><ele>169.33</ele><time>2026-08-15T02:40:50Z</time></trkpt><trkpt lat="59.3503629696" lon="34.6471355483"><ele>169.33</ele><time>2026-08-15T02:41:03Z</time></trkpt><trkpt lat="59.3503907137" lon="34.6470870171"><ele>170.29</ele><time>2026-08-15T02:41:20Z</time></trkpt><trkpt lat="59.3503740337" lon="34.6470280085"><ele>170.29</ele><time>2026-08-15T02:41:44Z</time></trkpt><trkpt lat="59.3503617123" lon="34.6469829138"><ele>170.29</ele><time>2026-08-15T02:41:57Z</time></trkpt><trkpt lat="59.3503629696" lon="34.6469633002"><ele>168.85</ele><time>2026-08-15T02:42:21Z</time></trkpt><trkpt lat="59.3503625505" lon="34.6469653118"><ele>171.25</ele><time>2026-08-15T02:42:24Z</time></trkpt><trkpt lat="59.3503635563" lon="34.6469651442"><ele>169.81</ele><time>2026-08-15T02:42:28Z</time></trkpt><trkpt lat="59.3503628857" lon="34.6469517332"><ele>169.81</ele><time>2026-08-15T02:43:04Z</time></trkpt><trkpt lat="59.3503605388" lon="34.6469352208"><ele>169.81</ele><time>2026-08-15T02:43:30Z</time></trkpt><trkpt lat="59.3503539171" lon="34.6469288506"><ele>169.81</ele><time>2026-08-15T02:44:06Z</time></trkpt><trkpt lat="59.3502738699" lon="34.6468808223"><ele>170.77</ele><time>2026-08-15T02:44:20Z</time></trkpt><trkpt lat="59.3501106743" lon="34.6468435228"><ele>171.25</ele><time>2026-08-15T02:44:36Z</time></trkpt><trkpt lat="59.3499494903" lon="34.6469475422"><ele>171.73</ele><time>2026-08-15T02:44:53Z</time></trkpt><trkpt lat="59.3498489074" lon="34.6470131725"><ele>171.73</ele><time>2026-08-15T02:45:02Z</time></trkpt><trkpt lat="59.3497053254" lon="34.6470709238"><ele>172.21</ele><time>2026-08-15T02:45:15Z</time></trkpt><trkpt lat="59.3495272938" lon="34.6470627096"><ele>172.21</ele><time>2026-08-15T02:45:31Z</time></trkpt><trkpt lat="59.3493910041" lon="34.6469794773"><ele>172.69</ele><time>2026-08-15T02:45:46Z</time></trkpt><trkpt lat="59.3492823746" lon="34.6468737815"><ele>173.17</ele><time>2026-08-15T02:46:02Z</time></trkpt><trkpt lat="59.3492454942" lon="34.6468432713"><ele>173.17</ele><time>2026-08-15T02:46:16Z</time></trkpt><trkpt lat="59.3491369486" lon="34.6467664931"><ele>173.17</ele><time>2026-08-15T02:46:29Z</time></trkpt><trkpt lat="59.3490183447" lon="34.6465759724"><ele>172.21</ele><time>2026-08-15T02:46:46Z</time></trkpt><trkpt lat="59.3489702325" lon="34.6465244237"><ele>171.73</ele><time>2026-08-15T02:47:00Z</time></trkpt><trkpt lat="59.3489555642" lon="34.6464915667"><ele>171.73</ele><time>2026-08-15T02:47:25Z</time></trkpt><trkpt lat="59.3489482719" lon="34.6464857832"><ele>173.66</ele><time>2026-08-15T02:47:40Z</time></trkpt><trkpt lat="59.3489289097" lon="34.6464717854"><ele>171.73</ele><time>2026-08-15T02:48:18Z</time></trkpt><trkpt lat="59.3489291612" lon="34.6464738809"><ele>173.17</ele><time>2026-08-15T02:48:21Z</time></trkpt><trkpt lat="59.3489242159" lon="34.6464775689"><ele>171.73</ele><time>2026-08-15T02:48:36Z</time></trkpt><trkpt lat="59.3489232939" lon="34.6464795806"><ele>173.66</ele><time>2026-08-15T02:48:40Z</time></trkpt><trkpt lat="59.3489232939" lon="34.6464853641"><ele>172.21</ele><time>2026-08-15T02:48:47Z</time></trkpt><trkpt lat="59.3489269819" lon="34.6464868728"><ele>172.21</ele><time>2026-08-15T02:49:11Z</time></trkpt><trkpt lat="59.3489381298" lon="34.6464218292"><ele>173.66</ele><time>2026-08-15T02:49:27Z</time></trkpt><trkpt lat="59.3489582464" lon="34.6463138703"><ele>172.21</ele><time>2026-08-15T02:49:43Z</time></trkpt><trkpt lat="59.3489421532" lon="34.6461936738"><ele>171.73</ele><time>2026-08-15T02:49:56Z</time></trkpt><trkpt lat="59.3489116430" lon="34.6460092720"><ele>170.77</ele><time>2026-08-15T02:50:11Z</time></trkpt><trkpt lat="59.3488762714" lon="34.6458572242"><ele>170.77</ele><time>2026-08-15T02:50:25Z</time></trkpt><trkpt lat="59.3488170113" lon="34.6456754208"><ele>170.77</ele><time>2026-08-15T02:50:36Z</time></trkpt><trkpt lat="59.3487548176" lon="34.6455108840"><ele>170.77</ele><time>2026-08-15T02:50:52Z</time></trkpt><trkpt lat="59.3487570807" lon="34.6453794558"><ele>170.77</ele><time>2026-08-15T02:51:05Z</time></trkpt><trkpt lat="59.3487607688" lon="34.6452429146"><ele>172.21</ele><time>2026-08-15T02:51:19Z</time></trkpt><trkpt lat="59.3487671390" lon="34.6450432576"><ele>172.21</ele><time>2026-08-15T02:51:34Z</time></trkpt><trkpt lat="59.3487566616" lon="34.6448115818"><ele>172.21</ele><time>2026-08-15T02:51:48Z</time></trkpt><trkpt lat="59.3487188593" lon="34.6446160320"><ele>172.21</ele><time>2026-08-15T02:52:01Z</time></trkpt><trkpt lat="59.3487166800" lon="34.6444602124"><ele>172.21</ele><time>2026-08-15T02:52:14Z</time></trkpt><trkpt lat="59.3486943003" lon="34.6443687659"><ele>172.21</ele><time>2026-08-15T02:52:29Z</time></trkpt><trkpt lat="59.3486966472" lon="34.6441750601"><ele>172.21</ele><time>2026-08-15T02:52:43Z</time></trkpt><trkpt lat="59.3486930430" lon="34.6441345755"><ele>172.21</ele><time>2026-08-15T02:52:46Z</time></trkpt><trkpt lat="59.3486891873" lon="34.6440235991"><ele>172.21</ele><time>2026-08-15T02:53:02Z</time></trkpt><trkpt lat="59.3486821465" lon="34.6439879760"><ele>172.21</ele><time>2026-08-15T02:53:22Z</time></trkpt><trkpt lat="59.3486842420" lon="34.6439659316"><ele>172.21</ele><time>2026-08-15T02:53:45Z</time></trkpt><trkpt lat="59.3487006705" lon="34.6438595653"><ele>170.77</ele><time>2026-08-15T02:53:58Z</time></trkpt><trkpt lat="59.3486961443" lon="34.6438377723"><ele>173.17</ele><time>2026-08-15T02:54:00Z</time></trkpt><trkpt lat="59.3486849964" lon="34.6437809430"><ele>173.17</ele><time>2026-08-15T02:54:20Z</time></trkpt><trkpt lat="59.3486827333" lon="34.6437666100"><ele>171.73</ele><time>2026-08-15T02:54:24Z</time></trkpt><trkpt lat="59.3486772012" lon="34.6437376086"><ele>172.69</ele><time>2026-08-15T02:54:48Z</time></trkpt><trkpt lat="59.3486706633" lon="34.6436470840"><ele>171.25</ele><time>2026-08-15T02:55:08Z</time></trkpt><trkpt lat="59.3486754410" lon="34.6435345151"><ele>171.25</ele><time>2026-08-15T02:55:21Z</time></trkpt><trkpt lat="59.3486313522" lon="34.6434263885"><ele>171.25</ele><time>2026-08-15T02:55:35Z</time></trkpt><trkpt lat="59.3486271612" lon="34.6433854010"><ele>171.25</ele><time>2026-08-15T02:55:49Z</time></trkpt><trkpt lat="59.3486178573" lon="34.6432839800"><ele>171.25</ele><time>2026-08-15T02:56:03Z</time></trkpt><trkpt lat="59.3486217968" lon="34.6431922819"><ele>171.25</ele><time>2026-08-15T02:56:13Z</time></trkpt><trkpt lat="59.3486205395" lon="34.6430694032"><ele>171.25</ele><time>2026-08-15T02:56:28Z</time></trkpt><trkpt lat="59.3486401532" lon="34.6430237219"><ele>171.25</ele><time>2026-08-15T02:56:43Z</time></trkpt><trkpt lat="59.3486272451" lon="34.6429620311"><ele>173.17</ele><time>2026-08-15T02:56:49Z</time></trkpt><trkpt lat="59.3486285862" lon="34.6429564990"><ele>171.25</ele><time>2026-08-15T02:56:53Z</time></trkpt><trkpt lat="59.3486254010" lon="34.6428867616"><ele>171.25</ele><time>2026-08-15T02:57:07Z</time></trkpt><trkpt lat="59.3486252334" lon="34.6428860910"><ele>172.69</ele><time>2026-08-15T02:57:12Z</time></trkpt><trkpt lat="59.3485782947" lon="34.6428450197"><ele>173.66</ele><time>2026-08-15T02:57:26Z</time></trkpt><trkpt lat="59.3485902809" lon="34.6427950636"><ele>173.66</ele><time>2026-08-15T02:57:45Z</time></trkpt><trkpt lat="59.3485834915" lon="34.6427790541"><ele>173.66</ele><time>2026-08-15T02:58:00Z</time></trkpt><trkpt lat="59.3485851679" lon="34.6427623741"><ele>173.66</ele><time>2026-08-15T02:58:14Z</time></trkpt><trkpt lat="59.3485879339" lon="34.6427538246"><ele>174.14</ele><time>2026-08-15T02:58:26Z</time></trkpt><trkpt lat="59.3485772051" lon="34.6426494699"><ele>174.14</ele><time>2026-08-15T02:58:40Z</time></trkpt><trkpt lat="59.3485952262" lon="34.6425981726"><ele>174.62</ele><time>2026-08-15T02:58:56Z</time></trkpt><trkpt lat="59.3485956453" lon="34.6425983403"><ele>173.17</ele><time>2026-08-15T02:59:00Z</time></trkpt><trkpt lat="59.3485925440" lon="34.6426026151"><ele>173.17</ele><time>2026-08-15T02:59:31Z</time></trkpt><trkpt lat="59.3485921249" lon="34.6425980050"><ele>175.10</ele><time>2026-08-15T02:59:42Z</time></trkpt><trkpt lat="59.3485919572" lon="34.6425977536"><ele>173.66</ele><time>2026-08-15T02:59:44Z</time></trkpt><trkpt lat="59.3485657219" lon="34.6425532456"><ele>173.17</ele><time>2026-08-15T03:00:03Z</time></trkpt><trkpt lat="59.3485482875" lon="34.6424433589"><ele>173.17</ele><time>2026-08-15T03:00:14Z</time></trkpt><trkpt lat="59.3486067932" lon="34.6423906367"><ele>173.17</ele><time>2026-08-15T03:00:24Z</time></trkpt><trkpt lat="59.3486591801" lon="34.6423426084"><ele>171.73</ele><time>2026-08-15T03:00:37Z</time></trkpt><trkpt lat="59.3487086333" lon="34.6422696020"><ele>171.25</ele><time>2026-08-15T03:00:50Z</time></trkpt><trkpt lat="59.3487362098" lon="34.6422072407"><ele>171.25</ele><time>2026-08-15T03:01:03Z</time></trkpt><trkpt lat="59.3487742636" lon="34.6421471424"><ele>171.25</ele><time>2026-08-15T03:01:12Z</time></trkpt><trkpt lat="59.3488120660" lon="34.6421059035"><ele>171.25</ele><time>2026-08-15T03:01:24Z</time></trkpt><trkpt lat="59.3488146644" lon="34.6421038080"><ele>172.69</ele><time>2026-08-15T03:01:43Z</time></trkpt><trkpt lat="59.3488144130" lon="34.6421034727"><ele>171.25</ele><time>2026-08-15T03:01:46Z</time></trkpt><trkpt lat="59.3488139100" lon="34.6421053167"><ele>172.69</ele><time>2026-08-15T03:01:58Z</time></trkpt><trkpt lat="59.3488136586" lon="34.6421080828"><ele>171.25</ele><time>2026-08-15T03:02:01Z</time></trkpt><trkpt lat="59.3488160055" lon="34.6421182249"><ele>171.25</ele><time>2026-08-15T03:02:30Z</time></trkpt><trkpt lat="59.3488135748" lon="34.6421233378"><ele>172.21</ele><time>2026-08-15T03:02:50Z</time></trkpt><trkpt lat="59.3488150835" lon="34.6421230864"><ele>172.69</ele><time>2026-08-15T03:03:03Z</time></trkpt><trkpt lat="59.3488125689" lon="34.6421240084"><ele>171.25</ele><time>2026-08-15T03:03:09Z</time></trkpt><trkpt lat="59.3488126528" lon="34.6421243437"><ele>171.25</ele><time>2026-08-15T03:03:14Z</time></trkpt><trkpt lat="59.3488750141" lon="34.6421735454"><ele>170.77</ele><time>2026-08-15T03:03:28Z</time></trkpt><trkpt lat="59.3489445001" lon="34.6421762276"><ele>170.77</ele><time>2026-08-15T03:03:43Z</time></trkpt><trkpt lat="59.3490137346" lon="34.6421460528"><ele>170.77</ele><time>2026-08-15T03:03:59Z</time></trkpt><trkpt lat="59.3490217812" lon="34.6420977730"><ele>170.77</ele><time>2026-08-15T03:04:11Z</time></trkpt><trkpt lat="59.3490232062" lon="34.6420870442"><ele>170.77</ele><time>2026-08-15T03:04:37Z</time></trkpt><trkpt lat="59.3490264751" lon="34.6420890559"><ele>171.73</ele><time>2026-08-15T03:05:05Z</time></trkpt><trkpt lat="59.3490270618" lon="34.6420892235"><ele>171.73</ele><time>2026-08-15T03:05:33Z</time></trkpt><trkpt lat="59.3490491062" lon="34.6420232579"><ele>171.73</ele><time>2026-08-15T03:06:06Z</time></trkpt><trkpt lat="59.3490660377" lon="34.6419828571"><ele>171.73</ele><time>2026-08-15T03:06:21Z</time></trkpt><trkpt lat="59.3490836397" lon="34.6419386845"><ele>171.73</ele><time>2026-08-15T03:06:35Z</time></trkpt><trkpt lat="59.3491362780" lon="34.6418222599"><ele>171.73</ele><time>2026-08-15T03:06:54Z</time></trkpt><trkpt lat="59.3491782714" lon="34.6416764148"><ele>171.73</ele><time>2026-08-15T03:07:08Z</time></trkpt><trkpt lat="59.3492808659" lon="34.6416260395"><ele>170.29</ele><time>2026-08-15T03:07:22Z</time></trkpt><trkpt lat="59.3492877390" lon="34.6416193340"><ele>170.29</ele><time>2026-08-15T03:07:23Z</time></trkpt><trkpt lat="59.3493494298" lon="34.6415640134"><ele>170.29</ele><time>2026-08-15T03:07:36Z</time></trkpt><trkpt lat="59.3494099472" lon="34.6415603254"><ele>170.29</ele><time>2026-08-15T03:07:48Z</time></trkpt><trkpt lat="59.3494411279" lon="34.6415323298"><ele>171.73</ele><time>2026-08-15T03:08:01Z</time></trkpt><trkpt lat="59.3495178223" lon="34.6414584015"><ele>171.73</ele><time>2026-08-15T03:08:16Z</time></trkpt><trkpt lat="59.3495386094" lon="34.6414508577"><ele>171.73</ele><time>2026-08-15T03:08:35Z</time></trkpt><trkpt lat="59.3495550379" lon="34.6414330043"><ele>170.29</ele><time>2026-08-15T03:08:55Z</time></trkpt><trkpt lat="59.3495999649" lon="34.6413447428"><ele>170.29</ele><time>2026-08-15T03:09:06Z</time></trkpt><trkpt lat="59.3496610690" lon="34.6412529610"><ele>170.29</ele><time>2026-08-15T03:09:20Z</time></trkpt><trkpt lat="59.3497462291" lon="34.6411398891"><ele>170.29</ele><time>2026-08-15T03:09:35Z</time></trkpt><trkpt lat="59.3498315569" lon="34.6411315911"><ele>170.29</ele><time>2026-08-15T03:09:46Z</time></trkpt><trkpt lat="59.3499108497" lon="34.6410646196"><ele>170.29</ele><time>2026-08-15T03:10:00Z</time></trkpt><trkpt lat="59.3499700259" lon="34.6411095466"><ele>170.29</ele><time>2026-08-15T03:10:15Z</time></trkpt><trkpt lat="59.3500374164" lon="34.6411387995"><ele>171.73</ele><time>2026-08-15T03:10:30Z</time></trkpt><trkpt lat="59.3500448763" lon="34.6411384642"><ele>171.73</ele><time>2026-08-15T03:10:31Z</time></trkpt><trkpt lat="59.3500621431" lon="34.6411342733"><ele>170.29</ele><time>2026-08-15T03:10:33Z</time></trkpt><trkpt lat="59.3501141947" lon="34.6411122289"><ele>170.29</ele><time>2026-08-15T03:10:44Z</time></trkpt><trkpt lat="59.3501554336" lon="34.6410999075"><ele>170.29</ele><time>2026-08-15T03:11:16Z</time></trkpt><trkpt lat="59.3501771428" lon="34.6411035955"><ele>170.29</ele><time>2026-08-15T03:11:47Z</time></trkpt><trkpt lat="59.3501774780" lon="34.6410983987"><ele>171.25</ele><time>2026-08-15T03:11:49Z</time></trkpt><trkpt lat="59.3501891289" lon="34.6410731692"><ele>170.29</ele><time>2026-08-15T03:12:22Z</time></trkpt><trkpt lat="59.3501858599" lon="34.6410756838"><ele>170.29</ele><time>2026-08-15T03:12:49Z</time></trkpt><trkpt lat="59.3501866143" lon="34.6410745941"><ele>169.81</ele><time>2026-08-15T03:13:10Z</time></trkpt><trkpt lat="59.3501863629" lon="34.6410669666"><ele>169.33</ele><time>2026-08-15T03:13:42Z</time></trkpt><trkpt lat="59.3501618877" lon="34.6411180124"><ele>170.77</ele><time>2026-08-15T03:13:58Z</time></trkpt><trkpt lat="59.3500535935" lon="34.6411623526"><ele>170.77</ele><time>2026-08-15T03:14:16Z</time></trkpt><trkpt lat="59.3500015419" lon="34.6412126441"><ele>170.77</ele><time>2026-08-15T03:14:28Z</time></trkpt><trkpt lat="59.3499477301" lon="34.6412581578"><ele>170.77</ele><time>2026-08-15T03:14:45Z</time></trkpt><trkpt lat="59.3499364983" lon="34.6412684675"><ele>170.77</ele><time>2026-08-15T03:15:03Z</time></trkpt><trkpt lat="59.3498703651" lon="34.6413615067"><ele>170.77</ele><time>2026-08-15T03:15:16Z</time></trkpt><trkpt lat="59.3498452194" lon="34.6414703038"><ele>170.77</ele><time>2026-08-15T03:15:29Z</time></trkpt><trkpt lat="59.3497391045" lon="34.6414798591"><ele>170.77</ele><time>2026-08-15T03:15:42Z</time></trkpt><trkpt lat="59.3496614043" lon="34.6415205114"><ele>170.77</ele><time>2026-08-15T03:15:54Z</time></trkpt><trkpt lat="59.3496034015" lon="34.6415489260"><ele>171.25</ele><time>2026-08-15T03:16:07Z</time></trkpt><trkpt lat="59.3495561276" lon="34.6415760834"><ele>171.25</ele><time>2026-08-15T03:16:20Z</time></trkpt><trkpt lat="59.3495618273" lon="34.6415387001"><ele>171.25</ele><time>2026-08-15T03:16:33Z</time></trkpt><trkpt lat="59.3495590612" lon="34.6415223554"><ele>169.33</ele><time>2026-08-15T03:16:45Z</time></trkpt><trkpt lat="59.3495581392" lon="34.6415205952"><ele>170.29</ele><time>2026-08-15T03:16:50Z</time></trkpt><trkpt lat="59.3495583907" lon="34.6415200084"><ele>168.85</ele><time>2026-08-15T03:16:54Z</time></trkpt><trkpt lat="59.3495583907" lon="34.6415207628"><ele>169.81</ele><time>2026-08-15T03:16:56Z</time></trkpt><trkpt lat="59.3495590612" lon="34.6415221877"><ele>170.29</ele><time>2026-08-15T03:17:01Z</time></trkpt><trkpt lat="59.3495613243" lon="34.6415250376"><ele>172.21</ele><time>2026-08-15T03:17:13Z</time></trkpt><trkpt lat="59.3495606538" lon="34.6415319107"><ele>170.77</ele><time>2026-08-15T03:17:31Z</time></trkpt><trkpt lat="59.3495562952" lon="34.6415775921"><ele>171.73</ele><time>2026-08-15T03:17:55Z</time></trkpt><trkpt lat="59.3495215941" lon="34.6416576393"><ele>171.73</ele><time>2026-08-15T03:18:08Z</time></trkpt><trkpt lat="59.3494463246" lon="34.6417041589"><ele>171.73</ele><time>2026-08-15T03:18:20Z</time></trkpt><trkpt lat="59.3493983801" lon="34.6417051647"><ele>171.73</ele><time>2026-08-15T03:18:26Z</time></trkpt><trkpt lat="59.3493547104" lon="34.6416734811"><ele>170.29</ele><time>2026-08-15T03:18:31Z</time></trkpt><trkpt lat="59.3492684606" lon="34.6416376065"><ele>170.29</ele><time>2026-08-15T03:18:42Z</time></trkpt><trkpt lat="59.3492176663" lon="34.6415971220"><ele>170.29</ele><time>2026-08-15T03:18:57Z</time></trkpt><trkpt lat="59.3492117152" lon="34.6416027378"><ele>170.29</ele><time>2026-08-15T03:19:13Z</time></trkpt><trkpt lat="59.3491708953" lon="34.6415068489"><ele>169.81</ele><time>2026-08-15T03:19:22Z</time></trkpt><trkpt lat="59.3491398823" lon="34.6413572319"><ele>169.81</ele><time>2026-08-15T03:19:31Z</time></trkpt><trkpt lat="59.3491068576" lon="34.6411529649"><ele>169.81</ele><time>2026-08-15T03:19:45Z</time></trkpt><trkpt lat="59.3490525428" lon="34.6410726663"><ele>169.81</ele><time>2026-08-15T03:19:58Z</time></trkpt><trkpt lat="59.3490524590" lon="34.6410830598"><ele>169.81</ele><time>2026-08-15T03:20:20Z</time></trkpt><trkpt lat="59.3489864096" lon="34.6410629433"><ele>169.81</ele><time>2026-08-15T03:20:34Z</time></trkpt><trkpt lat="59.3488957174" lon="34.6410424914"><ele>169.81</ele><time>2026-08-15T03:20:45Z</time></trkpt><trkpt lat="59.3488198612" lon="34.6411446668"><ele>169.81</ele><time>2026-08-15T03:20:59Z</time></trkpt><trkpt lat="59.3488117307" lon="34.6411534678"><ele>169.81</ele><time>2026-08-15T03:21:22Z</time></trkpt><trkpt lat="59.3488053605" lon="34.6411644481"><ele>169.81</ele><time>2026-08-15T03:21:51Z</time></trkpt><trkpt lat="59.3488085456" lon="34.6411683038"><ele>169.81</ele><time>2026-08-15T03:22:22Z</time></trkpt><trkpt lat="59.3488093000" lon="34.6411686391"><ele>170.29</ele><time>2026-08-15T03:22:26Z</time></trkpt><trkpt lat="59.3488114793" lon="34.6411664598"><ele>169.33</ele><time>2026-08-15T03:22:44Z</time></trkpt><trkpt lat="59.3488124851" lon="34.6411632746"><ele>170.29</ele><time>2026-08-15T03:23:17Z</time></trkpt><trkpt lat="59.3488103896" lon="34.6411811281"><ele>170.29</ele><time>2026-08-15T03:23:46Z</time></trkpt><trkpt lat="59.3487414066" lon="34.6412900928"><ele>170.29</ele><time>2026-08-15T03:23:59Z</time></trkpt><trkpt lat="59.3486703280" lon="34.6413945314"><ele>169.33</ele><time>2026-08-15T03:24:12Z</time></trkpt><trkpt lat="59.3486191146" lon="34.6414132230"><ele>170.77</ele><time>2026-08-15T03:24:21Z</time></trkpt><trkpt lat="59.3485672306" lon="34.6414482594"><ele>170.77</ele><time>2026-08-15T03:24:38Z</time></trkpt><trkpt lat="59.3485469464" lon="34.6414633468"><ele>169.33</ele><time>2026-08-15T03:24:50Z</time></trkpt><trkpt lat="59.3484866805" lon="34.6415153984"><ele>169.33</ele><time>2026-08-15T03:25:07Z</time></trkpt><trkpt lat="59.3484535720" lon="34.6415380295"><ele>169.33</ele><time>2026-08-15T03:25:20Z</time></trkpt><trkpt lat="59.3484097347" lon="34.6415151469"><ele>169.33</ele><time>2026-08-15T03:25:40Z</time></trkpt><trkpt lat="59.3483735248" lon="34.6415529493"><ele>169.33</ele><time>2026-08-15T03:25:53Z</time></trkpt><trkpt lat="59.3483364768" lon="34.6415832080"><ele>170.77</ele><time>2026-08-15T03:26:09Z</time></trkpt><trkpt lat="59.3482762948" lon="34.6415611636"><ele>171.25</ele><time>2026-08-15T03:26:22Z</time></trkpt><trkpt lat="59.3482668232" lon="34.6415863931"><ele>171.73</ele><time>2026-08-15T03:26:38Z</time></trkpt><trkpt lat="59.3482230697" lon="34.6416816954"><ele>172.21</ele><time>2026-08-15T03:26:52Z</time></trkpt><trkpt lat="59.3482141849" lon="34.6416982915"><ele>172.21</ele><time>2026-08-15T03:27:09Z</time></trkpt><trkpt lat="59.3481918052" lon="34.6417473257"><ele>172.21</ele><time>2026-08-15T03:27:30Z</time></trkpt><trkpt lat="59.3481882848" lon="34.6417697892"><ele>172.21</ele><time>2026-08-15T03:27:50Z</time></trkpt><trkpt lat="59.3481870275" lon="34.6417728066"><ele>171.25</ele><time>2026-08-15T03:28:05Z</time></trkpt><trkpt lat="59.3481871951" lon="34.6417783387"><ele>172.21</ele><time>2026-08-15T03:28:34Z</time></trkpt><trkpt lat="59.3481861893" lon="34.6417769138"><ele>171.25</ele><time>2026-08-15T03:29:03Z</time></trkpt><trkpt lat="59.3481819145" lon="34.6417780872"><ele>172.69</ele><time>2026-08-15T03:29:43Z</time></trkpt><trkpt lat="59.3481557630" lon="34.6417896543"><ele>172.69</ele><time>2026-08-15T03:30:06Z</time></trkpt><trkpt lat="59.3481532484" lon="34.6417939290"><ele>171.25</ele><time>2026-08-15T03:30:08Z</time></trkpt><trkpt lat="59.3480842654" lon="34.6418721322"><ele>172.21</ele><time>2026-08-15T03:30:23Z</time></trkpt><trkpt lat="59.3480259273" lon="34.6419262793"><ele>172.21</ele><time>2026-08-15T03:30:37Z</time></trkpt><trkpt lat="59.3479779828" lon="34.6419241000"><ele>172.21</ele><time>2026-08-15T03:30:52Z</time></trkpt><trkpt lat="59.3479279429" lon="34.6419189870"><ele>171.25</ele><time>2026-08-15T03:31:05Z</time></trkpt><trkpt lat="59.3479049765" lon="34.6419137064"><ele>172.69</ele><time>2026-08-15T03:31:18Z</time></trkpt><trkpt lat="59.3478504941" lon="34.6419018880"><ele>172.69</ele><time>2026-08-15T03:31:30Z</time></trkpt><trkpt lat="59.3478030525" lon="34.6418557875"><ele>173.17</ele><time>2026-08-15T03:31:42Z</time></trkpt><trkpt lat="59.3477631547" lon="34.6418255288"><ele>173.17</ele><time>2026-08-15T03:32:00Z</time></trkpt><trkpt lat="59.3476882204" lon="34.6418605652"><ele>170.77</ele><time>2026-08-15T03:32:14Z</time></trkpt><trkpt lat="59.3476879690" lon="34.6418603137"><ele>174.14</ele><time>2026-08-15T03:32:15Z</time></trkpt><trkpt lat="59.3476453051" lon="34.6418660972"><ele>172.69</ele><time>2026-08-15T03:32:21Z</time></trkpt><trkpt lat="59.3475952651" lon="34.6418441366"><ele>172.69</ele><time>2026-08-15T03:32:32Z</time></trkpt><trkpt lat="59.3475355860" lon="34.6418166440"><ele>172.69</ele><time>2026-08-15T03:32:45Z</time></trkpt><trkpt lat="59.3474800140" lon="34.6417852957"><ele>172.69</ele><time>2026-08-15T03:33:01Z</time></trkpt><trkpt lat="59.3474299740" lon="34.6417155582"><ele>172.69</ele><time>2026-08-15T03:33:16Z</time></trkpt><trkpt lat="59.3474188261" lon="34.6417214256"><ele>172.69</ele><time>2026-08-15T03:33:42Z</time></trkpt><trkpt lat="59.3474154733" lon="34.6417343337"><ele>172.21</ele><time>2026-08-15T03:34:13Z</time></trkpt><trkpt lat="59.3473842088" lon="34.6416640095"><ele>172.21</ele><time>2026-08-15T03:34:44Z</time></trkpt><trkpt lat="59.3472967017" lon="34.6415318269"><ele>171.73</ele><time>2026-08-15T03:35:00Z</time></trkpt><trkpt lat="59.3472433090" lon="34.6414490137"><ele>171.73</ele><time>2026-08-15T03:35:17Z</time></trkpt><trkpt lat="59.3471913412" lon="34.6415004786"><ele>171.73</ele><time>2026-08-15T03:35:33Z</time></trkpt><trkpt lat="59.3470980506" lon="34.6415713057"><ele>169.81</ele><time>2026-08-15T03:35:48Z</time></trkpt><trkpt lat="59.3470678758" lon="34.6416297276"><ele>169.33</ele><time>2026-08-15T03:36:00Z</time></trkpt><trkpt lat="59.3470494356" lon="34.6416886523"><ele>168.85</ele><time>2026-08-15T03:36:27Z</time></trkpt><trkpt lat="59.3470415566" lon="34.6417010576"><ele>168.85</ele><time>2026-08-15T03:36:54Z</time></trkpt><trkpt lat="59.3470295705" lon="34.6417253651"><ele>168.85</ele><time>2026-08-15T03:37:13Z</time></trkpt><trkpt lat="59.3470288161" lon="34.6417197492"><ele>170.29</ele><time>2026-08-15T03:37:22Z</time></trkpt><trkpt lat="59.3470292352" lon="34.6417175699"><ele>168.85</ele><time>2026-08-15T03:37:25Z</time></trkpt><trkpt lat="59.3470241223" lon="34.6417318191"><ele>168.37</ele><time>2026-08-15T03:37:57Z</time></trkpt><trkpt lat="59.3470211048" lon="34.6417301428"><ele>168.37</ele><time>2026-08-15T03:38:22Z</time></trkpt><trkpt lat="59.3470256310" lon="34.6417225990"><ele>169.81</ele><time>2026-08-15T03:38:44Z</time></trkpt><trkpt lat="59.3470278103" lon="34.6417381894"><ele>168.37</ele><time>2026-08-15T03:39:07Z</time></trkpt><trkpt lat="59.3470310792" lon="34.6417215932"><ele>168.37</ele><time>2026-08-15T03:39:37Z</time></trkpt><trkpt lat="59.3470424786" lon="34.6417038236"><ele>168.37</ele><time>2026-08-15T03:40:05Z</time></trkpt><trkpt lat="59.3470258825" lon="34.6417030692"><ele>167.89</ele><time>2026-08-15T03:40:22Z</time></trkpt><trkpt lat="59.3469796982" lon="34.6416394506"><ele>169.33</ele><time>2026-08-15T03:40:31Z</time></trkpt><trkpt lat="59.3469724059" lon="34.6416345052"><ele>169.33</ele><time>2026-08-15T03:40:32Z</time></trkpt><trkpt lat="59.3468809593" lon="34.6416249499"><ele>169.33</ele><time>2026-08-15T03:40:45Z</time></trkpt><trkpt lat="59.3468382116" lon="34.6416267939"><ele>169.33</ele><time>2026-08-15T03:41:08Z</time></trkpt><trkpt lat="59.3468090426" lon="34.6416173223"><ele>169.33</ele><time>2026-08-15T03:41:27Z</time></trkpt><trkpt lat="59.3467099685" lon="34.6415780950"><ele>169.33</ele><time>2026-08-15T03:41:41Z</time></trkpt><trkpt lat="59.3466407340" lon="34.6416029893"><ele>169.33</ele><time>2026-08-15T03:41:54Z</time></trkpt><trkpt lat="59.3465766963" lon="34.6416189149"><ele>169.33</ele><time>2026-08-15T03:42:11Z</time></trkpt><trkpt lat="59.3464545719" lon="34.6416783426"><ele>169.33</ele><time>2026-08-15T03:42:22Z</time></trkpt><trkpt lat="59.3464418314" lon="34.6416767500"><ele>169.33</ele><time>2026-08-15T03:42:23Z</time></trkpt><trkpt lat="59.3463665619" lon="34.6416469105"><ele>169.33</ele><time>2026-08-15T03:42:31Z</time></trkpt><trkpt lat="59.3462487962" lon="34.6415866446"><ele>169.33</ele><time>2026-08-15T03:42:46Z</time></trkpt><trkpt lat="59.3461998459" lon="34.6415825374"><ele>169.33</ele><time>2026-08-15T03:42:59Z</time></trkpt><trkpt lat="59.3461049628" lon="34.6416850481"><ele>169.33</ele><time>2026-08-15T03:43:13Z</time></trkpt><trkpt lat="59.3460627180" lon="34.6417441405"><ele>169.33</ele><time>2026-08-15T03:43:25Z</time></trkpt><trkpt lat="59.3460679986" lon="34.6417117864"><ele>169.33</ele><time>2026-08-15T03:43:46Z</time></trkpt><trkpt lat="59.3460722733" lon="34.6417316515"><ele>169.33</ele><time>2026-08-15T03:44:07Z</time></trkpt><trkpt lat="59.3460069783" lon="34.6418303903"><ele>167.89</ele><time>2026-08-15T03:44:25Z</time></trkpt><trkpt lat="59.3459114246" lon="34.6420066617"><ele>168.85</ele><time>2026-08-15T03:44:39Z</time></trkpt><trkpt lat="59.3458051421" lon="34.6421843581"><ele>167.89</ele><time>2026-08-15T03:44:54Z</time></trkpt><trkpt lat="59.3457399309" lon="34.6423058119"><ele>169.33</ele><time>2026-08-15T03:45:05Z</time></trkpt><trkpt lat="59.3457302079" lon="34.6423005313"><ele>169.33</ele><time>2026-08-15T03:45:25Z</time></trkpt><trkpt lat="59.3457291182" lon="34.6423034649"><ele>167.89</ele><time>2026-08-15T03:45:30Z</time></trkpt><trkpt lat="59.3456637394" lon="34.6424180456"><ele>169.33</ele><time>2026-08-15T03:45:40Z</time></trkpt><trkpt lat="59.3455731310" lon="34.6425114200"><ele>171.25</ele><time>2026-08-15T03:45:52Z</time></trkpt><trkpt lat="59.3455376755" lon="34.6425124258"><ele>171.73</ele><time>2026-08-15T03:46:06Z</time></trkpt><trkpt lat="59.3455353286" lon="34.6427031979"><ele>172.21</ele><time>2026-08-15T03:46:22Z</time></trkpt><trkpt lat="59.3455504999" lon="34.6428673156"><ele>172.21</ele><time>2026-08-15T03:46:34Z</time></trkpt><trkpt lat="59.3455406930" lon="34.6429471113"><ele>171.25</ele><time>2026-08-15T03:46:45Z</time></trkpt><trkpt lat="59.3455366697" lon="34.6429682337"><ele>171.73</ele><time>2026-08-15T03:46:54Z</time></trkpt><trkpt lat="59.3455658387" lon="34.6430160105"><ele>171.73</ele><time>2026-08-15T03:47:25Z</time></trkpt><trkpt lat="59.3455677666" lon="34.6430824790"><ele>171.73</ele><time>2026-08-15T03:47:52Z</time></trkpt><trkpt lat="59.3455638271" lon="34.6430911962"><ele>170.29</ele><time>2026-08-15T03:48:06Z</time></trkpt><trkpt lat="59.3455705326" lon="34.6430836525"><ele>170.29</ele><time>2026-08-15T03:48:26Z</time></trkpt><trkpt lat="59.3455776572" lon="34.6430865023"><ele>170.29</ele><time>2026-08-15T03:48:50Z</time></trkpt><trkpt lat="59.3455878831" lon="34.6431055292"><ele>170.29</ele><time>2026-08-15T03:49:06Z</time></trkpt><trkpt lat="59.3455720413" lon="34.6432599239"><ele>169.81</ele><time>2026-08-15T03:49:20Z</time></trkpt><trkpt lat="59.3455780763" lon="34.6433366183"><ele>169.81</ele><time>2026-08-15T03:49:35Z</time></trkpt><trkpt lat="59.3455697782" lon="34.6435414720"><ele>169.81</ele><time>2026-08-15T03:49:49Z</time></trkpt><trkpt lat="59.3455536012" lon="34.6437294781"><ele>169.81</ele><time>2026-08-15T03:50:04Z</time></trkpt><trkpt lat="59.3455385976" lon="34.6438200027"><ele>169.81</ele><time>2026-08-15T03:50:16Z</time></trkpt><trkpt lat="59.3455024716" lon="34.6440730523"><ele>171.25</ele><time>2026-08-15T03:50:30Z</time></trkpt><trkpt lat="59.3454878870" lon="34.6441972721"><ele>169.81</ele><time>2026-08-15T03:50:36Z</time></trkpt><trkpt lat="59.3454691116" lon="34.6442748047"><ele>169.81</ele><time>2026-08-15T03:50:49Z</time></trkpt><trkpt lat="59.3453849573" lon="34.6442219149"><ele>169.81</ele><time>2026-08-15T03:51:02Z</time></trkpt><trkpt lat="59.3452857155" lon="34.6441499982"><ele>169.81</ele><time>2026-08-15T03:51:15Z</time></trkpt><trkpt lat="59.3452143855" lon="34.6440369263"><ele>169.81</ele><time>2026-08-15T03:51:28Z</time></trkpt><trkpt lat="59.3452111166" lon="34.6439614054"><ele>169.81</ele><time>2026-08-15T03:51:38Z</time></trkpt><trkpt lat="59.3452167325" lon="34.6439480782"><ele>169.81</ele><time>2026-08-15T03:52:03Z</time></trkpt><trkpt lat="59.3452278804" lon="34.6438489202"><ele>169.81</ele><time>2026-08-15T03:52:23Z</time></trkpt><trkpt lat="59.3452733941" lon="34.6436734870"><ele>169.81</ele><time>2026-08-15T03:52:36Z</time></trkpt><trkpt lat="59.3452943489" lon="34.6435918473"><ele>171.25</ele><time>2026-08-15T03:52:46Z</time></trkpt><trkpt lat="59.3453561235" lon="34.6433986444"><ele>171.25</ele><time>2026-08-15T03:53:01Z</time></trkpt><trkpt lat="59.3453775812" lon="34.6432321798"><ele>171.25</ele><time>2026-08-15T03:53:14Z</time></trkpt><trkpt lat="59.3454091810" lon="34.6430598479"><ele>171.25</ele><time>2026-08-15T03:53:26Z</time></trkpt><trkpt lat="59.3454130366" lon="34.6427644696"><ele>171.73</ele><time>2026-08-15T03:53:41Z</time></trkpt><trkpt lat="59.3454174791" lon="34.6425910480"><ele>172.21</ele><time>2026-08-15T03:53:54Z</time></trkpt><trkpt lat="59.3454393558" lon="34.6423954144"><ele>172.69</ele><time>2026-08-15T03:54:08Z</time></trkpt><trkpt lat="59.3454456422" lon="34.6422110964"><ele>172.69</ele><time>2026-08-15T03:54:23Z</time></trkpt><trkpt lat="59.3454054091" lon="34.6419772413"><ele>172.69</ele><time>2026-08-15T03:54:37Z</time></trkpt><trkpt lat="59.3453827780" lon="34.6417726390"><ele>171.25</ele><time>2026-08-15T03:54:48Z</time></trkpt><trkpt lat="59.3453823589" lon="34.6417196654"><ele>171.25</ele><time>2026-08-15T03:55:07Z</time></trkpt><trkpt lat="59.3453868013" lon="34.6415948588"><ele>170.77</ele><time>2026-08-15T03:55:26Z</time></trkpt><trkpt lat="59.3454189040" lon="34.6413969621"><ele>169.81</ele><time>2026-08-15T03:55:39Z</time></trkpt><trkpt lat="59.3454512581" lon="34.6413262188"><ele>169.33</ele><time>2026-08-15T03:55:58Z</time></trkpt><trkpt lat="59.3454984482" lon="34.6411425713"><ele>168.85</ele><time>2026-08-15T03:56:11Z</time></trkpt><trkpt lat="59.3455399387" lon="34.6410434972"><ele>168.85</ele><time>2026-08-15T03:56:17Z</time></trkpt><trkpt lat="59.3456316367" lon="34.6408907790"><ele>168.85</ele><time>2026-08-15T03:56:33Z</time></trkpt><trkpt lat="59.3456873763" lon="34.6407771204"><ele>168.85</ele><time>2026-08-15T03:56:41Z</time></trkpt><trkpt lat="59.3457103427" lon="34.6407079697"><ele>169.81</ele><time>2026-08-15T03:56:49Z</time></trkpt><trkpt lat="59.3457682617" lon="34.6406223904"><ele>169.81</ele><time>2026-08-15T03:57:00Z</time></trkpt><trkpt lat="59.3458037172" lon="34.6405777149"><ele>168.85</ele><time>2026-08-15T03:57:10Z</time></trkpt><trkpt lat="59.3458113447" lon="34.6405539941"><ele>170.29</ele><time>2026-08-15T03:57:33Z</time></trkpt><trkpt lat="59.3458209839" lon="34.6405352186"><ele>168.85</ele><time>2026-08-15T03:57:57Z</time></trkpt><trkpt lat="59.3458552659" lon="34.6405435167"><ele>168.85</ele><time>2026-08-15T03:58:26Z</time></trkpt><trkpt lat="59.3458649050" lon="34.6405630466"><ele>170.77</ele><time>2026-08-15T03:58:42Z</time></trkpt><trkpt lat="59.3458656594" lon="34.6405613702"><ele>169.33</ele><time>2026-08-15T03:58:48Z</time></trkpt><trkpt lat="59.3459132686" lon="34.6405764576"><ele>169.33</ele><time>2026-08-15T03:59:01Z</time></trkpt><trkpt lat="59.3459949084" lon="34.6406005137"><ele>169.33</ele><time>2026-08-15T03:59:14Z</time></trkpt><trkpt lat="59.3460215628" lon="34.6405733563"><ele>169.33</ele><time>2026-08-15T03:59:18Z</time></trkpt><trkpt lat="59.3461274263" lon="34.6405921318"><ele>170.77</ele><time>2026-08-15T03:59:30Z</time></trkpt><trkpt lat="59.3461997621" lon="34.6405907907"><ele>172.21</ele><time>2026-08-15T03:59:44Z</time></trkpt><trkpt lat="59.3462759536" lon="34.6406047046"><ele>172.69</ele><time>2026-08-15T03:59:57Z</time></trkpt><trkpt lat="59.3463711720" lon="34.6406879369"><ele>173.17</ele><time>2026-08-15T04:00:09Z</time></trkpt><trkpt lat="59.3464492075" lon="34.6407040302"><ele>173.17</ele><time>2026-08-15T04:00:22Z</time></trkpt><trkpt lat="59.3465216272" lon="34.6405614540"><ele>173.66</ele><time>2026-08-15T04:00:35Z</time></trkpt><trkpt lat="59.3465950526" lon="34.6404226497"><ele>173.66</ele><time>2026-08-15T04:00:48Z</time></trkpt><trkpt lat="59.3466093019" lon="34.6403471287"><ele>174.14</ele><time>2026-08-15T04:01:07Z</time></trkpt><trkpt lat="59.3466184381" lon="34.6403420996"><ele>172.21</ele><time>2026-08-15T04:01:23Z</time></trkpt><trkpt lat="59.3466203660" lon="34.6403411776"><ele>173.66</ele><time>2026-08-15T04:01:25Z</time></trkpt><trkpt lat="59.3466196116" lon="34.6403393336"><ele>173.17</ele><time>2026-08-15T04:01:39Z</time></trkpt><trkpt lat="59.3466272391" lon="34.6403368190"><ele>173.17</ele><time>2026-08-15T04:01:42Z</time></trkpt><trkpt lat="59.3467081245" lon="34.6404002700"><ele>173.17</ele><time>2026-08-15T04:01:48Z</time></trkpt><trkpt lat="59.3467769399" lon="34.6404239908"><ele>173.17</ele><time>2026-08-15T04:01:55Z</time></trkpt><trkpt lat="59.3468329310" lon="34.6404672414"><ele>172.69</ele><time>2026-08-15T04:02:00Z</time></trkpt><trkpt lat="59.3469478469" lon="34.6404141840"><ele>172.69</ele><time>2026-08-15T04:02:15Z</time></trkpt><trkpt lat="59.3469625153" lon="34.6404118370"><ele>172.21</ele><time>2026-08-15T04:02:18Z</time></trkpt><trkpt lat="59.3470660318" lon="34.6403927263"><ele>171.73</ele><time>2026-08-15T04:02:31Z</time></trkpt><trkpt lat="59.3471070193" lon="34.6402794868"><ele>171.25</ele><time>2026-08-15T04:02:43Z</time></trkpt><trkpt lat="59.3471135572" lon="34.6402998548"><ele>170.77</ele><time>2026-08-15T04:03:09Z</time></trkpt><trkpt lat="59.3471329194" lon="34.6402759664"><ele>170.77</ele><time>2026-08-15T04:03:49Z</time></trkpt><trkpt lat="59.3471479230" lon="34.6402524970"><ele>170.77</ele><time>2026-08-15T04:04:16Z</time></trkpt><trkpt lat="59.3471465819" lon="34.6402481385"><ele>170.77</ele><time>2026-08-15T04:04:27Z</time></trkpt><trkpt lat="59.3471542094" lon="34.6402409300"><ele>170.77</ele><time>2026-08-15T04:04:29Z</time></trkpt><trkpt lat="59.3471787684" lon="34.6402286924"><ele>170.77</ele><time>2026-08-15T04:04:32Z</time></trkpt><trkpt lat="59.3472540379" lon="34.6401565243"><ele>170.77</ele><time>2026-08-15T04:04:46Z</time></trkpt><trkpt lat="59.3473529443" lon="34.6400714479"><ele>170.77</ele><time>2026-08-15T04:05:01Z</time></trkpt><trkpt lat="59.3473783415" lon="34.6401244216"><ele>170.77</ele><time>2026-08-15T04:05:21Z</time></trkpt><trkpt lat="59.3473728094" lon="34.6401342284"><ele>170.77</ele><time>2026-08-15T04:05:43Z</time></trkpt><trkpt lat="59.3473968655" lon="34.6401115973"><ele>170.77</ele><time>2026-08-15T04:06:13Z</time></trkpt><trkpt lat="59.3473983742" lon="34.6401134413"><ele>170.77</ele><time>2026-08-15T04:06:38Z</time></trkpt><trkpt lat="59.3473897409" lon="34.6401181351"><ele>170.77</ele><time>2026-08-15T04:07:04Z</time></trkpt><trkpt lat="59.3473985419" lon="34.6401115973"><ele>172.21</ele><time>2026-08-15T04:07:07Z</time></trkpt><trkpt lat="59.3473983742" lon="34.6401089150"><ele>172.21</ele><time>2026-08-15T04:07:29Z</time></trkpt><trkpt lat="59.3474065885" lon="34.6401095856"><ele>170.77</ele><time>2026-08-15T04:07:57Z</time></trkpt><trkpt lat="59.3474771641" lon="34.6400702745"><ele>172.21</ele><time>2026-08-15T04:08:06Z</time></trkpt><trkpt lat="59.3475730531" lon="34.6400610544"><ele>172.69</ele><time>2026-08-15T04:08:20Z</time></trkpt><trkpt lat="59.3476450536" lon="34.6400255989"><ele>172.69</ele><time>2026-08-15T04:08:33Z</time></trkpt><trkpt lat="59.3476787489" lon="34.6400138643"><ele>172.69</ele><time>2026-08-15T04:09:04Z</time></trkpt><trkpt lat="59.3476901483" lon="34.6399887186"><ele>172.69</ele><time>2026-08-15T04:09:30Z</time></trkpt><trkpt lat="59.3477044813" lon="34.6399947535"><ele>172.69</ele><time>2026-08-15T04:09:56Z</time></trkpt><trkpt lat="59.3477534316" lon="34.6399309672"><ele>172.69</ele><time>2026-08-15T04:10:13Z</time></trkpt><trkpt lat="59.3478101771" lon="34.6398204938"><ele>172.69</ele><time>2026-08-15T04:10:24Z</time></trkpt><trkpt lat="59.3479345646" lon="34.6397885587"><ele>173.17</ele><time>2026-08-15T04:10:38Z</time></trkpt><trkpt lat="59.3479560222" lon="34.6397873852"><ele>172.21</ele><time>2026-08-15T04:10:40Z</time></trkpt><trkpt lat="59.3479722831" lon="34.6397868823"><ele>172.21</ele><time>2026-08-15T04:10:42Z</time></trkpt><trkpt lat="59.3480777275" lon="34.6397086792"><ele>171.25</ele><time>2026-08-15T04:10:55Z</time></trkpt><trkpt lat="59.3480896298" lon="34.6397127863"><ele>171.25</ele><time>2026-08-15T04:10:58Z</time></trkpt><trkpt lat="59.3481425196" lon="34.6396369301"><ele>171.25</ele><time>2026-08-15T04:11:09Z</time></trkpt><trkpt lat="59.3481552601" lon="34.6396159753"><ele>171.25</ele><time>2026-08-15T04:11:11Z</time></trkpt><trkpt lat="59.3481970020" lon="34.6395908296"><ele>172.21</ele><time>2026-08-15T04:11:16Z</time></trkpt><trkpt lat="59.3482545018" lon="34.6395697072"><ele>172.21</ele><time>2026-08-15T04:11:29Z</time></trkpt><trkpt lat="59.3482668232" lon="34.6395505965"><ele>172.21</ele><time>2026-08-15T04:11:47Z</time></trkpt><trkpt lat="59.3482654821" lon="34.6395509318"><ele>172.21</ele><time>2026-08-15T04:12:10Z</time></trkpt><trkpt lat="59.3482692540" lon="34.6395462379"><ele>172.21</ele><time>2026-08-15T04:12:26Z</time></trkpt><trkpt lat="59.3482757080" lon="34.6395454835"><ele>172.21</ele><time>2026-08-15T04:12:47Z</time></trkpt><trkpt lat="59.3482782226" lon="34.6395303123"><ele>171.25</ele><time>2026-08-15T04:13:00Z</time></trkpt><trkpt lat="59.3482778035" lon="34.6395299770"><ele>173.66</ele><time>2026-08-15T04:13:04Z</time></trkpt><trkpt lat="59.3483021110" lon="34.6395282168"><ele>172.21</ele><time>2026-08-15T04:13:07Z</time></trkpt><trkpt lat="59.3483983353" lon="34.6395149734"><ele>172.21</ele><time>2026-08-15T04:13:20Z</time></trkpt><trkpt lat="59.3484852556" lon="34.6394656878"><ele>171.73</ele><time>2026-08-15T04:13:31Z</time></trkpt><trkpt lat="59.3485696614" lon="34.6393953636"><ele>171.73</ele><time>2026-08-15T04:13:44Z</time></trkpt><trkpt lat="59.3485891912" lon="34.6393913403"><ele>171.73</ele><time>2026-08-15T04:13:47Z</time></trkpt><trkpt lat="59.3486919533" lon="34.6393335052"><ele>171.73</ele><time>2026-08-15T04:14:00Z</time></trkpt><trkpt lat="59.3487558234" lon="34.6392492671"><ele>171.73</ele><time>2026-08-15T04:14:18Z</time></trkpt><trkpt lat="59.3487569969" lon="34.6392406337"><ele>171.25</ele><time>2026-08-15T04:14:40Z</time></trkpt><trkpt lat="59.3487600982" lon="34.6392172482"><ele>172.69</ele><time>2026-08-15T04:15:21Z</time></trkpt><trkpt lat="59.3487603497" lon="34.6392092016"><ele>171.73</ele><time>2026-08-15T04:15:32Z</time></trkpt><trkpt lat="59.3488030136" lon="34.6391768474"><ele>171.73</ele><time>2026-08-15T04:15:53Z</time></trkpt><trkpt lat="59.3489362858" lon="34.6391679626"><ele>171.73</ele><time>2026-08-15T04:16:07Z</time></trkpt><trkpt lat="59.3489751779" lon="34.6391573176"><ele>171.73</ele><time>2026-08-15T04:16:21Z</time></trkpt><trkpt lat="59.3490173388" lon="34.6391152404"><ele>171.73</ele><time>2026-08-15T04:16:34Z</time></trkpt><trkpt lat="59.3490771018" lon="34.6391002368"><ele>171.73</ele><time>2026-08-15T04:16:47Z</time></trkpt><trkpt lat="59.3491387088" lon="34.6390900947"><ele>171.73</ele><time>2026-08-15T04:17:00Z</time></trkpt><trkpt lat="59.3491815403" lon="34.6390956268"><ele>171.25</ele><time>2026-08-15T04:17:12Z</time></trkpt><trkpt lat="59.3492056802" lon="34.6390948724"><ele>172.69</ele><time>2026-08-15T04:17:17Z</time></trkpt><trkpt lat="59.3492508586" lon="34.6390931122"><ele>173.66</ele><time>2026-08-15T04:17:35Z</time></trkpt><trkpt lat="59.3492595758" lon="34.6391051821"><ele>173.17</ele><time>2026-08-15T04:18:06Z</time></trkpt><trkpt lat="59.3492651917" lon="34.6390917711"><ele>173.17</ele><time>2026-08-15T04:18:28Z</time></trkpt><trkpt lat="59.3492621742" lon="34.6390982252"><ele>173.17</ele><time>2026-08-15T04:18:52Z</time></trkpt><trkpt lat="59.3492725678" lon="34.6390799526"><ele>173.17</ele><time>2026-08-15T04:19:16Z</time></trkpt><trkpt lat="59.3492517807" lon="34.6390292421"><ele>173.17</ele><time>2026-08-15T04:19:37Z</time></trkpt><trkpt lat="59.3492222764" lon="34.6389663778"><ele>173.17</ele><time>2026-08-15T04:19:46Z</time></trkpt><trkpt lat="59.3491903413" lon="34.6389109734"><ele>171.73</ele><time>2026-08-15T04:19:50Z</time></trkpt><trkpt lat="59.3491366971" lon="34.6387954708"><ele>171.73</ele><time>2026-08-15T04:20:01Z</time></trkpt><trkpt lat="59.3491000682" lon="34.6387415752"><ele>171.73</ele><time>2026-08-15T04:20:06Z</time></trkpt><trkpt lat="59.3490842264" lon="34.6386755258"><ele>171.25</ele><time>2026-08-15T04:20:19Z</time></trkpt><trkpt lat="59.3490838911" lon="34.6386604384"><ele>172.21</ele><time>2026-08-15T04:20:28Z</time></trkpt><trkpt lat="59.3490415625" lon="34.6386123262"><ele>172.21</ele><time>2026-08-15T04:20:36Z</time></trkpt><trkpt lat="59.3489790335" lon="34.6385233942"><ele>172.21</ele><time>2026-08-15T04:20:48Z</time></trkpt><trkpt lat="59.3489325140" lon="34.6383721847"><ele>172.21</ele><time>2026-08-15T04:20:59Z</time></trkpt><trkpt lat="59.3488674704" lon="34.6382647287"><ele>172.21</ele><time>2026-08-15T04:21:12Z</time></trkpt><trkpt lat="59.3488581665" lon="34.6381704323"><ele>172.21</ele><time>2026-08-15T04:21:23Z</time></trkpt><trkpt lat="59.3488178495" lon="34.6381172910"><ele>171.73</ele><time>2026-08-15T04:21:42Z</time></trkpt><trkpt lat="59.3487868365" lon="34.6380867809"><ele>171.73</ele><time>2026-08-15T04:21:55Z</time></trkpt><trkpt lat="59.3486993294" lon="34.6380158700"><ele>171.73</ele><time>2026-08-15T04:22:08Z</time></trkpt><trkpt lat="59.3486179411" lon="34.6379458811"><ele>171.25</ele><time>2026-08-15T04:22:20Z</time></trkpt><trkpt lat="59.3485932983" lon="34.6379255969"><ele>171.25</ele><time>2026-08-15T04:22:24Z</time></trkpt><trkpt lat="59.3485736847" lon="34.6379343979"><ele>172.69</ele><time>2026-08-15T04:22:26Z</time></trkpt><trkpt lat="59.3485253211" lon="34.6379214898"><ele>172.69</ele><time>2026-08-15T04:22:36Z</time></trkpt><trkpt lat="59.3484948110" lon="34.6378809214"><ele>172.69</ele><time>2026-08-15T04:22:40Z</time></trkpt><trkpt lat="59.3484388199" lon="34.6378685161"><ele>171.25</ele><time>2026-08-15T04:22:52Z</time></trkpt><trkpt lat="59.3484493811" lon="34.6378632355"><ele>171.25</ele><time>2026-08-15T04:23:10Z</time></trkpt><trkpt lat="59.3484334555" lon="34.6378700249"><ele>172.69</ele><time>2026-08-15T04:23:23Z</time></trkpt><trkpt lat="59.3484293483" lon="34.6378666721"><ele>171.25</ele><time>2026-08-15T04:23:42Z</time></trkpt><trkpt lat="59.3484479561" lon="34.6378468070"><ele>172.69</ele><time>2026-08-15T04:24:05Z</time></trkpt><trkpt lat="59.3484500516" lon="34.6378571168"><ele>171.25</ele><time>2026-08-15T04:24:23Z</time></trkpt><trkpt lat="59.3484288454" lon="34.6378511656"><ele>171.25</ele><time>2026-08-15T04:24:42Z</time></trkpt><trkpt lat="59.3484005984" lon="34.6378587931"><ele>171.25</ele><time>2026-08-15T04:24:46Z</time></trkpt><trkpt lat="59.3482892029" lon="34.6378907282"><ele>171.25</ele><time>2026-08-15T04:24:59Z</time></trkpt><trkpt lat="59.3482014444" lon="34.6379197296"><ele>171.25</ele><time>2026-08-15T04:25:10Z</time></trkpt><trkpt lat="59.3481006939" lon="34.6379819233"><ele>171.25</ele><time>2026-08-15T04:25:25Z</time></trkpt><trkpt lat="59.3480443675" lon="34.6380333882"><ele>171.25</ele><time>2026-08-15T04:25:37Z</time></trkpt><trkpt lat="59.3479941599" lon="34.6380330529"><ele>171.25</ele><time>2026-08-15T04:25:50Z</time></trkpt><trkpt lat="59.3479052279" lon="34.6380988508"><ele>171.25</ele><time>2026-08-15T04:26:04Z</time></trkpt><trkpt lat="59.3478178047" lon="34.6381508186"><ele>171.25</ele><time>2026-08-15T04:26:18Z</time></trkpt><trkpt lat="59.3477705307" lon="34.6382136829"><ele>171.25</ele><time>2026-08-15T04:26:33Z</time></trkpt><trkpt lat="59.3476777431" lon="34.6382721048"><ele>171.25</ele><time>2026-08-15T04:26:49Z</time></trkpt><trkpt lat="59.3476215005" lon="34.6383917984"><ele>171.25</ele><time>2026-08-15T04:27:02Z</time></trkpt><trkpt lat="59.3476185668" lon="34.6384481248"><ele>171.25</ele><time>2026-08-15T04:27:16Z</time></trkpt><trkpt lat="59.3475980312" lon="34.6384736057"><ele>171.25</ele><time>2026-08-15T04:27:50Z</time></trkpt><trkpt lat="59.3475910742" lon="34.6384703368"><ele>170.29</ele><time>2026-08-15T04:28:22Z</time></trkpt><trkpt lat="59.3475584686" lon="34.6385587659"><ele>171.25</ele><time>2026-08-15T04:28:38Z</time></trkpt><trkpt lat="59.3474852107" lon="34.6386931278"><ele>171.25</ele><time>2026-08-15T04:28:53Z</time></trkpt><trkpt lat="59.3474763259" lon="34.6387038566"><ele>171.25</ele><time>2026-08-15T04:28:54Z</time></trkpt><trkpt lat="59.3474503420" lon="34.6387481969"><ele>171.25</ele><time>2026-08-15T04:29:04Z</time></trkpt><trkpt lat="59.3473927584" lon="34.6388034336"><ele>171.25</ele><time>2026-08-15T04:29:15Z</time></trkpt><trkpt lat="59.3472936004" lon="34.6389275696"><ele>171.25</ele><time>2026-08-15T04:29:28Z</time></trkpt><trkpt lat="59.3472413812" lon="34.6390142385"><ele>171.73</ele><time>2026-08-15T04:29:47Z</time></trkpt><trkpt lat="59.3471908383" lon="34.6390377078"><ele>171.73</ele><time>2026-08-15T04:30:06Z</time></trkpt><trkpt lat="59.3470863998" lon="34.6390320919"><ele>171.73</ele><time>2026-08-15T04:30:17Z</time></trkpt><trkpt lat="59.3469796982" lon="34.6390509512"><ele>171.73</ele><time>2026-08-15T04:30:30Z</time></trkpt><trkpt lat="59.3468763493" lon="34.6391013265"><ele>171.73</ele><time>2026-08-15T04:30:45Z</time></trkpt><trkpt lat="59.3467855733" lon="34.6391278971"><ele>171.73</ele><time>2026-08-15T04:30:57Z</time></trkpt><trkpt lat="59.3467224576" lon="34.6391088702"><ele>172.21</ele><time>2026-08-15T04:31:08Z</time></trkpt><trkpt lat="59.3467149138" lon="34.6391247120"><ele>172.21</ele><time>2026-08-15T04:31:24Z</time></trkpt><trkpt lat="59.3467040174" lon="34.6391329262"><ele>172.21</ele><time>2026-08-15T04:31:44Z</time></trkpt><trkpt lat="59.3467035145" lon="34.6391277295"><ele>172.21</ele><time>2026-08-15T04:32:03Z</time></trkpt><trkpt lat="59.3466965575" lon="34.6391098760"><ele>172.21</ele><time>2026-08-15T04:32:19Z</time></trkpt><trkpt lat="59.3466877565" lon="34.6390993148"><ele>172.21</ele><time>2026-08-15T04:32:38Z</time></trkpt><trkpt lat="59.3466812186" lon="34.6391142346"><ele>172.21</ele><time>2026-08-15T04:32:57Z</time></trkpt><trkpt lat="59.3466637842" lon="34.6391676273"><ele>172.21</ele><time>2026-08-15T04:33:12Z</time></trkpt><trkpt lat="59.3466052786" lon="34.6391756739"><ele>172.21</ele><time>2026-08-15T04:33:24Z</time></trkpt><trkpt lat="59.3465461861" lon="34.6391715668"><ele>172.21</ele><time>2026-08-15T04:33:36Z</time></trkpt><trkpt lat="59.3464728445" lon="34.6392029990"><ele>173.17</ele><time>2026-08-15T04:33:50Z</time></trkpt><trkpt lat="59.3464077171" lon="34.6391752549"><ele>173.17</ele><time>2026-08-15T04:34:00Z</time></trkpt><trkpt lat="59.3463447690" lon="34.6391758416"><ele>173.17</ele><time>2026-08-15T04:34:13Z</time></trkpt><trkpt lat="59.3463222217" lon="34.6391898394"><ele>174.14</ele><time>2026-08-15T04:34:26Z</time></trkpt><trkpt lat="59.3462823238" lon="34.6392011549"><ele>175.10</ele><time>2026-08-15T04:34:45Z</time></trkpt><trkpt lat="59.3462731037" lon="34.6392055135"><ele>175.10</ele><time>2026-08-15T04:34:53Z</time></trkpt><trkpt lat="59.3462233990" lon="34.6391749196"><ele>175.58</ele><time>2026-08-15T04:34:59Z</time></trkpt><trkpt lat="59.3461560085" lon="34.6391257178"><ele>175.58</ele><time>2026-08-15T04:35:05Z</time></trkpt><trkpt lat="59.3460752070" lon="34.6391560603"><ele>175.58</ele><time>2026-08-15T04:35:19Z</time></trkpt><trkpt lat="59.3460654840" lon="34.6391573176"><ele>175.58</ele><time>2026-08-15T04:35:38Z</time></trkpt><trkpt lat="59.3460464571" lon="34.6391187608"><ele>175.58</ele><time>2026-08-15T04:35:42Z</time></trkpt><trkpt lat="59.3459795695" lon="34.6391160786"><ele>175.58</ele><time>2026-08-15T04:35:55Z</time></trkpt><trkpt lat="59.3459301163" lon="34.6391139831"><ele>175.58</ele><time>2026-08-15T04:36:11Z</time></trkpt><trkpt lat="59.3458372448" lon="34.6391190123"><ele>174.62</ele><time>2026-08-15T04:36:22Z</time></trkpt><trkpt lat="59.3457431998" lon="34.6390201896"><ele>174.14</ele><time>2026-08-15T04:36:39Z</time></trkpt><trkpt lat="59.3457255140" lon="34.6389991511"><ele>176.06</ele><time>2026-08-15T04:36:51Z</time></trkpt><trkpt lat="59.3457251787" lon="34.6389982291"><ele>174.14</ele><time>2026-08-15T04:36:53Z</time></trkpt><trkpt lat="59.3456990272" lon="34.6389891766"><ele>173.66</ele><time>2026-08-15T04:37:15Z</time></trkpt><trkpt lat="59.3456960935" lon="34.6389879193"><ele>175.10</ele><time>2026-08-15T04:37:19Z</time></trkpt><trkpt lat="59.3456893880" lon="34.6389894281"><ele>173.66</ele><time>2026-08-15T04:37:22Z</time></trkpt><trkpt lat="59.3456918187" lon="34.6389741730"><ele>174.14</ele><time>2026-08-15T04:37:45Z</time></trkpt><trkpt lat="59.3456934113" lon="34.6389843151"><ele>174.14</ele><time>2026-08-15T04:38:06Z</time></trkpt><trkpt lat="59.3456751388" lon="34.6390005760"><ele>174.14</ele><time>2026-08-15T04:38:29Z</time></trkpt><trkpt lat="59.3456489034" lon="34.6389868297"><ele>174.14</ele><time>2026-08-15T04:38:52Z</time></trkpt><trkpt lat="59.3455805909" lon="34.6388712432"><ele>174.14</ele><time>2026-08-15T04:39:05Z</time></trkpt><trkpt lat="59.3455475662" lon="34.6387648769"><ele>174.14</ele><time>2026-08-15T04:39:13Z</time></trkpt><trkpt lat="59.3454360031" lon="34.6385955624"><ele>174.14</ele><time>2026-08-15T04:39:28Z</time></trkpt><trkpt lat="59.3453703728" lon="34.6385312732"><ele>173.17</ele><time>2026-08-15T04:39:42Z</time></trkpt><trkpt lat="59.3453615718" lon="34.6384875197"><ele>172.69</ele><time>2026-08-15T04:39:55Z</time></trkpt><trkpt lat="59.3453531899" lon="34.6384412516"><ele>172.69</ele><time>2026-08-15T04:40:05Z</time></trkpt><trkpt lat="59.3453115318" lon="34.6383109968"><ele>172.69</ele><time>2026-08-15T04:40:19Z</time></trkpt><trkpt lat="59.3452246953" lon="34.6381877828"><ele>173.66</ele><time>2026-08-15T04:40:33Z</time></trkpt><trkpt lat="59.3451570533" lon="34.6381144412"><ele>173.66</ele><time>2026-08-15T04:40:43Z</time></trkpt><trkpt lat="59.3450991344" lon="34.6380428597"><ele>173.66</ele><time>2026-08-15T04:40:55Z</time></trkpt><trkpt lat="59.3450216018" lon="34.6378463879"><ele>173.66</ele><time>2026-08-15T04:41:08Z</time></trkpt><trkpt lat="59.3449794408" lon="34.6377422847"><ele>173.66</ele><time>2026-08-15T04:41:19Z</time></trkpt><trkpt lat="59.3449549656" lon="34.6376621537"><ele>173.66</ele><time>2026-08-15T04:41:26Z</time></trkpt><trkpt lat="59.3449430633" lon="34.6375544462"><ele>173.66</ele><time>2026-08-15T04:41:44Z</time></trkpt><trkpt lat="59.3449444883" lon="34.6375571284"><ele>174.14</ele><time>2026-08-15T04:42:13Z</time></trkpt><trkpt lat="59.3449566420" lon="34.6375481598"><ele>174.14</ele><time>2026-08-15T04:42:45Z</time></trkpt><trkpt lat="59.3449661974" lon="34.6375226788"><ele>174.14</ele><time>2026-08-15T04:43:08Z</time></trkpt><trkpt lat="59.3449792732" lon="34.6375246905"><ele>174.14</ele><time>2026-08-15T04:43:17Z</time></trkpt><trkpt lat="59.3450635113" lon="34.6375002153"><ele>174.14</ele><time>2026-08-15T04:43:29Z</time></trkpt><trkpt lat="59.3451507669" lon="34.6374652628"><ele>174.14</ele><time>2026-08-15T04:43:43Z</time></trkpt><trkpt lat="59.3451688718" lon="34.6374586411"><ele>174.14</ele><time>2026-08-15T04:43:45Z</time></trkpt><trkpt lat="59.3452612404" lon="34.6374418773"><ele>174.62</ele><time>2026-08-15T04:43:57Z</time></trkpt><trkpt lat="59.3453391921" lon="34.6373630874"><ele>174.62</ele><time>2026-08-15T04:44:08Z</time></trkpt><trkpt lat="59.3454363383" lon="34.6372563858"><ele>175.10</ele><time>2026-08-15T04:44:22Z</time></trkpt><trkpt lat="59.3455154635" lon="34.6371650230"><ele>175.58</ele><time>2026-08-15T04:44:36Z</time></trkpt><trkpt lat="59.3455893919" lon="34.6371262986"><ele>174.62</ele><time>2026-08-15T04:44:48Z</time></trkpt><trkpt lat="59.3456673436" lon="34.6370074432"><ele>174.62</ele><time>2026-08-15T04:45:01Z</time></trkpt><trkpt lat="59.3457172159" lon="34.6369704790"><ele>174.62</ele><time>2026-08-15T04:45:14Z</time></trkpt><trkpt lat="59.3457366619" lon="34.6370464191"><ele>174.62</ele><time>2026-08-15T04:45:31Z</time></trkpt><trkpt lat="59.3457488157" lon="34.6370055992"><ele>174.62</ele><time>2026-08-15T04:45:49Z</time></trkpt><trkpt lat="59.3457421940" lon="34.6369439084"><ele>175.58</ele><time>2026-08-15T04:46:11Z</time></trkpt><trkpt lat="59.3457335606" lon="34.6369275637"><ele>175.58</ele><time>2026-08-15T04:46:43Z</time></trkpt><trkpt lat="59.3457320519" lon="34.6369254682"><ele>174.14</ele><time>2026-08-15T04:46:52Z</time></trkpt><trkpt lat="59.3457356561" lon="34.6369335148"><ele>175.58</ele><time>2026-08-15T04:46:57Z</time></trkpt><trkpt lat="59.3457395118" lon="34.6369344369"><ele>175.10</ele><time>2026-08-15T04:47:25Z</time></trkpt><trkpt lat="59.3457359076" lon="34.6369395498"><ele>168.85</ele><time>2026-08-15T04:47:41Z</time></trkpt><trkpt lat="59.3457360752" lon="34.6369403042"><ele>176.54</ele><time>2026-08-15T04:47:42Z</time></trkpt><trkpt lat="59.3457452115" lon="34.6369337663"><ele>174.62</ele><time>2026-08-15T04:47:59Z</time></trkpt><trkpt lat="59.3457597122" lon="34.6369375382"><ele>174.62</ele><time>2026-08-15T04:48:13Z</time></trkpt><trkpt lat="59.3458234146" lon="34.6369856503"><ele>174.62</ele><time>2026-08-15T04:48:23Z</time></trkpt><trkpt lat="59.3458341435" lon="34.6370136458"><ele>174.14</ele><time>2026-08-15T04:48:32Z</time></trkpt><trkpt lat="59.3458793219" lon="34.6370086167"><ele>174.14</ele><time>2026-08-15T04:48:43Z</time></trkpt><trkpt lat="59.3459886219" lon="34.6370478440"><ele>174.14</ele><time>2026-08-15T04:48:58Z</time></trkpt><trkpt lat="59.3460501451" lon="34.6370200999"><ele>175.58</ele><time>2026-08-15T04:49:13Z</time></trkpt><trkpt lat="59.3460582756" lon="34.6370158251"><ele>175.58</ele><time>2026-08-15T04:49:28Z</time></trkpt><trkpt lat="59.3461156078" lon="34.6369871590"><ele>175.58</ele><time>2026-08-15T04:49:43Z</time></trkpt><trkpt lat="59.3461327907" lon="34.6369541343"><ele>176.06</ele><time>2026-08-15T04:50:01Z</time></trkpt><trkpt lat="59.3461339641" lon="34.6369519550"><ele>174.62</ele><time>2026-08-15T04:50:05Z</time></trkpt><trkpt lat="59.3461362273" lon="34.6369413100"><ele>174.62</ele><time>2026-08-15T04:50:33Z</time></trkpt><trkpt lat="59.3461505603" lon="34.6369426511"><ele>174.62</ele><time>2026-08-15T04:50:54Z</time></trkpt><trkpt lat="59.3461957388" lon="34.6369055193"><ele>174.62</ele><time>2026-08-15T04:51:11Z</time></trkpt><trkpt lat="59.3462404143" lon="34.6369671263"><ele>174.62</ele><time>2026-08-15T04:51:21Z</time></trkpt><trkpt lat="59.3462982494" lon="34.6369852312"><ele>174.62</ele><time>2026-08-15T04:51:26Z</time></trkpt><trkpt lat="59.3464139197" lon="34.6369336825"><ele>176.06</ele><time>2026-08-15T04:51:39Z</time></trkpt><trkpt lat="59.3464741018" lon="34.6368957963"><ele>176.06</ele><time>2026-08-15T04:51:48Z</time></trkpt><trkpt lat="59.3465412408" lon="34.6368506178"><ele>176.06</ele><time>2026-08-15T04:52:01Z</time></trkpt><trkpt lat="59.3465782050" lon="34.6368651185"><ele>176.06</ele><time>2026-08-15T04:52:14Z</time></trkpt><trkpt lat="59.3465737626" lon="34.6368341893"><ele>174.62</ele><time>2026-08-15T04:52:33Z</time></trkpt><trkpt lat="59.3465910293" lon="34.6367990691"><ele>174.62</ele><time>2026-08-15T04:53:03Z</time></trkpt><trkpt lat="59.3465948012" lon="34.6368057746"><ele>175.10</ele><time>2026-08-15T04:53:32Z</time></trkpt><trkpt lat="59.3466052786" lon="34.6368171740"><ele>175.10</ele><time>2026-08-15T04:53:53Z</time></trkpt><trkpt lat="59.3466121517" lon="34.6368238796"><ele>174.14</ele><time>2026-08-15T04:54:01Z</time></trkpt><trkpt lat="59.3466217071" lon="34.6368149947"><ele>174.14</ele><time>2026-08-15T04:54:23Z</time></trkpt><trkpt lat="59.3466264009" lon="34.6368212812"><ele>174.14</ele><time>2026-08-15T04:54:55Z</time></trkpt><trkpt lat="59.3466266524" lon="34.6368217003"><ele>173.66</ele><time>2026-08-15T04:55:24Z</time></trkpt><trkpt lat="59.3466336094" lon="34.6368371230"><ele>174.62</ele><time>2026-08-15T04:55:44Z</time></trkpt><trkpt lat="59.3466401473" lon="34.6368641965"><ele>173.66</ele><time>2026-08-15T04:56:14Z</time></trkpt><trkpt lat="59.3466730043" lon="34.6368227061"><ele>174.62</ele><time>2026-08-15T04:56:43Z</time></trkpt><trkpt lat="59.3466805480" lon="34.6368265618"><ele>173.17</ele><time>2026-08-15T04:56:53Z</time></trkpt><trkpt lat="59.3466821406" lon="34.6368264779"><ele>173.17</ele><time>2026-08-15T04:57:31Z</time></trkpt><trkpt lat="59.3466790393" lon="34.6368165873"><ele>173.17</ele><time>2026-08-15T04:58:13Z</time></trkpt><trkpt lat="59.3466900196" lon="34.6368271485"><ele>173.17</ele><time>2026-08-15T04:58:36Z</time></trkpt><trkpt lat="59.3467668816" lon="34.6368339378"><ele>171.25</ele><time>2026-08-15T04:58:49Z</time></trkpt><trkpt lat="59.3467749283" lon="34.6368362010"><ele>170.77</ele><time>2026-08-15T04:58:50Z</time></trkpt><trkpt lat="59.3468444142" lon="34.6368406434"><ele>170.77</ele><time>2026-08-15T04:59:04Z</time></trkpt><trkpt lat="59.3469342683" lon="34.6367849037"><ele>170.77</ele><time>2026-08-15T04:59:18Z</time></trkpt><trkpt lat="59.3470169976" lon="34.6367599256"><ele>170.77</ele><time>2026-08-15T04:59:31Z</time></trkpt><trkpt lat="59.3471252918" lon="34.6366735082"><ele>170.77</ele><time>2026-08-15T04:59:46Z</time></trkpt><trkpt lat="59.3471754994" lon="34.6366132423"><ele>170.77</ele><time>2026-08-15T05:00:00Z</time></trkpt><trkpt lat="59.3472713884" lon="34.6365383919"><ele>170.77</ele><time>2026-08-15T05:00:13Z</time></trkpt><trkpt lat="59.3473903276" lon="34.6364907827"><ele>170.29</ele><time>2026-08-15T05:00:29Z</time></trkpt><trkpt lat="59.3474404514" lon="34.6364308521"><ele>170.29</ele><time>2026-08-15T05:00:44Z</time></trkpt><trkpt lat="59.3474759068" lon="34.6364034433"><ele>170.29</ele><time>2026-08-15T05:01:00Z</time></trkpt><trkpt lat="59.3475028966" lon="34.6363808960"><ele>170.29</ele><time>2026-08-15T05:01:13Z</time></trkpt><trkpt lat="59.3475033157" lon="34.6363609470"><ele>170.29</ele><time>2026-08-15T05:01:32Z</time></trkpt><trkpt lat="59.3475023098" lon="34.6363461949"><ele>170.29</ele><time>2026-08-15T05:01:49Z</time></trkpt><trkpt lat="59.3475013040" lon="34.6363232285"><ele>169.81</ele><time>2026-08-15T05:02:13Z</time></trkpt><trkpt lat="59.3475101050" lon="34.6363100689"><ele>171.25</ele><time>2026-08-15T05:02:26Z</time></trkpt><trkpt lat="59.3475226779" lon="34.6363026928"><ele>171.25</ele><time>2026-08-15T05:02:52Z</time></trkpt><trkpt lat="59.3475213367" lon="34.6363101527"><ele>171.25</ele><time>2026-08-15T05:03:02Z</time></trkpt><trkpt lat="59.3474908266" lon="34.6362917125"><ele>170.29</ele><time>2026-08-15T05:03:11Z</time></trkpt><trkpt lat="59.3474569637" lon="34.6362722665"><ele>170.29</ele><time>2026-08-15T05:03:16Z</time></trkpt><trkpt lat="59.3473422155" lon="34.6362381522"><ele>170.29</ele><time>2026-08-15T05:03:30Z</time></trkpt><trkpt lat="59.3473365996" lon="34.6362364758"><ele>170.29</ele><time>2026-08-15T05:03:31Z</time></trkpt><trkpt lat="59.3472372741" lon="34.6361474600"><ele>170.29</ele><time>2026-08-15T05:03:45Z</time></trkpt><trkpt lat="59.3471537903" lon="34.6360881999"><ele>171.25</ele><time>2026-08-15T05:04:01Z</time></trkpt><trkpt lat="59.3471414689" lon="34.6360904630"><ele>169.81</ele><time>2026-08-15T05:04:04Z</time></trkpt><trkpt lat="59.3471389543" lon="34.6360918041"><ele>172.21</ele><time>2026-08-15T05:04:06Z</time></trkpt><trkpt lat="59.3470626790" lon="34.6360061411"><ele>170.29</ele><time>2026-08-15T05:04:19Z</time></trkpt><trkpt lat="59.3469505291" lon="34.6359323803"><ele>170.29</ele><time>2026-08-15T05:04:34Z</time></trkpt><trkpt lat="59.3469166663" lon="34.6359231602"><ele>170.29</ele><time>2026-08-15T05:04:38Z</time></trkpt><trkpt lat="59.3468742538" lon="34.6359013673"><ele>170.29</ele><time>2026-08-15T05:04:43Z</time></trkpt><trkpt lat="59.3468481861" lon="34.6358857770"><ele>170.29</ele><time>2026-08-15T05:04:46Z</time></trkpt><trkpt lat="59.3467429932" lon="34.6358265169"><ele>171.25</ele><time>2026-08-15T05:05:03Z</time></trkpt><trkpt lat="59.3467328511" lon="34.6357914805"><ele>171.25</ele><time>2026-08-15T05:05:06Z</time></trkpt><trkpt lat="59.3467025086" lon="34.6357164625"><ele>167.41</ele><time>2026-08-15T05:05:19Z</time></trkpt><trkpt lat="59.3467020895" lon="34.6357149538"><ele>170.77</ele><time>2026-08-15T05:05:20Z</time></trkpt><trkpt lat="59.3466983177" lon="34.6357369144"><ele>170.77</ele><time>2026-08-15T05:05:46Z</time></trkpt><trkpt lat="59.3467059452" lon="34.6357188094"><ele>169.81</ele><time>2026-08-15T05:06:08Z</time></trkpt><trkpt lat="59.3467042688" lon="34.6357105114"><ele>171.25</ele><time>2026-08-15T05:06:28Z</time></trkpt><trkpt lat="59.3466996588" lon="34.6357130259"><ele>169.81</ele><time>2026-08-15T05:06:47Z</time></trkpt><trkpt lat="59.3466538098" lon="34.6357613057"><ele>170.77</ele><time>2026-08-15T05:07:02Z</time></trkpt><trkpt lat="59.3465868384" lon="34.6358578652"><ele>170.77</ele><time>2026-08-15T05:07:15Z</time></trkpt><trkpt lat="59.3465114012" lon="34.6359312069"><ele>171.73</ele><time>2026-08-15T05:07:28Z</time></trkpt><trkpt lat="59.3464531470" lon="34.6359463781"><ele>172.69</ele><time>2026-08-15T05:07:39Z</time></trkpt><trkpt lat="59.3463910371" lon="34.6359784808"><ele>173.66</ele><time>2026-08-15T05:07:54Z</time></trkpt><trkpt lat="59.3463466968" lon="34.6359925624"><ele>174.14</ele><time>2026-08-15T05:08:08Z</time></trkpt><trkpt lat="59.3463324476" lon="34.6360129304"><ele>172.69</ele><time>2026-08-15T05:08:21Z</time></trkpt><trkpt lat="59.3463289272" lon="34.6360094938"><ele>174.14</ele><time>2026-08-15T05:08:22Z</time></trkpt><trkpt lat="59.3463062961" lon="34.6360185463"><ele>174.14</ele><time>2026-08-15T05:08:51Z</time></trkpt><trkpt lat="59.3462935556" lon="34.6360105835"><ele>174.14</ele><time>2026-08-15T05:09:18Z</time></trkpt><trkpt lat="59.3462947290" lon="34.6360089909"><ele>174.14</ele><time>2026-08-15T05:09:43Z</time></trkpt><trkpt lat="59.3462961540" lon="34.6360108349"><ele>174.14</ele><time>2026-08-15T05:10:04Z</time></trkpt><trkpt lat="59.3462902866" lon="34.6359835099"><ele>174.14</ele><time>2026-08-15T05:10:26Z</time></trkpt><trkpt lat="59.3462914601" lon="34.6359873656"><ele>174.14</ele><time>2026-08-15T05:10:45Z</time></trkpt><trkpt lat="59.3462976627" lon="34.6360079013"><ele>174.14</ele><time>2026-08-15T05:11:05Z</time></trkpt><trkpt lat="59.3463009316" lon="34.6360161155"><ele>174.62</ele><time>2026-08-15T05:11:33Z</time></trkpt><trkpt lat="59.3462899514" lon="34.6360230725"><ele>173.17</ele><time>2026-08-15T05:11:46Z</time></trkpt><trkpt lat="59.3462827429" lon="34.6360346396"><ele>173.17</ele><time>2026-08-15T05:12:13Z</time></trkpt><trkpt lat="59.3462825753" lon="34.6360623837"><ele>174.62</ele><time>2026-08-15T05:12:29Z</time></trkpt><trkpt lat="59.3462591898" lon="34.6361607872"><ele>174.62</ele><time>2026-08-15T05:12:43Z</time></trkpt><trkpt lat="59.3462571781" lon="34.6362053789"><ele>174.62</ele><time>2026-08-15T05:12:56Z</time></trkpt><trkpt lat="59.3462404981" lon="34.6363299340"><ele>174.62</ele><time>2026-08-15T05:13:10Z</time></trkpt><trkpt lat="59.3461797293" lon="34.6364000067"><ele>174.62</ele><time>2026-08-15T05:13:22Z</time></trkpt><trkpt lat="59.3461117521" lon="34.6363493800"><ele>174.62</ele><time>2026-08-15T05:13:35Z</time></trkpt><trkpt lat="59.3460187130" lon="34.6362496354"><ele>174.62</ele><time>2026-08-15T05:13:49Z</time></trkpt><trkpt lat="59.3459932320" lon="34.6362396609"><ele>174.62</ele><time>2026-08-15T05:14:07Z</time></trkpt><trkpt lat="59.3459587824" lon="34.6362850070"><ele>173.66</ele><time>2026-08-15T05:14:23Z</time></trkpt><trkpt lat="59.3459069822" lon="34.6363710891"><ele>174.62</ele><time>2026-08-15T05:14:36Z</time></trkpt><trkpt lat="59.3458526675" lon="34.6363891941"><ele>174.62</ele><time>2026-08-15T05:14:49Z</time></trkpt><trkpt lat="59.3457977660" lon="34.6363750286"><ele>174.62</ele><time>2026-08-15T05:15:01Z</time></trkpt><trkpt lat="59.3457135279" lon="34.6363990009"><ele>174.62</ele><time>2026-08-15T05:15:13Z</time></trkpt><trkpt lat="59.3456179742" lon="34.6363565885"><ele>175.10</ele><time>2026-08-15T05:15:27Z</time></trkpt><trkpt lat="59.3455558643" lon="34.6363333706"><ele>175.10</ele><time>2026-08-15T05:15:41Z</time></trkpt><trkpt lat="59.3455220852" lon="34.6363135055"><ele>175.10</ele><time>2026-08-15T05:15:55Z</time></trkpt><trkpt lat="59.3454696145" lon="34.6363273356"><ele>174.14</ele><time>2026-08-15T05:16:08Z</time></trkpt><trkpt lat="59.3453346658" lon="34.6363431774"><ele>174.14</ele><time>2026-08-15T05:16:23Z</time></trkpt><trkpt lat="59.3453282956" lon="34.6363302693"><ele>174.14</ele><time>2026-08-15T05:16:42Z</time></trkpt><trkpt lat="59.3453140464" lon="34.6363314427"><ele>174.62</ele><time>2026-08-15T05:17:07Z</time></trkpt><trkpt lat="59.3453037366" lon="34.6363368910"><ele>173.66</ele><time>2026-08-15T05:17:38Z</time></trkpt><trkpt lat="59.3452355918" lon="34.6363563370"><ele>173.66</ele><time>2026-08-15T05:17:53Z</time></trkpt><trkpt lat="59.3452004716" lon="34.6363873500"><ele>173.66</ele><time>2026-08-15T05:18:07Z</time></trkpt><trkpt lat="59.3451191671" lon="34.6364041138"><ele>173.17</ele><time>2026-08-15T05:18:16Z</time></trkpt><trkpt lat="59.3450010661" lon="34.6363749448"><ele>173.17</ele><time>2026-08-15T05:18:29Z</time></trkpt><trkpt lat="59.3448678777" lon="34.6363476198"><ele>173.17</ele><time>2026-08-15T05:18:41Z</time></trkpt><trkpt lat="59.3447268941" lon="34.6362944786"><ele>172.21</ele><time>2026-08-15T05:18:56Z</time></trkpt><trkpt lat="59.3446629401" lon="34.6363323648"><ele>172.69</ele><time>2026-08-15T05:19:10Z</time></trkpt><trkpt lat="59.3445802107" lon="34.6363688260"><ele>171.73</ele><time>2026-08-15T05:19:19Z</time></trkpt><trkpt lat="59.3445636146" lon="34.6363729332"><ele>172.69</ele><time>2026-08-15T05:19:24Z</time></trkpt><trkpt lat="59.3445636146" lon="34.6363618691"><ele>173.17</ele><time>2026-08-15T05:19:35Z</time></trkpt><trkpt lat="59.3445582502" lon="34.6363684908"><ele>169.81</ele><time>2026-08-15T05:19:49Z</time></trkpt><trkpt lat="59.3445578311" lon="34.6363690775"><ele>173.66</ele><time>2026-08-15T05:19:50Z</time></trkpt><trkpt lat="59.3445576634" lon="34.6363690775"><ele>173.66</ele><time>2026-08-15T05:19:51Z</time></trkpt><trkpt lat="59.3445569091" lon="34.6363699157"><ele>171.73</ele><time>2026-08-15T05:19:54Z</time></trkpt><trkpt lat="59.3445467670" lon="34.6363830753"><ele>172.21</ele><time>2026-08-15T05:20:32Z</time></trkpt><trkpt lat="59.3445314281" lon="34.6363481227"><ele>172.69</ele><time>2026-08-15T05:21:14Z</time></trkpt><trkpt lat="59.3445244711" lon="34.6363582648"><ele>171.73</ele><time>2026-08-15T05:21:30Z</time></trkpt><trkpt lat="59.3445108924" lon="34.6363704186"><ele>171.73</ele><time>2026-08-15T05:21:53Z</time></trkpt><trkpt lat="59.3444414902" lon="34.6362712607"><ele>171.73</ele><time>2026-08-15T05:22:08Z</time></trkpt><trkpt lat="59.3443631195" lon="34.6361369826"><ele>172.69</ele><time>2026-08-15T05:22:20Z</time></trkpt><trkpt lat="59.3443159293" lon="34.6360517386"><ele>172.69</ele><time>2026-08-15T05:22:32Z</time></trkpt><trkpt lat="59.3442559987" lon="34.6359677520"><ele>171.73</ele><time>2026-08-15T05:22:44Z</time></trkpt><trkpt lat="59.3442220520" lon="34.6359121799"><ele>173.17</ele><time>2026-08-15T05:22:47Z</time></trkpt><trkpt lat="59.3441293482" lon="34.6357614733"><ele>173.17</ele><time>2026-08-15T05:23:02Z</time></trkpt><trkpt lat="59.3440799788" lon="34.6356052347"><ele>173.17</ele><time>2026-08-15T05:23:15Z</time></trkpt><trkpt lat="59.3440707587" lon="34.6355770715"><ele>173.17</ele><time>2026-08-15T05:23:17Z</time></trkpt><trkpt lat="59.3440405838" lon="34.6355029754"><ele>173.17</ele><time>2026-08-15T05:23:31Z</time></trkpt><trkpt lat="59.3440114148" lon="34.6353669371"><ele>173.17</ele><time>2026-08-15T05:23:47Z</time></trkpt><trkpt lat="59.3439788092" lon="34.6351700462"><ele>172.21</ele><time>2026-08-15T05:23:59Z</time></trkpt><trkpt lat="59.3439863529" lon="34.6349765919"><ele>171.73</ele><time>2026-08-15T05:24:13Z</time></trkpt><trkpt lat="59.3439845089" lon="34.6349443216"><ele>171.73</ele><time>2026-08-15T05:24:16Z</time></trkpt><trkpt lat="59.3439565971" lon="34.6348112170"><ele>171.73</ele><time>2026-08-15T05:24:29Z</time></trkpt><trkpt lat="59.3439474609" lon="34.6348241251"><ele>171.73</ele><time>2026-08-15T05:24:44Z</time></trkpt><trkpt lat="59.3439626321" lon="34.6348453313"><ele>171.73</ele><time>2026-08-15T05:25:03Z</time></trkpt><trkpt lat="59.3439734448" lon="34.6348613407"><ele>171.73</ele><time>2026-08-15T05:25:23Z</time></trkpt><trkpt lat="59.3439648952" lon="34.6348758414"><ele>171.73</ele><time>2026-08-15T05:25:37Z</time></trkpt><trkpt lat="59.3439574353" lon="34.6348575689"><ele>172.69</ele><time>2026-08-15T05:26:04Z</time></trkpt><trkpt lat="59.3439567648" lon="34.6348468401"><ele>171.25</ele><time>2026-08-15T05:26:22Z</time></trkpt><trkpt lat="59.3439494725" lon="34.6348649450"><ele>171.25</ele><time>2026-08-15T05:26:48Z</time></trkpt><trkpt lat="59.3439452816" lon="34.6348706447"><ele>172.69</ele><time>2026-08-15T05:27:06Z</time></trkpt><trkpt lat="59.3439423479" lon="34.6348728240"><ele>171.25</ele><time>2026-08-15T05:27:16Z</time></trkpt><trkpt lat="59.3439397495" lon="34.6348774340"><ele>171.25</ele><time>2026-08-15T05:27:37Z</time></trkpt><trkpt lat="59.3439473771" lon="34.6348746680"><ele>172.69</ele><time>2026-08-15T05:27:47Z</time></trkpt><trkpt lat="59.3439498078" lon="34.6348717343"><ele>171.25</ele><time>2026-08-15T05:27:49Z</time></trkpt><trkpt lat="59.3439640570" lon="34.6348719858"><ele>171.25</ele><time>2026-08-15T05:27:51Z</time></trkpt><trkpt lat="59.3440214731" lon="34.6348544676"><ele>171.25</ele><time>2026-08-15T05:27:57Z</time></trkpt><trkpt lat="59.3440487981" lon="34.6348278970"><ele>171.25</ele><time>2026-08-15T05:28:00Z</time></trkpt><trkpt lat="59.3440788053" lon="34.6348118875"><ele>171.25</ele><time>2026-08-15T05:28:03Z</time></trkpt><trkpt lat="59.3440995086" lon="34.6348042600"><ele>171.25</ele><time>2026-08-15T05:28:05Z</time></trkpt><trkpt lat="59.3441183679" lon="34.6347913519"><ele>171.25</ele><time>2026-08-15T05:28:07Z</time></trkpt><trkpt lat="59.3441427592" lon="34.6347770188"><ele>171.25</ele><time>2026-08-15T05:28:10Z</time></trkpt><trkpt lat="59.3441622052" lon="34.6347628534"><ele>171.25</ele><time>2026-08-15T05:28:23Z</time></trkpt><trkpt lat="59.3442357145" lon="34.6347105503"><ele>171.25</ele><time>2026-08-15T05:28:43Z</time></trkpt><trkpt lat="59.3443387281" lon="34.6346455906"><ele>171.25</ele><time>2026-08-15T05:28:56Z</time></trkpt><trkpt lat="59.3444408197" lon="34.6345686447"><ele>171.25</ele><time>2026-08-15T05:29:14Z</time></trkpt><trkpt lat="59.3444609363" lon="34.6345364582"><ele>171.25</ele><time>2026-08-15T05:29:18Z</time></trkpt><trkpt lat="59.3445578311" lon="34.6344758570"><ele>171.25</ele><time>2026-08-15T05:29:31Z</time></trkpt><trkpt lat="59.3445735890" lon="34.6344537288"><ele>171.73</ele><time>2026-08-15T05:29:44Z</time></trkpt><trkpt lat="59.3445709068" lon="34.6344548184"><ele>171.25</ele><time>2026-08-15T05:29:52Z</time></trkpt><trkpt lat="59.3445844855" lon="34.6344474424"><ele>171.73</ele><time>2026-08-15T05:29:59Z</time></trkpt><trkpt lat="59.3446355313" lon="34.6344211232"><ele>171.73</ele><time>2026-08-15T05:30:12Z</time></trkpt><trkpt lat="59.3446528818" lon="34.6344188601"><ele>171.73</ele><time>2026-08-15T05:30:15Z</time></trkpt><trkpt lat="59.3447313365" lon="34.6344164293"><ele>171.73</ele><time>2026-08-15T05:30:29Z</time></trkpt><trkpt lat="59.3448132277" lon="34.6344020125"><ele>170.77</ele><time>2026-08-15T05:30:44Z</time></trkpt><trkpt lat="59.3448240403" lon="34.6343928762"><ele>170.77</ele><time>2026-08-15T05:31:07Z</time></trkpt><trkpt lat="59.3448289018" lon="34.6343852486"><ele>170.29</ele><time>2026-08-15T05:31:46Z</time></trkpt><trkpt lat="59.3448345177" lon="34.6343833208"><ele>170.29</ele><time>2026-08-15T05:32:17Z</time></trkpt><trkpt lat="59.3449070211" lon="34.6343667246"><ele>171.25</ele><time>2026-08-15T05:32:28Z</time></trkpt><trkpt lat="59.3449464161" lon="34.6343374718"><ele>171.25</ele><time>2026-08-15T05:32:33Z</time></trkpt><trkpt lat="59.3450165726" lon="34.6343517210"><ele>171.25</ele><time>2026-08-15T05:32:45Z</time></trkpt><trkpt lat="59.3450920098" lon="34.6343631204"><ele>171.25</ele><time>2026-08-15T05:32:57Z</time></trkpt><trkpt lat="59.3451712187" lon="34.6343482845"><ele>171.25</ele><time>2026-08-15T05:33:08Z</time></trkpt><trkpt lat="59.3452640902" lon="34.6343861707"><ele>171.25</ele><time>2026-08-15T05:33:20Z</time></trkpt><trkpt lat="59.3452975340" lon="34.6344049461"><ele>170.29</ele><time>2026-08-15T05:33:32Z</time></trkpt><trkpt lat="59.3453034852" lon="34.6344069578"><ele>170.29</ele><time>2026-08-15T05:33:48Z</time></trkpt><trkpt lat="59.3453953508" lon="34.6343979053"><ele>170.29</ele><time>2026-08-15T05:34:07Z</time></trkpt><trkpt lat="59.3454292975" lon="34.6343766153"><ele>170.29</ele><time>2026-08-15T05:34:28Z</time></trkpt><trkpt lat="59.3454971071" lon="34.6343690716"><ele>170.29</ele><time>2026-08-15T05:34:49Z</time></trkpt><trkpt lat="59.3455738015" lon="34.6343868412"><ele>170.29</ele><time>2026-08-15T05:35:01Z</time></trkpt><trkpt lat="59.3456523400" lon="34.6343849972"><ele>170.29</ele><time>2026-08-15T05:35:13Z</time></trkpt><trkpt lat="59.3456794135" lon="34.6344007552"><ele>170.29</ele><time>2026-08-15T05:35:28Z</time></trkpt><trkpt lat="59.3456773181" lon="34.6343782078"><ele>170.29</ele><time>2026-08-15T05:35:59Z</time></trkpt><trkpt lat="59.3456812575" lon="34.6343787108"><ele>170.29</ele><time>2026-08-15T05:36:24Z</time></trkpt><trkpt lat="59.3456940819" lon="34.6343703289"><ele>169.81</ele><time>2026-08-15T05:36:54Z</time></trkpt><trkpt lat="59.3457632326" lon="34.6343854163"><ele>169.33</ele><time>2026-08-15T05:37:11Z</time></trkpt><trkpt lat="59.3458146136" lon="34.6344419941"><ele>169.33</ele><time>2026-08-15T05:37:25Z</time></trkpt><trkpt lat="59.3458680063" lon="34.6344855800"><ele>169.33</ele><time>2026-08-15T05:37:42Z</time></trkpt><trkpt lat="59.3458610494" lon="34.6344861668"><ele>167.89</ele><time>2026-08-15T05:37:58Z</time></trkpt><trkpt lat="59.3458615523" lon="34.6344888490"><ele>169.33</ele><time>2026-08-15T05:38:02Z</time></trkpt><trkpt lat="59.3458623067" lon="34.6344906930"><ele>170.29</ele><time>2026-08-15T05:38:05Z</time></trkpt><trkpt lat="59.3458638154" lon="34.6344929561"><ele>170.77</ele><time>2026-08-15T05:38:14Z</time></trkpt><trkpt lat="59.3458635639" lon="34.6344939619"><ele>169.33</ele><time>2026-08-15T05:38:16Z</time></trkpt><trkpt lat="59.3458633963" lon="34.6344944648"><ele>172.69</ele><time>2026-08-15T05:38:19Z</time></trkpt><trkpt lat="59.3458629772" lon="34.6344922855"><ele>169.81</ele><time>2026-08-15T05:38:22Z</time></trkpt><trkpt lat="59.3458626419" lon="34.6344911959"><ele>169.81</ele><time>2026-08-15T05:38:23Z</time></trkpt><trkpt lat="59.3458614685" lon="34.6344898548"><ele>169.81</ele><time>2026-08-15T05:38:28Z</time></trkpt><trkpt lat="59.3458532542" lon="34.6344793774"><ele>169.81</ele><time>2026-08-15T05:38:50Z</time></trkpt><trkpt lat="59.3458535057" lon="34.6344789583"><ele>150.10</ele><time>2026-08-15T05:38:54Z</time></trkpt><trkpt lat="59.3458539248" lon="34.6344797965"><ele>164.52</ele><time>2026-08-15T05:38:56Z</time></trkpt><trkpt lat="59.3458546791" lon="34.6344808862"><ele>169.33</ele><time>2026-08-15T05:38:58Z</time></trkpt><trkpt lat="59.3458551820" lon="34.6344817244"><ele>171.25</ele><time>2026-08-15T05:39:00Z</time></trkpt><trkpt lat="59.3458553497" lon="34.6344818082"><ele>167.89</ele><time>2026-08-15T05:39:01Z</time></trkpt><trkpt lat="59.3458555173" lon="34.6344821434"><ele>171.25</ele><time>2026-08-15T05:39:02Z</time></trkpt><trkpt lat="59.3458556850" lon="34.6344829816"><ele>166.45</ele><time>2026-08-15T05:39:05Z</time></trkpt><trkpt lat="59.3458558526" lon="34.6344834846"><ele>172.21</ele><time>2026-08-15T05:39:07Z</time></trkpt><trkpt lat="59.3458560202" lon="34.6344838198"><ele>176.06</ele><time>2026-08-15T05:39:08Z</time></trkpt><trkpt lat="59.3458564393" lon="34.6344838198"><ele>176.06</ele><time>2026-08-15T05:39:09Z</time></trkpt><trkpt lat="59.3458565231" lon="34.6344836522"><ele>172.21</ele><time>2026-08-15T05:39:10Z</time></trkpt><trkpt lat="59.3458566070" lon="34.6344840713"><ele>168.85</ele><time>2026-08-15T05:39:11Z</time></trkpt><trkpt lat="59.3458563555" lon="34.6344825625"><ele>169.81</ele><time>2026-08-15T05:39:12Z</time></trkpt><trkpt lat="59.3458551820" lon="34.6344808862"><ele>169.81</ele><time>2026-08-15T05:39:23Z</time></trkpt><trkpt lat="59.3458550144" lon="34.6344797127"><ele>172.21</ele><time>2026-08-15T05:39:30Z</time></trkpt><trkpt lat="59.3458550982" lon="34.6344775334"><ele>170.77</ele><time>2026-08-15T05:39:33Z</time></trkpt><trkpt lat="59.3458509911" lon="34.6344794612"><ele>169.81</ele><time>2026-08-15T05:39:50Z</time></trkpt><trkpt lat="59.3458569422" lon="34.6344098076"><ele>169.81</ele><time>2026-08-15T05:40:06Z</time></trkpt><trkpt lat="59.3458644859" lon="34.6344130766"><ele>169.81</ele><time>2026-08-15T05:40:07Z</time></trkpt><trkpt lat="59.3458934873" lon="34.6343645453"><ele>169.81</ele><time>2026-08-15T05:40:12Z</time></trkpt><trkpt lat="59.3460059725" lon="34.6343079675"><ele>170.77</ele><time>2026-08-15T05:40:27Z</time></trkpt><trkpt lat="59.3460110854" lon="34.6343079675"><ele>170.77</ele><time>2026-08-15T05:40:28Z</time></trkpt><trkpt lat="59.3460698426" lon="34.6342888568"><ele>170.77</ele><time>2026-08-15T05:40:40Z</time></trkpt><trkpt lat="59.3460774701" lon="34.6343099792"><ele>169.81</ele><time>2026-08-15T05:40:56Z</time></trkpt><trkpt lat="59.3460870255" lon="34.6343236417"><ele>171.25</ele><time>2026-08-15T05:41:32Z</time></trkpt><trkpt lat="59.3460887857" lon="34.6343221329"><ele>169.81</ele><time>2026-08-15T05:41:54Z</time></trkpt><trkpt lat="59.3461499736" lon="34.6343886014"><ele>169.81</ele><time>2026-08-15T05:42:20Z</time></trkpt><trkpt lat="59.3461825792" lon="34.6344322711"><ele>169.33</ele><time>2026-08-15T05:42:33Z</time></trkpt><trkpt lat="59.3462413363" lon="34.6345823910"><ele>169.33</ele><time>2026-08-15T05:42:48Z</time></trkpt><trkpt lat="59.3462459464" lon="34.6345994063"><ele>169.33</ele><time>2026-08-15T05:43:13Z</time></trkpt><trkpt lat="59.3462478742" lon="34.6346034296"><ele>169.33</ele><time>2026-08-15T05:43:34Z</time></trkpt><trkpt lat="59.3462598603" lon="34.6346248034"><ele>170.77</ele><time>2026-08-15T05:44:01Z</time></trkpt><trkpt lat="59.3462765403" lon="34.6346502006"><ele>169.33</ele><time>2026-08-15T05:44:13Z</time></trkpt><trkpt lat="59.3462941423" lon="34.6347146574"><ele>169.33</ele><time>2026-08-15T05:44:27Z</time></trkpt><trkpt lat="59.3463142589" lon="34.6347683016"><ele>169.33</ele><time>2026-08-15T05:44:42Z</time></trkpt><trkpt lat="59.3463363033" lon="34.6348066069"><ele>170.77</ele><time>2026-08-15T05:44:50Z</time></trkpt><trkpt lat="59.3464018498" lon="34.6348913480"><ele>170.77</ele><time>2026-08-15T05:45:01Z</time></trkpt><trkpt lat="59.3464119080" lon="34.6348872408"><ele>169.33</ele><time>2026-08-15T05:45:13Z</time></trkpt><trkpt lat="59.3464309350" lon="34.6349174157"><ele>169.33</ele><time>2026-08-15T05:45:38Z</time></trkpt><trkpt lat="59.3465090543" lon="34.6350846346"><ele>169.33</ele><time>2026-08-15T05:45:50Z</time></trkpt><trkpt lat="59.3465513829" lon="34.6351740696"><ele>169.33</ele><time>2026-08-15T05:46:04Z</time></trkpt><trkpt lat="59.3465513829" lon="34.6351713035"><ele>170.77</ele><time>2026-08-15T05:46:07Z</time></trkpt><trkpt lat="59.3465523887" lon="34.6351816971"><ele>169.33</ele><time>2026-08-15T05:46:16Z</time></trkpt><trkpt lat="59.3466179352" lon="34.6352806035"><ele>169.33</ele><time>2026-08-15T05:46:30Z</time></trkpt><trkpt lat="59.3466517143" lon="34.6353241056"><ele>170.77</ele><time>2026-08-15T05:46:39Z</time></trkpt><trkpt lat="59.3466668855" lon="34.6353500057"><ele>170.77</ele><time>2026-08-15T05:46:44Z</time></trkpt><trkpt lat="59.3467729166" lon="34.6355325636"><ele>169.33</ele><time>2026-08-15T05:46:56Z</time></trkpt><trkpt lat="59.3468586635" lon="34.6356656682"><ele>169.33</ele><time>2026-08-15T05:47:09Z</time></trkpt><trkpt lat="59.3469391298" lon="34.6357583720"><ele>170.77</ele><time>2026-08-15T05:47:19Z</time></trkpt><trkpt lat="59.3470077775" lon="34.6358267684"><ele>170.77</ele><time>2026-08-15T05:47:33Z</time></trkpt><trkpt lat="59.3470659479" lon="34.6358531713"><ele>170.77</ele><time>2026-08-15T05:47:44Z</time></trkpt><trkpt lat="59.3471441511" lon="34.6360193007"><ele>170.77</ele><time>2026-08-15T05:47:59Z</time></trkpt><trkpt lat="59.3471780978" lon="34.6360971685"><ele>169.33</ele><time>2026-08-15T05:48:15Z</time></trkpt><trkpt lat="59.3472732324" lon="34.6362523176"><ele>169.33</ele><time>2026-08-15T05:48:29Z</time></trkpt><trkpt lat="59.3473635055" lon="34.6364492085"><ele>169.33</ele><time>2026-08-15T05:48:43Z</time></trkpt><trkpt lat="59.3474355899" lon="34.6365480311"><ele>170.77</ele><time>2026-08-15T05:48:54Z</time></trkpt><trkpt lat="59.3475214206" lon="34.6366555709"><ele>170.77</ele><time>2026-08-15T05:49:09Z</time></trkpt><trkpt lat="59.3475561216" lon="34.6366710775"><ele>172.21</ele><time>2026-08-15T05:49:14Z</time></trkpt><trkpt lat="59.3475614861" lon="34.6366755199"><ele>170.29</ele><time>2026-08-15T05:49:18Z</time></trkpt><trkpt lat="59.3475854583" lon="34.6367018390"><ele>168.85</ele><time>2026-08-15T05:49:30Z</time></trkpt><trkpt lat="59.3476090115" lon="34.6367200278"><ele>168.85</ele><time>2026-08-15T05:49:46Z</time></trkpt><trkpt lat="59.3477201555" lon="34.6367791202"><ele>168.85</ele><time>2026-08-15T05:49:59Z</time></trkpt><trkpt lat="59.3477410264" lon="34.6367942076"><ele>168.85</ele><time>2026-08-15T05:50:14Z</time></trkpt><trkpt lat="59.3478050642" lon="34.6368361171"><ele>168.85</ele><time>2026-08-15T05:50:26Z</time></trkpt><trkpt lat="59.3479236681" lon="34.6368690580"><ele>168.85</ele><time>2026-08-15T05:50:37Z</time></trkpt><trkpt lat="59.3480047211" lon="34.6368955448"><ele>170.29</ele><time>2026-08-15T05:50:53Z</time></trkpt><trkpt lat="59.3480114266" lon="34.6369047649"><ele>169.81</ele><time>2026-08-15T05:50:57Z</time></trkpt><trkpt lat="59.3480615504" lon="34.6369164158"><ele>169.33</ele><time>2026-08-15T05:51:14Z</time></trkpt><trkpt lat="59.3480787333" lon="34.6369194333"><ele>169.33</ele><time>2026-08-15T05:51:29Z</time></trkpt><trkpt lat="59.3481085729" lon="34.6369358618"><ele>169.33</ele><time>2026-08-15T05:51:53Z</time></trkpt><trkpt lat="59.3481980916" lon="34.6370271407"><ele>168.37</ele><time>2026-08-15T05:52:09Z</time></trkpt><trkpt lat="59.3481935654" lon="34.6371248737"><ele>169.81</ele><time>2026-08-15T05:52:16Z</time></trkpt><trkpt lat="59.3483147677" lon="34.6373088565"><ele>169.33</ele><time>2026-08-15T05:52:38Z</time></trkpt><trkpt lat="59.3483291846" lon="34.6374089364"><ele>169.33</ele><time>2026-08-15T05:52:46Z</time></trkpt><trkpt lat="59.3483490497" lon="34.6374738961"><ele>169.33</ele><time>2026-08-15T05:52:52Z</time></trkpt><trkpt lat="59.3484340422" lon="34.6376364212"><ele>169.33</ele><time>2026-08-15T05:53:06Z</time></trkpt><trkpt lat="59.3485067971" lon="34.6377753932"><ele>169.33</ele><time>2026-08-15T05:53:19Z</time></trkpt><trkpt lat="59.3485796358" lon="34.6379135270"><ele>167.89</ele><time>2026-08-15T05:53:33Z</time></trkpt><trkpt lat="59.3486792129" lon="34.6379787382"><ele>167.89</ele><time>2026-08-15T05:53:47Z</time></trkpt><trkpt lat="59.3487651274" lon="34.6380827576"><ele>167.89</ele><time>2026-08-15T05:54:01Z</time></trkpt><trkpt lat="59.3488404807" lon="34.6381552611"><ele>167.89</ele><time>2026-08-15T05:54:13Z</time></trkpt><trkpt lat="59.3488676380" lon="34.6382138506"><ele>167.89</ele><time>2026-08-15T05:54:26Z</time></trkpt><trkpt lat="59.3489400577" lon="34.6383673232"><ele>167.89</ele><time>2026-08-15T05:54:40Z</time></trkpt><trkpt lat="59.3489577435" lon="34.6384027787"><ele>167.89</ele><time>2026-08-15T05:54:44Z</time></trkpt><trkpt lat="59.3490198534" lon="34.6386425011"><ele>167.89</ele><time>2026-08-15T05:54:58Z</time></trkpt><trkpt lat="59.3490909319" lon="34.6387955546"><ele>167.89</ele><time>2026-08-15T05:55:11Z</time></trkpt><trkpt lat="59.3491147365" lon="34.6389329340"><ele>167.89</ele><time>2026-08-15T05:55:25Z</time></trkpt><trkpt lat="59.3491425645" lon="34.6390249673"><ele>167.89</ele><time>2026-08-15T05:55:33Z</time></trkpt><trkpt lat="59.3491512816" lon="34.6391383745"><ele>167.89</ele><time>2026-08-15T05:55:47Z</time></trkpt><trkpt lat="59.3491627648" lon="34.6391631011"><ele>167.89</ele><time>2026-08-15T05:56:05Z</time></trkpt><trkpt lat="59.3491745833" lon="34.6391755901"><ele>167.89</ele><time>2026-08-15T05:56:07Z</time></trkpt><trkpt lat="59.3492034171" lon="34.6391860675"><ele>169.33</ele><time>2026-08-15T05:56:10Z</time></trkpt><trkpt lat="59.3492878228" lon="34.6393552143"><ele>169.33</ele><time>2026-08-15T05:56:24Z</time></trkpt><trkpt lat="59.3493296485" lon="34.6394431405"><ele>169.33</ele><time>2026-08-15T05:56:36Z</time></trkpt><trkpt lat="59.3493943568" lon="34.6395205054"><ele>169.33</ele><time>2026-08-15T05:56:48Z</time></trkpt><trkpt lat="59.3494527787" lon="34.6396616567"><ele>169.33</ele><time>2026-08-15T05:57:02Z</time></trkpt><trkpt lat="59.3495427165" lon="34.6398105193"><ele>170.29</ele><time>2026-08-15T05:57:17Z</time></trkpt><trkpt lat="59.3496601470" lon="34.6399422828"><ele>168.37</ele><time>2026-08-15T05:57:32Z</time></trkpt><trkpt lat="59.3497532699" lon="34.6400596295"><ele>168.37</ele><time>2026-08-15T05:57:45Z</time></trkpt><trkpt lat="59.3498183135" lon="34.6401968412"><ele>168.37</ele><time>2026-08-15T05:57:58Z</time></trkpt><trkpt lat="59.3498762324" lon="34.6403397527"><ele>168.37</ele><time>2026-08-15T05:58:14Z</time></trkpt><trkpt lat="59.3499217462" lon="34.6405536588"><ele>168.37</ele><time>2026-08-15T05:58:28Z</time></trkpt><trkpt lat="59.3499550223" lon="34.6405574307"><ele>168.37</ele><time>2026-08-15T05:58:42Z</time></trkpt><trkpt lat="59.3499302957" lon="34.6405422594"><ele>168.37</ele><time>2026-08-15T05:58:56Z</time></trkpt><trkpt lat="59.3498364184" lon="34.6406142600"><ele>168.37</ele><time>2026-08-15T05:59:11Z</time></trkpt><trkpt lat="59.3498195708" lon="34.6406436805"><ele>167.89</ele><time>2026-08-15T05:59:25Z</time></trkpt><trkpt lat="59.3498135358" lon="34.6406533197"><ele>167.89</ele><time>2026-08-15T05:59:50Z</time></trkpt><trkpt lat="59.3498124462" lon="34.6406385675"><ele>168.85</ele><time>2026-08-15T06:00:09Z</time></trkpt><trkpt lat="59.3498162180" lon="34.6406357177"><ele>167.89</ele><time>2026-08-15T06:00:29Z</time></trkpt><trkpt lat="59.3498147093" lon="34.6406309400"><ele>164.52</ele><time>2026-08-15T06:00:43Z</time></trkpt><trkpt lat="59.3498146255" lon="34.6406313591"><ele>170.29</ele><time>2026-08-15T06:00:44Z</time></trkpt><trkpt lat="59.3498131167" lon="34.6406332031"><ele>167.89</ele><time>2026-08-15T06:01:09Z</time></trkpt><trkpt lat="59.3498158827" lon="34.6406301856"><ele>167.89</ele><time>2026-08-15T06:01:32Z</time></trkpt><trkpt lat="59.3498191517" lon="34.6406384837"><ele>169.81</ele><time>2026-08-15T06:01:55Z</time></trkpt><trkpt lat="59.3498197384" lon="34.6406383999"><ele>168.37</ele><time>2026-08-15T06:02:00Z</time></trkpt><trkpt lat="59.3498278689" lon="34.6406417526"><ele>169.33</ele><time>2026-08-15T06:02:34Z</time></trkpt><trkpt lat="59.3498298805" lon="34.6406490449"><ele>169.33</ele><time>2026-08-15T06:03:08Z</time></trkpt><trkpt lat="59.3498297129" lon="34.6406463627"><ele>169.33</ele><time>2026-08-15T06:03:36Z</time></trkpt><trkpt lat="59.3498300482" lon="34.6406461112"><ele>169.33</ele><time>2026-08-15T06:03:37Z</time></trkpt><trkpt lat="59.3498282041" lon="34.6406393219"><ele>169.33</ele><time>2026-08-15T06:04:10Z</time></trkpt><trkpt lat="59.3498405255" lon="34.6406254917"><ele>169.33</ele><time>2026-08-15T06:04:44Z</time></trkpt><trkpt lat="59.3498401903" lon="34.6406270005"><ele>167.41</ele><time>2026-08-15T06:04:55Z</time></trkpt><trkpt lat="59.3498401903" lon="34.6406290960"><ele>170.29</ele><time>2026-08-15T06:04:57Z</time></trkpt><trkpt lat="59.3498435430" lon="34.6406337060"><ele>168.85</ele><time>2026-08-15T06:05:21Z</time></trkpt><trkpt lat="59.3498400226" lon="34.6406301856"><ele>168.85</ele><time>2026-08-15T06:05:49Z</time></trkpt><trkpt lat="59.3498378433" lon="34.6406270843"><ele>159.72</ele><time>2026-08-15T06:05:58Z</time></trkpt><trkpt lat="59.3498380948" lon="34.6406264976"><ele>170.77</ele><time>2026-08-15T06:05:59Z</time></trkpt><trkpt lat="59.3498376757" lon="34.6406208817"><ele>163.08</ele><time>2026-08-15T06:06:01Z</time></trkpt><trkpt lat="59.3498377595" lon="34.6406202111"><ele>170.77</ele><time>2026-08-15T06:06:02Z</time></trkpt><trkpt lat="59.3498374242" lon="34.6406181157"><ele>177.98</ele><time>2026-08-15T06:06:03Z</time></trkpt><trkpt lat="59.3498370890" lon="34.6406176127"><ele>173.66</ele><time>2026-08-15T06:06:04Z</time></trkpt><trkpt lat="59.3498375919" lon="34.6406173613"><ele>169.81</ele><time>2026-08-15T06:06:06Z</time></trkpt><trkpt lat="59.3498376757" lon="34.6406165231"><ele>169.81</ele><time>2026-08-15T06:06:07Z</time></trkpt><trkpt lat="59.3498380110" lon="34.6406146791"><ele>170.77</ele><time>2026-08-15T06:06:14Z</time></trkpt><trkpt lat="59.3498379271" lon="34.6406145953"><ele>169.33</ele><time>2026-08-15T06:06:15Z</time></trkpt><trkpt lat="59.3498294614" lon="34.6406160202"><ele>170.29</ele><time>2026-08-15T06:06:30Z</time></trkpt><trkpt lat="59.3498256896" lon="34.6406307723"><ele>170.29</ele><time>2026-08-15T06:06:53Z</time></trkpt><trkpt lat="59.3498232588" lon="34.6406306885"><ele>168.85</ele><time>2026-08-15T06:06:59Z</time></trkpt><trkpt lat="59.3498235941" lon="34.6406472009"><ele>170.29</ele><time>2026-08-15T06:07:04Z</time></trkpt><trkpt lat="59.3498253543" lon="34.6406570077"><ele>169.33</ele><time>2026-08-15T06:07:07Z</time></trkpt><trkpt lat="59.3498287071" lon="34.6406734362"><ele>170.29</ele><time>2026-08-15T06:07:32Z</time></trkpt><trkpt lat="59.3498284556" lon="34.6406729333"><ele>170.29</ele><time>2026-08-15T06:07:33Z</time></trkpt><trkpt lat="59.3498288747" lon="34.6406583488"><ele>165.96</ele><time>2026-08-15T06:07:47Z</time></trkpt><trkpt lat="59.3498286232" lon="34.6406584326"><ele>169.33</ele><time>2026-08-15T06:07:48Z</time></trkpt><trkpt lat="59.3498286232" lon="34.6406585164"><ele>168.85</ele><time>2026-08-15T06:07:53Z</time></trkpt><trkpt lat="59.3498285394" lon="34.6406582650"><ele>172.69</ele><time>2026-08-15T06:07:57Z</time></trkpt><trkpt lat="59.3498283718" lon="34.6406586841"><ele>172.69</ele><time>2026-08-15T06:07:58Z</time></trkpt><trkpt lat="59.3498282041" lon="34.6406605281"><ele>170.77</ele><time>2026-08-15T06:08:00Z</time></trkpt><trkpt lat="59.3498228397" lon="34.6406567562"><ele>169.81</ele><time>2026-08-15T06:08:25Z</time></trkpt><trkpt lat="59.3498277850" lon="34.6406630427"><ele>169.33</ele><time>2026-08-15T06:08:51Z</time></trkpt><trkpt lat="59.3498283718" lon="34.6406732686"><ele>170.29</ele><time>2026-08-15T06:09:14Z</time></trkpt><trkpt lat="59.3497953471" lon="34.6406630427"><ele>169.33</ele><time>2026-08-15T06:09:26Z</time></trkpt><trkpt lat="59.3497977778" lon="34.6406630427"><ele>169.33</ele><time>2026-08-15T06:09:49Z</time></trkpt><trkpt lat="59.3498560321" lon="34.6406765375"><ele>169.33</ele><time>2026-08-15T06:10:14Z</time></trkpt><trkpt lat="59.3498591334" lon="34.6406780463"><ele>169.81</ele><time>2026-08-15T06:10:41Z</time></trkpt><trkpt lat="59.3498522602" lon="34.6406730171"><ele>169.81</ele><time>2026-08-15T06:11:01Z</time></trkpt><trkpt lat="59.3498260248" lon="34.6406581812"><ele>169.33</ele><time>2026-08-15T06:11:23Z</time></trkpt><trkpt lat="59.3498115242" lon="34.6406809799"><ele>169.33</ele><time>2026-08-15T06:11:50Z</time></trkpt><trkpt lat="59.3498100154" lon="34.6406845003"><ele>167.41</ele><time>2026-08-15T06:12:05Z</time></trkpt><trkpt lat="59.3498550262" lon="34.6406071354"><ele>169.81</ele><time>2026-08-15T06:12:19Z</time></trkpt><trkpt lat="59.3498916551" lon="34.6405638009"><ele>170.77</ele><time>2026-08-15T06:12:34Z</time></trkpt><trkpt lat="59.3499903101" lon="34.6405069716"><ele>170.77</ele><time>2026-08-15T06:12:48Z</time></trkpt><trkpt lat="59.3500692677" lon="34.6404994279"><ele>170.77</ele><time>2026-08-15T06:13:02Z</time></trkpt><trkpt lat="59.3501405139" lon="34.6404308639"><ele>170.77</ele><time>2026-08-15T06:13:14Z</time></trkpt><trkpt lat="59.3502056412" lon="34.6403805725"><ele>170.77</ele><time>2026-08-15T06:13:27Z</time></trkpt><trkpt lat="59.3502498977" lon="34.6403616294"><ele>170.77</ele><time>2026-08-15T06:13:40Z</time></trkpt><trkpt lat="59.3502587825" lon="34.6403683349"><ele>169.33</ele><time>2026-08-15T06:13:48Z</time></trkpt><trkpt lat="59.3503209762" lon="34.6403286047"><ele>169.33</ele><time>2026-08-15T06:14:05Z</time></trkpt><trkpt lat="59.3503491394" lon="34.6403042134"><ele>169.33</ele><time>2026-08-15T06:14:22Z</time></trkpt><trkpt lat="59.3503788114" lon="34.6403012797"><ele>169.33</ele><time>2026-08-15T06:14:46Z</time></trkpt><trkpt lat="59.3503990117" lon="34.6403151937"><ele>169.33</ele><time>2026-08-15T06:15:20Z</time></trkpt><trkpt lat="59.3504247442" lon="34.6402949933"><ele>169.33</ele><time>2026-08-15T06:15:42Z</time></trkpt><trkpt lat="59.3504809029" lon="34.6402478032"><ele>169.33</ele><time>2026-08-15T06:15:54Z</time></trkpt><trkpt lat="59.3505586870" lon="34.6401980147"><ele>170.29</ele><time>2026-08-15T06:16:15Z</time></trkpt><trkpt lat="59.3506899476" lon="34.6401993558"><ele>170.29</ele><time>2026-08-15T06:16:30Z</time></trkpt><trkpt lat="59.3507550750" lon="34.6401702706"><ele>169.33</ele><time>2026-08-15T06:16:41Z</time></trkpt><trkpt lat="59.3508078810" lon="34.6401632298"><ele>170.29</ele><time>2026-08-15T06:17:00Z</time></trkpt><trkpt lat="59.3508755229" lon="34.6401206497"><ele>169.33</ele><time>2026-08-15T06:17:10Z</time></trkpt><trkpt lat="59.3509754352" lon="34.6399937477"><ele>169.33</ele><time>2026-08-15T06:17:26Z</time></trkpt><trkpt lat="59.3510447536" lon="34.6399112698"><ele>169.33</ele><time>2026-08-15T06:17:39Z</time></trkpt><trkpt lat="59.3511087075" lon="34.6398714557"><ele>169.33</ele><time>2026-08-15T06:17:48Z</time></trkpt><trkpt lat="59.3511877488" lon="34.6398477349"><ele>169.33</ele><time>2026-08-15T06:18:00Z</time></trkpt><trkpt lat="59.3512511160" lon="34.6398336533"><ele>169.33</ele><time>2026-08-15T06:18:12Z</time></trkpt><trkpt lat="59.3512583245" lon="34.6398358326"><ele>169.33</ele><time>2026-08-15T06:18:30Z</time></trkpt><trkpt lat="59.3512556423" lon="34.6398468129"><ele>169.33</ele><time>2026-08-15T06:18:42Z</time></trkpt><trkpt lat="59.3512637727" lon="34.6398434602"><ele>169.33</ele><time>2026-08-15T06:19:00Z</time></trkpt><trkpt lat="59.3512802850" lon="34.6398246847"><ele>169.33</ele><time>2026-08-15T06:19:34Z</time></trkpt><trkpt lat="59.3512812071" lon="34.6398264449"><ele>169.33</ele><time>2026-08-15T06:19:58Z</time></trkpt><trkpt lat="59.3512873258" lon="34.6398198232"><ele>169.33</ele><time>2026-08-15T06:20:20Z</time></trkpt><trkpt lat="59.3513553031" lon="34.6397625748"><ele>169.33</ele><time>2026-08-15T06:20:31Z</time></trkpt><trkpt lat="59.3514593225" lon="34.6397178993"><ele>170.29</ele><time>2026-08-15T06:20:43Z</time></trkpt><trkpt lat="59.3515485898" lon="34.6397070028"><ele>168.85</ele><time>2026-08-15T06:20:53Z</time></trkpt><trkpt lat="59.3516650982" lon="34.6396524366"><ele>168.85</ele><time>2026-08-15T06:21:09Z</time></trkpt><trkpt lat="59.3517076783" lon="34.6396304760"><ele>170.29</ele><time>2026-08-15T06:21:16Z</time></trkpt><trkpt lat="59.3517187424" lon="34.6396410372"><ele>170.29</ele><time>2026-08-15T06:21:38Z</time></trkpt><trkpt lat="59.3518396094" lon="34.6395815257"><ele>170.29</ele><time>2026-08-15T06:21:52Z</time></trkpt><trkpt lat="59.3519491609" lon="34.6395219304"><ele>170.29</ele><time>2026-08-15T06:22:08Z</time></trkpt><trkpt lat="59.3520271126" lon="34.6394724771"><ele>170.29</ele><time>2026-08-15T06:22:20Z</time></trkpt><trkpt lat="59.3520316388" lon="34.6394819487"><ele>169.33</ele><time>2026-08-15T06:22:28Z</time></trkpt><trkpt lat="59.3520546891" lon="34.6394963656"><ele>169.33</ele><time>2026-08-15T06:22:38Z</time></trkpt><trkpt lat="59.3521051481" lon="34.6394733153"><ele>168.85</ele><time>2026-08-15T06:22:56Z</time></trkpt><trkpt lat="59.3521870393" lon="34.6394349262"><ele>168.85</ele><time>2026-08-15T06:23:07Z</time></trkpt><trkpt lat="59.3522178847" lon="34.6394236106"><ele>170.29</ele><time>2026-08-15T06:23:21Z</time></trkpt><trkpt lat="59.3522242550" lon="34.6394320764"><ele>168.85</ele><time>2026-08-15T06:23:27Z</time></trkpt><trkpt lat="59.3522241712" lon="34.6394270472"><ele>168.37</ele><time>2026-08-15T06:23:42Z</time></trkpt><trkpt lat="59.3522275239" lon="34.6394262929"><ele>169.33</ele><time>2026-08-15T06:24:03Z</time></trkpt><trkpt lat="59.3522407673" lon="34.6394135524"><ele>169.33</ele><time>2026-08-15T06:24:43Z</time></trkpt><trkpt lat="59.3522376660" lon="34.6394304838"><ele>169.33</ele><time>2026-08-15T06:25:03Z</time></trkpt><trkpt lat="59.3522763066" lon="34.6394212637"><ele>169.81</ele><time>2026-08-15T06:25:18Z</time></trkpt><trkpt lat="59.3523400929" lon="34.6393998899"><ele>168.37</ele><time>2026-08-15T06:25:31Z</time></trkpt><trkpt lat="59.3524080701" lon="34.6394213475"><ele>168.37</ele><time>2026-08-15T06:25:42Z</time></trkpt><trkpt lat="59.3525231536" lon="34.6394318249"><ele>168.37</ele><time>2026-08-15T06:25:56Z</time></trkpt><trkpt lat="59.3526114989" lon="34.6393978782"><ele>168.37</ele><time>2026-08-15T06:26:10Z</time></trkpt><trkpt lat="59.3526520673" lon="34.6393521130"><ele>168.37</ele><time>2026-08-15T06:26:24Z</time></trkpt><trkpt lat="59.3526807334" lon="34.6393720619"><ele>169.81</ele><time>2026-08-15T06:26:37Z</time></trkpt><trkpt lat="59.3526871037" lon="34.6393644344"><ele>165.96</ele><time>2026-08-15T06:26:41Z</time></trkpt><trkpt lat="59.3526866008" lon="34.6393651888"><ele>170.29</ele><time>2026-08-15T06:26:42Z</time></trkpt><trkpt lat="59.3526888639" lon="34.6393693797"><ele>169.33</ele><time>2026-08-15T06:26:45Z</time></trkpt><trkpt lat="59.3526917975" lon="34.6393726487"><ele>169.33</ele><time>2026-08-15T06:27:06Z</time></trkpt><trkpt lat="59.3527200446" lon="34.6393875685"><ele>169.33</ele><time>2026-08-15T06:27:28Z</time></trkpt><trkpt lat="59.3527294323" lon="34.6393749118"><ele>168.85</ele><time>2026-08-15T06:27:53Z</time></trkpt><trkpt lat="59.3527306896" lon="34.6393774264"><ele>169.33</ele><time>2026-08-15T06:28:06Z</time></trkpt><trkpt lat="59.3527529016" lon="34.6393820364"><ele>169.33</ele><time>2026-08-15T06:28:30Z</time></trkpt><trkpt lat="59.3527604453" lon="34.6393813659"><ele>169.33</ele><time>2026-08-15T06:28:55Z</time></trkpt><trkpt lat="59.3527625408" lon="34.6393863950"><ele>169.33</ele><time>2026-08-15T06:29:18Z</time></trkpt><trkpt lat="59.3528406601" lon="34.6393421385"><ele>169.33</ele><time>2026-08-15T06:29:30Z</time></trkpt><trkpt lat="59.3529379740" lon="34.6393109579"><ele>169.33</ele><time>2026-08-15T06:29:44Z</time></trkpt><trkpt lat="59.3529895227" lon="34.6392931882"><ele>169.33</ele><time>2026-08-15T06:29:56Z</time></trkpt><trkpt lat="59.3530521356" lon="34.6392426454"><ele>169.33</ele><time>2026-08-15T06:30:10Z</time></trkpt><trkpt lat="59.3531967234" lon="34.6391936112"><ele>169.81</ele><time>2026-08-15T06:30:23Z</time></trkpt><trkpt lat="59.3533065263" lon="34.6391743328"><ele>169.81</ele><time>2026-08-15T06:30:37Z</time></trkpt><trkpt lat="59.3534008227" lon="34.6391827147"><ele>170.29</ele><time>2026-08-15T06:30:51Z</time></trkpt><trkpt lat="59.3534635194" lon="34.6391947009"><ele>170.29</ele><time>2026-08-15T06:31:05Z</time></trkpt><trkpt lat="59.3535239529" lon="34.6392741613"><ele>170.29</ele><time>2026-08-15T06:31:19Z</time></trkpt><trkpt lat="59.3536085263" lon="34.6393226087"><ele>170.29</ele><time>2026-08-15T06:31:34Z</time></trkpt><trkpt lat="59.3536159862" lon="34.6393261291"><ele>168.85</ele><time>2026-08-15T06:31:38Z</time></trkpt><trkpt lat="59.3536330014" lon="34.6393212676"><ele>168.85</ele><time>2026-08-15T06:31:55Z</time></trkpt><trkpt lat="59.3536509387" lon="34.6393118799"><ele>169.81</ele><time>2026-08-15T06:32:24Z</time></trkpt><trkpt lat="59.3536593206" lon="34.6393172443"><ele>166.45</ele><time>2026-08-15T06:32:53Z</time></trkpt><trkpt lat="59.3536589015" lon="34.6393159870"><ele>171.25</ele><time>2026-08-15T06:32:54Z</time></trkpt><trkpt lat="59.3536614161" lon="34.6393147297"><ele>168.85</ele><time>2026-08-15T06:33:25Z</time></trkpt><trkpt lat="59.3536627572" lon="34.6393081080"><ele>168.85</ele><time>2026-08-15T06:33:51Z</time></trkpt><trkpt lat="59.3536630925" lon="34.6392255463"><ele>170.29</ele><time>2026-08-15T06:34:18Z</time></trkpt><trkpt lat="59.3536839634" lon="34.6390738338"><ele>170.29</ele><time>2026-08-15T06:34:28Z</time></trkpt><trkpt lat="59.3536453228" lon="34.6389025077"><ele>170.29</ele><time>2026-08-15T06:34:40Z</time></trkpt><trkpt lat="59.3536015693" lon="34.6386357956"><ele>170.29</ele><time>2026-08-15T06:34:55Z</time></trkpt><trkpt lat="59.3535947800" lon="34.6385134198"><ele>170.29</ele><time>2026-08-15T06:35:08Z</time></trkpt><trkpt lat="59.3535772618" lon="34.6382923890"><ele>170.29</ele><time>2026-08-15T06:35:21Z</time></trkpt><trkpt lat="59.3535416387" lon="34.6381344739"><ele>170.29</ele><time>2026-08-15T06:35:35Z</time></trkpt><trkpt lat="59.3535792734" lon="34.6380966716"><ele>170.29</ele><time>2026-08-15T06:35:51Z</time></trkpt><trkpt lat="59.3536150642" lon="34.6379180532"><ele>170.29</ele><time>2026-08-15T06:36:04Z</time></trkpt><trkpt lat="59.3536556326" lon="34.6378480643"><ele>170.29</ele><time>2026-08-15T06:36:14Z</time></trkpt><trkpt lat="59.3536616676" lon="34.6378155425"><ele>169.33</ele><time>2026-08-15T06:36:16Z</time></trkpt><trkpt lat="59.3537059240" lon="34.6376759000"><ele>169.33</ele><time>2026-08-15T06:36:28Z</time></trkpt><trkpt lat="59.3537815288" lon="34.6375034843"><ele>169.33</ele><time>2026-08-15T06:36:44Z</time></trkpt><trkpt lat="59.3537927605" lon="34.6373966150"><ele>169.33</ele><time>2026-08-15T06:36:52Z</time></trkpt><trkpt lat="59.3538205046" lon="34.6373378579"><ele>169.33</ele><time>2026-08-15T06:37:07Z</time></trkpt><trkpt lat="59.3538344186" lon="34.6372932661"><ele>169.33</ele><time>2026-08-15T06:37:21Z</time></trkpt><trkpt lat="59.3538308982" lon="34.6372930147"><ele>168.85</ele><time>2026-08-15T06:37:42Z</time></trkpt><trkpt lat="59.3538323231" lon="34.6372868121"><ele>168.85</ele><time>2026-08-15T06:38:16Z</time></trkpt><trkpt lat="59.3538314849" lon="34.6372552961"><ele>170.77</ele><time>2026-08-15T06:38:34Z</time></trkpt><trkpt lat="59.3538326584" lon="34.6372420527"><ele>169.33</ele><time>2026-08-15T06:38:41Z</time></trkpt><trkpt lat="59.3538343348" lon="34.6372450702"><ele>169.33</ele><time>2026-08-15T06:39:03Z</time></trkpt><trkpt lat="59.3538387772" lon="34.6372440644"><ele>169.33</ele><time>2026-08-15T06:39:26Z</time></trkpt><trkpt lat="59.3538397830" lon="34.6372352634"><ele>170.29</ele><time>2026-08-15T06:39:37Z</time></trkpt><trkpt lat="59.3538413756" lon="34.6372280549"><ele>165.48</ele><time>2026-08-15T06:39:42Z</time></trkpt><trkpt lat="59.3538418785" lon="34.6372272167"><ele>171.25</ele><time>2026-08-15T06:39:43Z</time></trkpt><trkpt lat="59.3538432196" lon="34.6372293122"><ele>170.77</ele><time>2026-08-15T06:39:53Z</time></trkpt><trkpt lat="59.3538430519" lon="34.6372325812"><ele>169.33</ele><time>2026-08-15T06:40:00Z</time></trkpt><trkpt lat="59.3538438901" lon="34.6372351795"><ele>171.25</ele><time>2026-08-15T06:40:06Z</time></trkpt><trkpt lat="59.3537740689" lon="34.6372874826"><ele>168.85</ele><time>2026-08-15T06:40:20Z</time></trkpt><trkpt lat="59.3537178263" lon="34.6372801065"><ele>168.85</ele><time>2026-08-15T06:40:33Z</time></trkpt><trkpt lat="59.3536853045" lon="34.6373297274"><ele>168.85</ele><time>2026-08-15T06:40:46Z</time></trkpt><trkpt lat="59.3536504358" lon="34.6373590641"><ele>170.29</ele><time>2026-08-15T06:40:52Z</time></trkpt><trkpt lat="59.3536013179" lon="34.6374055836"><ele>170.29</ele><time>2026-08-15T06:41:04Z</time></trkpt><trkpt lat="59.3535299879" lon="34.6373884007"><ele>169.33</ele><time>2026-08-15T06:41:18Z</time></trkpt><trkpt lat="59.3535229471" lon="34.6373888198"><ele>169.33</ele><time>2026-08-15T06:41:20Z</time></trkpt><trkpt lat="59.3534716498" lon="34.6373766661"><ele>169.33</ele><time>2026-08-15T06:41:27Z</time></trkpt><trkpt lat="59.3534284830" lon="34.6373502631"><ele>169.33</ele><time>2026-08-15T06:41:41Z</time></trkpt><trkpt lat="59.3534232862" lon="34.6373288892"><ele>169.33</ele><time>2026-08-15T06:41:54Z</time></trkpt><trkpt lat="59.3534131441" lon="34.6373214293"><ele>170.29</ele><time>2026-08-15T06:41:58Z</time></trkpt><trkpt lat="59.3533814605" lon="34.6373143885"><ele>170.29</ele><time>2026-08-15T06:42:11Z</time></trkpt><trkpt lat="59.3533714861" lon="34.6372998040"><ele>169.33</ele><time>2026-08-15T06:42:22Z</time></trkpt><trkpt lat="59.3533563148" lon="34.6373007260"><ele>169.33</ele><time>2026-08-15T06:42:36Z</time></trkpt><trkpt lat="59.3533440772" lon="34.6373104490"><ele>169.33</ele><time>2026-08-15T06:42:48Z</time></trkpt><trkpt lat="59.3532679696" lon="34.6372968704"><ele>169.33</ele><time>2026-08-15T06:43:01Z</time></trkpt><trkpt lat="59.3531787023" lon="34.6372871473"><ele>168.85</ele><time>2026-08-15T06:43:15Z</time></trkpt><trkpt lat="59.3531368766" lon="34.6373093594"><ele>168.85</ele><time>2026-08-15T06:43:36Z</time></trkpt><trkpt lat="59.3531226274" lon="34.6373070125"><ele>170.77</ele><time>2026-08-15T06:43:45Z</time></trkpt><trkpt lat="59.3531197775" lon="34.6373147238"><ele>167.41</ele><time>2026-08-15T06:43:51Z</time></trkpt><trkpt lat="59.3531192746" lon="34.6373159811"><ele>170.77</ele><time>2026-08-15T06:43:52Z</time></trkpt><trkpt lat="59.3531193584" lon="34.6373167355"><ele>170.77</ele><time>2026-08-15T06:43:53Z</time></trkpt><trkpt lat="59.3531188555" lon="34.6373181604"><ele>169.33</ele><time>2026-08-15T06:43:55Z</time></trkpt><trkpt lat="59.3531165086" lon="34.6373237763"><ele>168.85</ele><time>2026-08-15T06:44:00Z</time></trkpt><trkpt lat="59.3531131558" lon="34.6373267937"><ele>170.29</ele><time>2026-08-15T06:44:07Z</time></trkpt><trkpt lat="59.3530937936" lon="34.6373394504"><ele>168.85</ele><time>2026-08-15T06:44:32Z</time></trkpt><trkpt lat="59.3530832324" lon="34.6373336669"><ele>168.85</ele><time>2026-08-15T06:45:00Z</time></trkpt><trkpt lat="59.3530813884" lon="34.6373327449"><ele>170.29</ele><time>2026-08-15T06:45:04Z</time></trkpt><trkpt lat="59.3530777842" lon="34.6373349242"><ele>169.81</ele><time>2026-08-15T06:45:10Z</time></trkpt><trkpt lat="59.3530613557" lon="34.6373347566"><ele>169.81</ele><time>2026-08-15T06:45:23Z</time></trkpt><trkpt lat="59.3530005030" lon="34.6374106128"><ele>168.37</ele><time>2026-08-15T06:45:35Z</time></trkpt><trkpt lat="59.3529397342" lon="34.6374647599"><ele>168.37</ele><time>2026-08-15T06:45:46Z</time></trkpt><trkpt lat="59.3528802227" lon="34.6375267860"><ele>168.37</ele><time>2026-08-15T06:45:58Z</time></trkpt><trkpt lat="59.3528504670" lon="34.6375306416"><ele>169.33</ele><time>2026-08-15T06:46:09Z</time></trkpt><trkpt lat="59.3527886923" lon="34.6376014687"><ele>169.81</ele><time>2026-08-15T06:46:22Z</time></trkpt><trkpt lat="59.3527378142" lon="34.6376434620"><ele>169.81</ele><time>2026-08-15T06:46:35Z</time></trkpt><trkpt lat="59.3527172785" lon="34.6376515087"><ele>169.81</ele><time>2026-08-15T06:46:50Z</time></trkpt><trkpt lat="59.3526188750" lon="34.6377173904"><ele>169.81</ele><time>2026-08-15T06:47:04Z</time></trkpt><trkpt lat="59.3526119180" lon="34.6377198212"><ele>169.81</ele><time>2026-08-15T06:47:05Z</time></trkpt><trkpt lat="59.3525498081" lon="34.6377313044"><ele>168.37</ele><time>2026-08-15T06:47:19Z</time></trkpt><trkpt lat="59.3524712697" lon="34.6378086694"><ele>168.37</ele><time>2026-08-15T06:47:33Z</time></trkpt><trkpt lat="59.3524301145" lon="34.6378563624"><ele>168.37</ele><time>2026-08-15T06:47:44Z</time></trkpt><trkpt lat="59.3524021190" lon="34.6378924046"><ele>167.89</ele><time>2026-08-15T06:47:56Z</time></trkpt><trkpt lat="59.3523892108" lon="34.6379156224"><ele>167.89</ele><time>2026-08-15T06:48:17Z</time></trkpt><trkpt lat="59.3523794040" lon="34.6379336435"><ele>167.89</ele><time>2026-08-15T06:48:41Z</time></trkpt><trkpt lat="59.3523683399" lon="34.6379302908"><ele>169.33</ele><time>2026-08-15T06:48:56Z</time></trkpt><trkpt lat="59.3523286097" lon="34.6379433665"><ele>167.89</ele><time>2026-08-15T06:49:26Z</time></trkpt><trkpt lat="59.3523105886" lon="34.6379619744"><ele>167.89</ele><time>2026-08-15T06:49:51Z</time></trkpt><trkpt lat="59.3522485625" lon="34.6380059794"><ele>167.89</ele><time>2026-08-15T06:50:03Z</time></trkpt><trkpt lat="59.3522484787" lon="34.6380163729"><ele>167.89</ele><time>2026-08-15T06:50:21Z</time></trkpt><trkpt lat="59.3521767296" lon="34.6380997729"><ele>167.89</ele><time>2026-08-15T06:50:35Z</time></trkpt><trkpt lat="59.3520341534" lon="34.6380851045"><ele>167.89</ele><time>2026-08-15T06:50:49Z</time></trkpt><trkpt lat="59.3519889750" lon="34.6380611323"><ele>167.89</ele><time>2026-08-15T06:51:03Z</time></trkpt><trkpt lat="59.3518948462" lon="34.6380175464"><ele>167.89</ele><time>2026-08-15T06:51:16Z</time></trkpt><trkpt lat="59.3518103566" lon="34.6379886288"><ele>167.89</ele><time>2026-08-15T06:51:30Z</time></trkpt><trkpt lat="59.3517450616" lon="34.6379408520"><ele>167.89</ele><time>2026-08-15T06:51:42Z</time></trkpt><trkpt lat="59.3516448978" lon="34.6378799994"><ele>167.89</ele><time>2026-08-15T06:51:56Z</time></trkpt><trkpt lat="59.3515815306" lon="34.6378622297"><ele>167.89</ele><time>2026-08-15T06:52:10Z</time></trkpt><trkpt lat="59.3515286408" lon="34.6378562786"><ele>167.89</ele><time>2026-08-15T06:52:27Z</time></trkpt><trkpt lat="59.3514135573" lon="34.6378000360"><ele>167.89</ele><time>2026-08-15T06:52:41Z</time></trkpt><trkpt lat="59.3513136450" lon="34.6377737168"><ele>167.89</ele><time>2026-08-15T06:52:54Z</time></trkpt><trkpt lat="59.3512789439" lon="34.6377716213"><ele>167.89</ele><time>2026-08-15T06:53:13Z</time></trkpt><trkpt lat="59.3512695562" lon="34.6377805900"><ele>167.89</ele><time>2026-08-15T06:53:40Z</time></trkpt><trkpt lat="59.3512586597" lon="34.6377699450"><ele>167.89</ele><time>2026-08-15T06:54:09Z</time></trkpt><trkpt lat="59.3512423150" lon="34.6378510818"><ele>167.89</ele><time>2026-08-15T06:54:38Z</time></trkpt><trkpt lat="59.3512418121" lon="34.6378707793"><ele>167.89</ele><time>2026-08-15T06:54:39Z</time></trkpt><trkpt lat="59.3512458354" lon="34.6379315481"><ele>167.89</ele><time>2026-08-15T06:54:42Z</time></trkpt><trkpt lat="59.3512331787" lon="34.6381525788"><ele>167.89</ele><time>2026-08-15T06:54:54Z</time></trkpt><trkpt lat="59.3512262218" lon="34.6382218972"><ele>167.89</ele><time>2026-08-15T06:55:09Z</time></trkpt><trkpt lat="59.3512262218" lon="34.6382318716"><ele>168.37</ele><time>2026-08-15T06:55:39Z</time></trkpt><trkpt lat="59.3512154091" lon="34.6382264234"><ele>167.41</ele><time>2026-08-15T06:56:05Z</time></trkpt><trkpt lat="59.3512025010" lon="34.6382091567"><ele>168.37</ele><time>2026-08-15T06:56:29Z</time></trkpt><trkpt lat="59.3512195162" lon="34.6382016968"><ele>169.33</ele><time>2026-08-15T06:56:45Z</time></trkpt><trkpt lat="59.3512170855" lon="34.6382088214"><ele>169.33</ele><time>2026-08-15T06:57:00Z</time></trkpt><trkpt lat="59.3511718232" lon="34.6381780598"><ele>169.33</ele><time>2026-08-15T06:57:13Z</time></trkpt><trkpt lat="59.3510993198" lon="34.6381592005"><ele>169.33</ele><time>2026-08-15T06:57:32Z</time></trkpt><trkpt lat="59.3510191049" lon="34.6382329613"><ele>169.33</ele><time>2026-08-15T06:57:45Z</time></trkpt><trkpt lat="59.3508861680" lon="34.6383072250"><ele>169.33</ele><time>2026-08-15T06:57:59Z</time></trkpt><trkpt lat="59.3507987447" lon="34.6383944806"><ele>169.33</ele><time>2026-08-15T06:58:14Z</time></trkpt><trkpt lat="59.3507554941" lon="34.6383872721"><ele>169.33</ele><time>2026-08-15T06:58:29Z</time></trkpt><trkpt lat="59.3506679032" lon="34.6383645572"><ele>169.33</ele><time>2026-08-15T06:58:42Z</time></trkpt><trkpt lat="59.3505571783" lon="34.6383622102"><ele>169.33</ele><time>2026-08-15T06:58:55Z</time></trkpt><trkpt lat="59.3505385704" lon="34.6383699216"><ele>169.33</ele><time>2026-08-15T06:58:57Z</time></trkpt><trkpt lat="59.3504909612" lon="34.6383405849"><ele>169.33</ele><time>2026-08-15T06:59:09Z</time></trkpt><trkpt lat="59.3504770473" lon="34.6383195464"><ele>168.37</ele><time>2026-08-15T06:59:29Z</time></trkpt><trkpt lat="59.3504283484" lon="34.6383291855"><ele>168.37</ele><time>2026-08-15T06:59:38Z</time></trkpt><trkpt lat="59.3503231555" lon="34.6383132599"><ele>168.37</ele><time>2026-08-15T06:59:53Z</time></trkpt><trkpt lat="59.3502561003" lon="34.6383503918"><ele>169.33</ele><time>2026-08-15T07:00:04Z</time></trkpt><trkpt lat="59.3502039649" lon="34.6383650601"><ele>169.33</ele><time>2026-08-15T07:00:20Z</time></trkpt><trkpt lat="59.3501700182" lon="34.6383978333"><ele>169.33</ele><time>2026-08-15T07:00:43Z</time></trkpt><trkpt lat="59.3501581997" lon="34.6383980848"><ele>169.33</ele><time>2026-08-15T07:01:16Z</time></trkpt><trkpt lat="59.3501144461" lon="34.6383765433"><ele>169.33</ele><time>2026-08-15T07:01:46Z</time></trkpt><trkpt lat="59.3500335608" lon="34.6383209713"><ele>169.33</ele><time>2026-08-15T07:01:59Z</time></trkpt><trkpt lat="59.3499286193" lon="34.6383679938"><ele>169.81</ele><time>2026-08-15T07:02:13Z</time></trkpt><trkpt lat="59.3499134481" lon="34.6383534092"><ele>170.29</ele><time>2026-08-15T07:02:39Z</time></trkpt><trkpt lat="59.3499122746" lon="34.6383473743"><ele>168.85</ele><time>2026-08-15T07:02:44Z</time></trkpt><trkpt lat="59.3499199022" lon="34.6383518167"><ele>168.85</ele><time>2026-08-15T07:03:13Z</time></trkpt><trkpt lat="59.3499199022" lon="34.6383612882"><ele>169.81</ele><time>2026-08-15T07:03:22Z</time></trkpt><trkpt lat="59.3499066588" lon="34.6383648086"><ele>169.81</ele><time>2026-08-15T07:03:53Z</time></trkpt><trkpt lat="59.3498969357" lon="34.6383990906"><ele>170.29</ele><time>2026-08-15T07:04:09Z</time></trkpt><trkpt lat="59.3498920742" lon="34.6384051256"><ele>170.29</ele><time>2026-08-15T07:04:26Z</time></trkpt><trkpt lat="59.3498886377" lon="34.6383934747"><ele>168.85</ele><time>2026-08-15T07:04:55Z</time></trkpt><trkpt lat="59.3498920742" lon="34.6383884456"><ele>168.85</ele><time>2026-08-15T07:05:20Z</time></trkpt><trkpt lat="59.3498835247" lon="34.6383847576"><ele>168.37</ele><time>2026-08-15T07:05:43Z</time></trkpt><trkpt lat="59.3498724606" lon="34.6383864339"><ele>168.37</ele><time>2026-08-15T07:06:07Z</time></trkpt><trkpt lat="59.3498739693" lon="34.6383900382"><ele>168.37</ele><time>2026-08-15T07:06:30Z</time></trkpt><trkpt lat="59.3498770706" lon="34.6383993421"><ele>168.37</ele><time>2026-08-15T07:06:45Z</time></trkpt><trkpt lat="59.3498799205" lon="34.6384062991"><ele>168.37</ele><time>2026-08-15T07:06:52Z</time></trkpt><trkpt lat="59.3498799205" lon="34.6384115797"><ele>173.17</ele><time>2026-08-15T07:06:55Z</time></trkpt><trkpt lat="59.3498795014" lon="34.6384121664"><ele>171.25</ele><time>2026-08-15T07:06:56Z</time></trkpt><trkpt lat="59.3498825189" lon="34.6384149324"><ele>172.21</ele><time>2026-08-15T07:07:02Z</time></trkpt><trkpt lat="59.3498788308" lon="34.6384119149"><ele>166.45</ele><time>2026-08-15T07:07:04Z</time></trkpt><trkpt lat="59.3498771545" lon="34.6384129208"><ele>172.69</ele><time>2026-08-15T07:07:06Z</time></trkpt><trkpt lat="59.3498770706" lon="34.6384144295"><ele>172.69</ele><time>2026-08-15T07:07:07Z</time></trkpt><trkpt lat="59.3498784956" lon="34.6384179499"><ele>169.81</ele><time>2026-08-15T07:07:10Z</time></trkpt><trkpt lat="59.3498720415" lon="34.6384099033"><ele>169.81</ele><time>2026-08-15T07:07:33Z</time></trkpt><trkpt lat="59.3498690240" lon="34.6384247392"><ele>169.81</ele><time>2026-08-15T07:07:54Z</time></trkpt><trkpt lat="59.3498638272" lon="34.6384122502"><ele>169.81</ele><time>2026-08-15T07:08:14Z</time></trkpt><trkpt lat="59.3498836085" lon="34.6381903812"><ele>169.81</ele><time>2026-08-15T07:08:30Z</time></trkpt><trkpt lat="59.3498877157" lon="34.6379693504"><ele>169.81</ele><time>2026-08-15T07:08:43Z</time></trkpt><trkpt lat="59.3498735502" lon="34.6376904007"><ele>169.81</ele><time>2026-08-15T07:08:57Z</time></trkpt><trkpt lat="59.3498797528" lon="34.6375333238"><ele>169.81</ele><time>2026-08-15T07:09:12Z</time></trkpt><trkpt lat="59.3498742208" lon="34.6373013128"><ele>169.81</ele><time>2026-08-15T07:09:24Z</time></trkpt><trkpt lat="59.3498898111" lon="34.6370663680"><ele>169.81</ele><time>2026-08-15T07:09:37Z</time></trkpt><trkpt lat="59.3498701975" lon="34.6368760150"><ele>169.81</ele><time>2026-08-15T07:09:50Z</time></trkpt><trkpt lat="59.3498900626" lon="34.6367838979"><ele>169.81</ele><time>2026-08-15T07:10:03Z</time></trkpt><trkpt lat="59.3498743884" lon="34.6367642004"><ele>168.85</ele><time>2026-08-15T07:10:20Z</time></trkpt><trkpt lat="59.3498101830" lon="34.6366037708"><ele>173.17</ele><time>2026-08-15T07:10:30Z</time></trkpt><trkpt lat="59.3498081714" lon="34.6365929581"><ele>170.77</ele><time>2026-08-15T07:10:31Z</time></trkpt><trkpt lat="59.3497936707" lon="34.6365792956"><ele>169.33</ele><time>2026-08-15T07:10:45Z</time></trkpt><trkpt lat="59.3497963529" lon="34.6365699079"><ele>169.33</ele><time>2026-08-15T07:11:07Z</time></trkpt><trkpt lat="59.3497977778" lon="34.6365621127"><ele>168.85</ele><time>2026-08-15T07:11:40Z</time></trkpt><trkpt lat="59.3497972749" lon="34.6365761105"><ele>170.29</ele><time>2026-08-15T07:12:00Z</time></trkpt><trkpt lat="59.3497926649" lon="34.6365740150"><ele>169.33</ele><time>2026-08-15T07:12:08Z</time></trkpt><trkpt lat="59.3497893959" lon="34.6365652978"><ele>170.29</ele><time>2026-08-15T07:12:28Z</time></trkpt><trkpt lat="59.3498002924" lon="34.6365683991"><ele>168.85</ele><time>2026-08-15T07:12:33Z</time></trkpt><trkpt lat="59.3498963490" lon="34.6365678962"><ele>168.85</ele><time>2026-08-15T07:12:48Z</time></trkpt><trkpt lat="59.3499862030" lon="34.6364489570"><ele>168.85</ele><time>2026-08-15T07:13:02Z</time></trkpt><trkpt lat="59.3500588741" lon="34.6363737714"><ele>168.85</ele><time>2026-08-15T07:13:15Z</time></trkpt><trkpt lat="59.3501422741" lon="34.6363451052"><ele>168.85</ele><time>2026-08-15T07:13:29Z</time></trkpt><trkpt lat="59.3502364028" lon="34.6362568438"><ele>168.85</ele><time>2026-08-15T07:13:43Z</time></trkpt><trkpt lat="59.3503291067" lon="34.6362355538"><ele>168.85</ele><time>2026-08-15T07:13:58Z</time></trkpt><trkpt lat="59.3504104111" lon="34.6361857653"><ele>168.85</ele><time>2026-08-15T07:14:12Z</time></trkpt><trkpt lat="59.3505136762" lon="34.6362067200"><ele>168.85</ele><time>2026-08-15T07:14:27Z</time></trkpt><trkpt lat="59.3505886942" lon="34.6361743659"><ele>169.81</ele><time>2026-08-15T07:14:41Z</time></trkpt><trkpt lat="59.3506633770" lon="34.6361472085"><ele>169.33</ele><time>2026-08-15T07:14:53Z</time></trkpt><trkpt lat="59.3507116567" lon="34.6360995155"><ele>169.33</ele><time>2026-08-15T07:15:06Z</time></trkpt><trkpt lat="59.3507753592" lon="34.6360483021"><ele>169.33</ele><time>2026-08-15T07:15:19Z</time></trkpt><trkpt lat="59.3508144189" lon="34.6360209771"><ele>169.33</ele><time>2026-08-15T07:15:31Z</time></trkpt><trkpt lat="59.3509085476" lon="34.6359925624"><ele>169.33</ele><time>2026-08-15T07:15:45Z</time></trkpt><trkpt lat="59.3509515468" lon="34.6359668300"><ele>169.33</ele><time>2026-08-15T07:16:02Z</time></trkpt><trkpt lat="59.3509567436" lon="34.6359630581"><ele>169.33</ele><time>2026-08-15T07:16:17Z</time></trkpt><trkpt lat="59.3509562407" lon="34.6359689254"><ele>170.29</ele><time>2026-08-15T07:16:43Z</time></trkpt><trkpt lat="59.3509810511" lon="34.6359773073"><ele>170.29</ele><time>2026-08-15T07:17:15Z</time></trkpt><trkpt lat="59.3510201946" lon="34.6359755471"><ele>170.77</ele><time>2026-08-15T07:17:39Z</time></trkpt><trkpt lat="59.3510521296" lon="34.6359799895"><ele>169.81</ele><time>2026-08-15T07:17:56Z</time></trkpt><trkpt lat="59.3510621041" lon="34.6359808277"><ele>169.81</ele><time>2026-08-15T07:18:14Z</time></trkpt><trkpt lat="59.3511186820" lon="34.6359661594"><ele>169.81</ele><time>2026-08-15T07:18:31Z</time></trkpt><trkpt lat="59.3511564843" lon="34.6359506529"><ele>169.33</ele><time>2026-08-15T07:18:43Z</time></trkpt><trkpt lat="59.3512269761" lon="34.6359104197"><ele>169.33</ele><time>2026-08-15T07:18:55Z</time></trkpt><trkpt lat="59.3512794469" lon="34.6359209809"><ele>169.33</ele><time>2026-08-15T07:19:07Z</time></trkpt><trkpt lat="59.3513601646" lon="34.6359291952"><ele>169.33</ele><time>2026-08-15T07:19:19Z</time></trkpt><trkpt lat="59.3514370266" lon="34.6359560173"><ele>169.33</ele><time>2026-08-15T07:19:31Z</time></trkpt><trkpt lat="59.3515587319" lon="34.6359031275"><ele>169.33</ele><time>2026-08-15T07:19:47Z</time></trkpt><trkpt lat="59.3516136333" lon="34.6359091625"><ele>169.33</ele><time>2026-08-15T07:20:01Z</time></trkpt><trkpt lat="59.3516246974" lon="34.6359029599"><ele>169.33</ele><time>2026-08-15T07:20:29Z</time></trkpt><trkpt lat="59.3516445626" lon="34.6359019540"><ele>170.29</ele><time>2026-08-15T07:21:07Z</time></trkpt><trkpt lat="59.3516643438" lon="34.6359151974"><ele>170.29</ele><time>2026-08-15T07:21:40Z</time></trkpt><trkpt lat="59.3516992964" lon="34.6358698513"><ele>170.29</ele><time>2026-08-15T07:21:54Z</time></trkpt><trkpt lat="59.3517896533" lon="34.6357814223"><ele>169.33</ele><time>2026-08-15T07:22:10Z</time></trkpt><trkpt lat="59.3518005498" lon="34.6357629821"><ele>170.29</ele><time>2026-08-15T07:22:14Z</time></trkpt><trkpt lat="59.3518300541" lon="34.6357642394"><ele>170.29</ele><time>2026-08-15T07:22:27Z</time></trkpt><trkpt lat="59.3518955167" lon="34.6357275266"><ele>170.29</ele><time>2026-08-15T07:22:42Z</time></trkpt><trkpt lat="59.3519873824" lon="34.6357196476"><ele>170.29</ele><time>2026-08-15T07:22:56Z</time></trkpt><trkpt lat="59.3520225864" lon="34.6357087512"><ele>170.29</ele><time>2026-08-15T07:23:11Z</time></trkpt><trkpt lat="59.3520957604" lon="34.6356857009"><ele>170.77</ele><time>2026-08-15T07:23:28Z</time></trkpt><trkpt lat="59.3521791603" lon="34.6356512513"><ele>170.77</ele><time>2026-08-15T07:23:42Z</time></trkpt><trkpt lat="59.3522808328" lon="34.6356534306"><ele>170.77</ele><time>2026-08-15T07:23:56Z</time></trkpt><trkpt lat="59.3524421006" lon="34.6355530992"><ele>170.77</ele><time>2026-08-15T07:24:08Z</time></trkpt><trkpt lat="59.3524700124" lon="34.6355687734"><ele>170.77</ele><time>2026-08-15T07:24:21Z</time></trkpt><trkpt lat="59.3524669949" lon="34.6355419513"><ele>170.77</ele><time>2026-08-15T07:24:40Z</time></trkpt><trkpt lat="59.3524687551" lon="34.6355579607"><ele>170.77</ele><time>2026-08-15T07:25:12Z</time></trkpt><trkpt lat="59.3524754606" lon="34.6355831902"><ele>171.25</ele><time>2026-08-15T07:25:43Z</time></trkpt><trkpt lat="59.3524737842" lon="34.6355882194"><ele>169.81</ele><time>2026-08-15T07:26:08Z</time></trkpt><trkpt lat="59.3524715211" lon="34.6355904825"><ele>169.81</ele><time>2026-08-15T07:26:39Z</time></trkpt><trkpt lat="59.3524609599" lon="34.6355837770"><ele>171.25</ele><time>2026-08-15T07:26:58Z</time></trkpt><trkpt lat="59.3524872791" lon="34.6355615649"><ele>171.25</ele><time>2026-08-15T07:27:10Z</time></trkpt><trkpt lat="59.3524994329" lon="34.6355263609"><ele>171.25</ele><time>2026-08-15T07:27:24Z</time></trkpt><trkpt lat="59.3525651470" lon="34.6354940068"><ele>171.25</ele><time>2026-08-15T07:27:40Z</time></trkpt><trkpt lat="59.3526798952" lon="34.6354744770"><ele>170.29</ele><time>2026-08-15T07:27:54Z</time></trkpt><trkpt lat="59.3527881894" lon="34.6354118641"><ele>169.33</ele><time>2026-08-15T07:28:09Z</time></trkpt><trkpt lat="59.3528655544" lon="34.6354185697"><ele>169.33</ele><time>2026-08-15T07:28:21Z</time></trkpt><trkpt lat="59.3529623654" lon="34.6354100201"><ele>169.33</ele><time>2026-08-15T07:28:36Z</time></trkpt><trkpt lat="59.3529678974" lon="34.6354137920"><ele>169.33</ele><time>2026-08-15T07:28:37Z</time></trkpt><trkpt lat="59.3530597631" lon="34.6354344953"><ele>170.77</ele><time>2026-08-15T07:28:48Z</time></trkpt><trkpt lat="59.3531374633" lon="34.6354469005"><ele>170.77</ele><time>2026-08-15T07:29:03Z</time></trkpt><trkpt lat="59.3531449232" lon="34.6354313102"><ele>170.77</ele><time>2026-08-15T07:29:17Z</time></trkpt><trkpt lat="59.3532139063" lon="34.6354245208"><ele>170.77</ele><time>2026-08-15T07:29:32Z</time></trkpt><trkpt lat="59.3532672152" lon="34.6354436316"><ele>170.77</ele><time>2026-08-15T07:29:46Z</time></trkpt><trkpt lat="59.3533431552" lon="34.6354919951"><ele>170.77</ele><time>2026-08-15T07:29:58Z</time></trkpt><trkpt lat="59.3533941172" lon="34.6355544403"><ele>170.77</ele><time>2026-08-15T07:30:13Z</time></trkpt><trkpt lat="59.3534179218" lon="34.6355834417"><ele>169.33</ele><time>2026-08-15T07:30:30Z</time></trkpt><trkpt lat="59.3534336798" lon="34.6355878841"><ele>169.33</ele><time>2026-08-15T07:30:51Z</time></trkpt><trkpt lat="59.3534345180" lon="34.6356026363"><ele>169.33</ele><time>2026-08-15T07:31:35Z</time></trkpt><trkpt lat="59.3534503598" lon="34.6356173046"><ele>169.33</ele><time>2026-08-15T07:31:56Z</time></trkpt><trkpt lat="59.3535656948" lon="34.6356442105"><ele>169.33</ele><time>2026-08-15T07:32:10Z</time></trkpt><trkpt lat="59.3536480889" lon="34.6357170492"><ele>169.33</ele><time>2026-08-15T07:32:24Z</time></trkpt><trkpt lat="59.3537065107" lon="34.6357479785"><ele>169.33</ele><time>2026-08-15T07:32:38Z</time></trkpt><trkpt lat="59.3538484164" lon="34.6358117647"><ele>169.33</ele><time>2026-08-15T07:32:53Z</time></trkpt><trkpt lat="59.3539158069" lon="34.6358571108"><ele>170.29</ele><time>2026-08-15T07:33:02Z</time></trkpt><trkpt lat="59.3539875560" lon="34.6358460467"><ele>169.33</ele><time>2026-08-15T07:33:14Z</time></trkpt><trkpt lat="59.3541074172" lon="34.6358200628"><ele>169.33</ele><time>2026-08-15T07:33:29Z</time></trkpt><trkpt lat="59.3541919906" lon="34.6357681789"><ele>171.25</ele><time>2026-08-15T07:33:43Z</time></trkpt><trkpt lat="59.3541977741" lon="34.6357617248"><ele>171.73</ele><time>2026-08-15T07:34:08Z</time></trkpt><trkpt lat="59.3542002048" lon="34.6357618086"><ele>170.29</ele><time>2026-08-15T07:34:10Z</time></trkpt><trkpt lat="59.3541997019" lon="34.6357572824"><ele>171.73</ele><time>2026-08-15T07:34:42Z</time></trkpt><trkpt lat="59.3542059045" lon="34.6357185580"><ele>171.73</ele><time>2026-08-15T07:35:05Z</time></trkpt><trkpt lat="59.3541987799" lon="34.6357151214"><ele>171.73</ele><time>2026-08-15T07:35:32Z</time></trkpt><trkpt lat="59.3542019650" lon="34.6357162111"><ele>171.73</ele><time>2026-08-15T07:35:57Z</time></trkpt><trkpt lat="59.3541830219" lon="34.6356329788"><ele>172.21</ele><time>2026-08-15T07:36:10Z</time></trkpt><trkpt lat="59.3541791663" lon="34.6355539374"><ele>172.21</ele><time>2026-08-15T07:36:22Z</time></trkpt><trkpt lat="59.3541500811" lon="34.6354043204"><ele>172.69</ele><time>2026-08-15T07:36:35Z</time></trkpt><trkpt lat="59.3541188166" lon="34.6352205891"><ele>172.69</ele><time>2026-08-15T07:36:48Z</time></trkpt><trkpt lat="59.3540924974" lon="34.6351086069"><ele>172.69</ele><time>2026-08-15T07:36:59Z</time></trkpt><trkpt lat="59.3540914077" lon="34.6350705530"><ele>172.69</ele><time>2026-08-15T07:37:12Z</time></trkpt><trkpt lat="59.3540651724" lon="34.6350170765"><ele>172.69</ele><time>2026-08-15T07:37:25Z</time></trkpt><trkpt lat="59.3540516775" lon="34.6349560563"><ele>172.69</ele><time>2026-08-15T07:37:36Z</time></trkpt><trkpt lat="59.3540386017" lon="34.6348822955"><ele>173.17</ele><time>2026-08-15T07:37:44Z</time></trkpt><trkpt lat="59.3540094327" lon="34.6347029228"><ele>173.17</ele><time>2026-08-15T07:37:57Z</time></trkpt><trkpt lat="59.3539818563" lon="34.6346068662"><ele>174.14</ele><time>2026-08-15T07:38:12Z</time></trkpt><trkpt lat="59.3539789226" lon="34.6345926169"><ele>172.69</ele><time>2026-08-15T07:38:15Z</time></trkpt><trkpt lat="59.3539626617" lon="34.6345455945"><ele>172.69</ele><time>2026-08-15T07:38:31Z</time></trkpt><trkpt lat="59.3539492507" lon="34.6345280763"><ele>172.69</ele><time>2026-08-15T07:38:49Z</time></trkpt><trkpt lat="59.3539463170" lon="34.6345106419"><ele>172.69</ele><time>2026-08-15T07:39:05Z</time></trkpt><trkpt lat="59.3539360911" lon="34.6344708279"><ele>174.14</ele><time>2026-08-15T07:39:19Z</time></trkpt><trkpt lat="59.3539260328" lon="34.6344290860"><ele>173.66</ele><time>2026-08-15T07:39:34Z</time></trkpt><trkpt lat="59.3539246079" lon="34.6344248112"><ele>173.66</ele><time>2026-08-15T07:39:36Z</time></trkpt><trkpt lat="59.3539200816" lon="34.6343946364"><ele>173.66</ele><time>2026-08-15T07:39:50Z</time></trkpt><trkpt lat="59.3539248593" lon="34.6343653835"><ele>173.66</ele><time>2026-08-15T07:40:05Z</time></trkpt><trkpt lat="59.3539140467" lon="34.6342826542"><ele>173.66</ele><time>2026-08-15T07:40:21Z</time></trkpt><trkpt lat="59.3538926728" lon="34.6341855917"><ele>173.66</ele><time>2026-08-15T07:40:34Z</time></trkpt><trkpt lat="59.3538911641" lon="34.6341540758"><ele>173.66</ele><time>2026-08-15T07:40:44Z</time></trkpt><trkpt lat="59.3538779207" lon="34.6340928879"><ele>173.17</ele><time>2026-08-15T07:40:57Z</time></trkpt><trkpt lat="59.3538552895" lon="34.6340109967"><ele>173.17</ele><time>2026-08-15T07:41:14Z</time></trkpt><trkpt lat="59.3538385257" lon="34.6339395829"><ele>174.14</ele><time>2026-08-15T07:41:32Z</time></trkpt><trkpt lat="59.3538148887" lon="34.6338701807"><ele>174.14</ele><time>2026-08-15T07:41:58Z</time></trkpt><trkpt lat="59.3538078479" lon="34.6338172909"><ele>172.69</ele><time>2026-08-15T07:42:29Z</time></trkpt><trkpt lat="59.3538075965" lon="34.6338162851"><ele>174.14</ele><time>2026-08-15T07:42:30Z</time></trkpt><trkpt lat="59.3538038246" lon="34.6338108368"><ele>171.73</ele><time>2026-08-15T07:42:48Z</time></trkpt><trkpt lat="59.3537788466" lon="34.6338276006"><ele>170.29</ele><time>2026-08-15T07:43:01Z</time></trkpt><trkpt lat="59.3537564669" lon="34.6338214818"><ele>169.81</ele><time>2026-08-15T07:43:17Z</time></trkpt><trkpt lat="59.3537497614" lon="34.6338182129"><ele>171.25</ele><time>2026-08-15T07:43:22Z</time></trkpt><trkpt lat="59.3537433073" lon="34.6338229906"><ele>169.81</ele><time>2026-08-15T07:43:28Z</time></trkpt><trkpt lat="59.3537189998" lon="34.6338241640"><ele>170.77</ele><time>2026-08-15T07:43:49Z</time></trkpt><trkpt lat="59.3536539562" lon="34.6337734535"><ele>170.77</ele><time>2026-08-15T07:44:00Z</time></trkpt><trkpt lat="59.3536104541" lon="34.6337488107"><ele>170.77</ele><time>2026-08-15T07:44:15Z</time></trkpt><trkpt lat="59.3535911757" lon="34.6337566897"><ele>169.33</ele><time>2026-08-15T07:44:32Z</time></trkpt><trkpt lat="59.3535819557" lon="34.6337701008"><ele>169.33</ele><time>2026-08-15T07:44:50Z</time></trkpt><trkpt lat="59.3535812851" lon="34.6337804105"><ele>169.33</ele><time>2026-08-15T07:45:17Z</time></trkpt><trkpt lat="59.3535332568" lon="34.6337619703"><ele>170.77</ele><time>2026-08-15T07:45:34Z</time></trkpt><trkpt lat="59.3534664530" lon="34.6337736212"><ele>171.25</ele><time>2026-08-15T07:45:47Z</time></trkpt><trkpt lat="59.3534200173" lon="34.6338745393"><ele>171.25</ele><time>2026-08-15T07:45:59Z</time></trkpt><trkpt lat="59.3533852324" lon="34.6338421851"><ele>171.25</ele><time>2026-08-15T07:46:12Z</time></trkpt><trkpt lat="59.3533441611" lon="34.6339041274"><ele>171.25</ele><time>2026-08-15T07:46:27Z</time></trkpt><trkpt lat="59.3532692268" lon="34.6339490544"><ele>171.25</ele><time>2026-08-15T07:46:46Z</time></trkpt><trkpt lat="59.3531907722" lon="34.6340114996"><ele>171.25</ele><time>2026-08-15T07:46:59Z</time></trkpt><trkpt lat="59.3531491142" lon="34.6340367291"><ele>171.25</ele><time>2026-08-15T07:47:17Z</time></trkpt><trkpt lat="59.3531010859" lon="34.6340393275"><ele>171.25</ele><time>2026-08-15T07:47:34Z</time></trkpt><trkpt lat="59.3530367129" lon="34.6340547502"><ele>171.25</ele><time>2026-08-15T07:47:48Z</time></trkpt><trkpt lat="59.3529429194" lon="34.6340808179"><ele>170.29</ele><time>2026-08-15T07:48:02Z</time></trkpt><trkpt lat="59.3529228028" lon="34.6340793092"><ele>170.29</ele><time>2026-08-15T07:48:17Z</time></trkpt><trkpt lat="59.3529215455" lon="34.6340690833"><ele>171.25</ele><time>2026-08-15T07:48:43Z</time></trkpt><trkpt lat="59.3528983276" lon="34.6340479609"><ele>171.25</ele><time>2026-08-15T07:49:18Z</time></trkpt><trkpt lat="59.3528875150" lon="34.6340473741"><ele>169.81</ele><time>2026-08-15T07:49:45Z</time></trkpt><trkpt lat="59.3528789654" lon="34.6340578515"><ele>169.33</ele><time>2026-08-15T07:50:14Z</time></trkpt><trkpt lat="59.3528796360" lon="34.6340645570"><ele>170.77</ele><time>2026-08-15T07:50:26Z</time></trkpt><trkpt lat="59.3529044464" lon="34.6341018565"><ele>167.89</ele><time>2026-08-15T07:50:45Z</time></trkpt><trkpt lat="59.3529044464" lon="34.6341017727"><ele>167.89</ele><time>2026-08-15T07:50:47Z</time></trkpt><trkpt lat="59.3529041950" lon="34.6341010183"><ele>172.69</ele><time>2026-08-15T07:50:48Z</time></trkpt><trkpt lat="59.3529041950" lon="34.6341061313"><ele>171.25</ele><time>2026-08-15T07:51:03Z</time></trkpt><trkpt lat="59.3529058713" lon="34.6341023594"><ele>171.25</ele><time>2026-08-15T07:51:24Z</time></trkpt><trkpt lat="59.3528937176" lon="34.6340961568"><ele>170.77</ele><time>2026-08-15T07:51:40Z</time></trkpt><trkpt lat="59.3528223038" lon="34.6340282634"><ele>170.77</ele><time>2026-08-15T07:51:52Z</time></trkpt><trkpt lat="59.3527518958" lon="34.6340180375"><ele>170.77</ele><time>2026-08-15T07:52:03Z</time></trkpt><trkpt lat="59.3526503071" lon="34.6340342984"><ele>170.77</ele><time>2026-08-15T07:52:19Z</time></trkpt><trkpt lat="59.3525630515" lon="34.6341097355"><ele>170.77</ele><time>2026-08-15T07:52:35Z</time></trkpt><trkpt lat="59.3525276799" lon="34.6341193747"><ele>170.77</ele><time>2026-08-15T07:52:57Z</time></trkpt><trkpt lat="59.3525094073" lon="34.6341021918"><ele>170.77</ele><time>2026-08-15T07:53:16Z</time></trkpt><trkpt lat="59.3525029533" lon="34.6341043711"><ele>170.77</ele><time>2026-08-15T07:53:18Z</time></trkpt><trkpt lat="59.3524596188" lon="34.6340855118"><ele>170.77</ele><time>2026-08-15T07:53:31Z</time></trkpt><trkpt lat="59.3524502311" lon="34.6340548340"><ele>170.77</ele><time>2026-08-15T07:53:54Z</time></trkpt><trkpt lat="59.3524400052" lon="34.6340425964"><ele>170.77</ele><time>2026-08-15T07:54:19Z</time></trkpt><trkpt lat="59.3524341378" lon="34.6340597793"><ele>170.77</ele><time>2026-08-15T07:54:42Z</time></trkpt><trkpt lat="59.3523494806" lon="34.6341362223"><ele>170.77</ele><time>2026-08-15T07:54:56Z</time></trkpt><trkpt lat="59.3522861972" lon="34.6341570094"><ele>170.77</ele><time>2026-08-15T07:55:08Z</time></trkpt><trkpt lat="59.3522220757" lon="34.6341629606"><ele>170.77</ele><time>2026-08-15T07:55:22Z</time></trkpt><trkpt lat="59.3521607202" lon="34.6341572609"><ele>171.73</ele><time>2026-08-15T07:55:35Z</time></trkpt><trkpt lat="59.3521191459" lon="34.6341612004"><ele>170.77</ele><time>2026-08-15T07:55:41Z</time></trkpt><trkpt lat="59.3520619813" lon="34.6341663972"><ele>170.77</ele><time>2026-08-15T07:55:55Z</time></trkpt><trkpt lat="59.3519795872" lon="34.6341406647"><ele>170.77</ele><time>2026-08-15T07:56:10Z</time></trkpt><trkpt lat="59.3519660085" lon="34.6341115795"><ele>170.77</ele><time>2026-08-15T07:56:26Z</time></trkpt><trkpt lat="59.3519451376" lon="34.6341147646"><ele>170.29</ele><time>2026-08-15T07:56:52Z</time></trkpt><trkpt lat="59.3519406114" lon="34.6341059636"><ele>170.29</ele><time>2026-08-15T07:57:18Z</time></trkpt><trkpt lat="59.3519246858" lon="34.6340888645"><ele>170.29</ele><time>2026-08-15T07:57:50Z</time></trkpt><trkpt lat="59.3519152142" lon="34.6340845060"><ele>172.21</ele><time>2026-08-15T07:58:14Z</time></trkpt><trkpt lat="59.3519182317" lon="34.6340989228"><ele>172.21</ele><time>2026-08-15T07:58:41Z</time></trkpt><trkpt lat="59.3519160524" lon="34.6341079753"><ele>172.21</ele><time>2026-08-15T07:58:49Z</time></trkpt><trkpt lat="59.3518775795" lon="34.6341764554"><ele>172.21</ele><time>2026-08-15T07:59:01Z</time></trkpt><trkpt lat="59.3518414535" lon="34.6342591848"><ele>172.21</ele><time>2026-08-15T07:59:18Z</time></trkpt><trkpt lat="59.3518170621" lon="34.6343157627"><ele>172.21</ele><time>2026-08-15T07:59:32Z</time></trkpt><trkpt lat="59.3517673574" lon="34.6343472786"><ele>172.21</ele><time>2026-08-15T07:59:48Z</time></trkpt><trkpt lat="59.3516499270" lon="34.6344284993"><ele>172.21</ele><time>2026-08-15T08:00:04Z</time></trkpt><trkpt lat="59.3515602406" lon="34.6344541479"><ele>172.21</ele><time>2026-08-15T08:00:16Z</time></trkpt><trkpt lat="59.3514452409" lon="34.6345395595"><ele>172.21</ele><time>2026-08-15T08:00:36Z</time></trkpt><trkpt lat="59.3513706420" lon="34.6345617715"><ele>172.21</ele><time>2026-08-15T08:00:49Z</time></trkpt><trkpt lat="59.3512979709" lon="34.6346165892"><ele>171.25</ele><time>2026-08-15T08:01:02Z</time></trkpt><trkpt lat="59.3512742501" lon="34.6346514579"><ele>171.25</ele><time>2026-08-15T08:01:16Z</time></trkpt><trkpt lat="59.3512724899" lon="34.6346626058"><ele>171.25</ele><time>2026-08-15T08:01:38Z</time></trkpt><trkpt lat="59.3512728252" lon="34.6346591692"><ele>171.25</ele><time>2026-08-15T08:02:05Z</time></trkpt><trkpt lat="59.3512527924" lon="34.6346479375"><ele>171.25</ele><time>2026-08-15T08:02:32Z</time></trkpt><trkpt lat="59.3511793669" lon="34.6346967202"><ele>171.25</ele><time>2026-08-15T08:02:57Z</time></trkpt><trkpt lat="59.3511354458" lon="34.6346967202"><ele>171.25</ele><time>2026-08-15T08:03:18Z</time></trkpt><trkpt lat="59.3511260580" lon="34.6346973069"><ele>170.77</ele><time>2026-08-15T08:03:40Z</time></trkpt><trkpt lat="59.3510868307" lon="34.6347091254"><ele>170.77</ele><time>2026-08-15T08:03:54Z</time></trkpt><trkpt lat="59.3509999942" lon="34.6347703133"><ele>170.77</ele><time>2026-08-15T08:04:06Z</time></trkpt><trkpt lat="59.3509188574" lon="34.6347859036"><ele>170.77</ele><time>2026-08-15T08:04:27Z</time></trkpt><trkpt lat="59.3509047758" lon="34.6347928606"><ele>172.21</ele><time>2026-08-15T08:04:29Z</time></trkpt><trkpt lat="59.3507853337" lon="34.6348526236"><ele>171.25</ele><time>2026-08-15T08:04:46Z</time></trkpt><trkpt lat="59.3507682346" lon="34.6348931082"><ele>170.29</ele><time>2026-08-15T08:05:05Z</time></trkpt><trkpt lat="59.3507291749" lon="34.6349945292"><ele>171.73</ele><time>2026-08-15T08:05:24Z</time></trkpt><trkpt lat="59.3507045321" lon="34.6351021528"><ele>171.73</ele><time>2026-08-15T08:05:35Z</time></trkpt><trkpt lat="59.3506517261" lon="34.6351987962"><ele>171.73</ele><time>2026-08-15T08:05:47Z</time></trkpt><trkpt lat="59.3506167736" lon="34.6352589782"><ele>171.73</ele><time>2026-08-15T08:06:04Z</time></trkpt><trkpt lat="59.3505622074" lon="34.6352901589"><ele>171.73</ele><time>2026-08-15T08:06:22Z</time></trkpt><trkpt lat="59.3504877761" lon="34.6354248561"><ele>171.73</ele><time>2026-08-15T08:06:36Z</time></trkpt><trkpt lat="59.3504601996" lon="34.6354728006"><ele>169.81</ele><time>2026-08-15T08:06:50Z</time></trkpt><trkpt lat="59.3504468724" lon="34.6354785003"><ele>169.81</ele><time>2026-08-15T08:07:09Z</time></trkpt><trkpt lat="59.3504384905" lon="34.6354824398"><ele>169.33</ele><time>2026-08-15T08:07:40Z</time></trkpt><trkpt lat="59.3504161946" lon="34.6355499979"><ele>170.77</ele><time>2026-08-15T08:08:01Z</time></trkpt><trkpt lat="59.3503897917" lon="34.6355473157"><ele>170.77</ele><time>2026-08-15T08:08:26Z</time></trkpt><trkpt lat="59.3503402546" lon="34.6354897320"><ele>170.77</ele><time>2026-08-15T08:08:39Z</time></trkpt><trkpt lat="59.3502448685" lon="34.6353879757"><ele>169.33</ele><time>2026-08-15T08:08:53Z</time></trkpt><trkpt lat="59.3501647376" lon="34.6352741495"><ele>170.29</ele><time>2026-08-15T08:09:07Z</time></trkpt><trkpt lat="59.3501668330" lon="34.6352647617"><ele>170.29</ele><time>2026-08-15T08:09:08Z</time></trkpt><trkpt lat="59.3501218222" lon="34.6351348422"><ele>170.29</ele><time>2026-08-15T08:09:20Z</time></trkpt><trkpt lat="59.3500912283" lon="34.6351070143"><ele>170.29</ele><time>2026-08-15T08:09:42Z</time></trkpt><trkpt lat="59.3499729596" lon="34.6350361872"><ele>170.29</ele><time>2026-08-15T08:09:57Z</time></trkpt><trkpt lat="59.3499307148" lon="34.6350530349"><ele>170.29</ele><time>2026-08-15T08:10:09Z</time></trkpt><trkpt lat="59.3498173077" lon="34.6350879036"><ele>170.29</ele><time>2026-08-15T08:10:22Z</time></trkpt><trkpt lat="59.3496972788" lon="34.6352153085"><ele>170.29</ele><time>2026-08-15T08:10:37Z</time></trkpt><trkpt lat="59.3496531900" lon="34.6352247801"><ele>170.29</ele><time>2026-08-15T08:10:43Z</time></trkpt><trkpt lat="59.3495712988" lon="34.6352630854"><ele>170.29</ele><time>2026-08-15T08:10:58Z</time></trkpt><trkpt lat="59.3495214265" lon="34.6352626663"><ele>170.29</ele><time>2026-08-15T08:11:12Z</time></trkpt><trkpt lat="59.3495193310" lon="34.6352751553"><ele>170.29</ele><time>2026-08-15T08:11:31Z</time></trkpt><trkpt lat="59.3495182414" lon="34.6352939308"><ele>170.29</ele><time>2026-08-15T08:11:54Z</time></trkpt><trkpt lat="59.3495103624" lon="34.6352972835"><ele>170.29</ele><time>2026-08-15T08:12:17Z</time></trkpt><trkpt lat="59.3495006394" lon="34.6353142988"><ele>170.29</ele><time>2026-08-15T08:12:37Z</time></trkpt><trkpt lat="59.3494996335" lon="34.6353112813"><ele>168.85</ele><time>2026-08-15T08:12:44Z</time></trkpt><trkpt lat="59.3495060038" lon="34.6353090182"><ele>170.29</ele><time>2026-08-15T08:13:00Z</time></trkpt><trkpt lat="59.3494990468" lon="34.6353148855"><ele>169.33</ele><time>2026-08-15T08:13:10Z</time></trkpt><trkpt lat="59.3494983763" lon="34.6353044081"><ele>169.33</ele><time>2026-08-15T08:13:29Z</time></trkpt><trkpt lat="59.3495028187" lon="34.6353055816"><ele>170.29</ele><time>2026-08-15T08:14:00Z</time></trkpt><trkpt lat="59.3495039921" lon="34.6352957748"><ele>170.29</ele><time>2026-08-15T08:14:23Z</time></trkpt><trkpt lat="59.3495132960" lon="34.6351970360"><ele>168.85</ele><time>2026-08-15T08:14:39Z</time></trkpt><trkpt lat="59.3495111167" lon="34.6351352613"><ele>167.41</ele><time>2026-08-15T08:14:48Z</time></trkpt><trkpt lat="59.3495106976" lon="34.6351335850"><ele>171.73</ele><time>2026-08-15T08:14:51Z</time></trkpt><trkpt lat="59.3495106976" lon="34.6351331659"><ele>169.33</ele><time>2026-08-15T08:14:52Z</time></trkpt><trkpt lat="59.3495108653" lon="34.6351329144"><ele>169.81</ele><time>2026-08-15T08:14:57Z</time></trkpt><trkpt lat="59.3495107815" lon="34.6351320762"><ele>172.21</ele><time>2026-08-15T08:15:07Z</time></trkpt><trkpt lat="59.3495095242" lon="34.6351304837"><ele>168.85</ele><time>2026-08-15T08:15:10Z</time></trkpt><trkpt lat="59.3495058361" lon="34.6351136360"><ele>169.81</ele><time>2026-08-15T08:15:34Z</time></trkpt><trkpt lat="59.3495061714" lon="34.6351081878"><ele>169.81</ele><time>2026-08-15T08:15:35Z</time></trkpt><trkpt lat="59.3495282158" lon="34.6349160746"><ele>169.81</ele><time>2026-08-15T08:15:48Z</time></trkpt><trkpt lat="59.3495057523" lon="34.6347214468"><ele>170.29</ele><time>2026-08-15T08:16:02Z</time></trkpt><trkpt lat="59.3495028187" lon="34.6345472708"><ele>170.29</ele><time>2026-08-15T08:16:15Z</time></trkpt><trkpt lat="59.3495023996" lon="34.6344549861"><ele>170.29</ele><time>2026-08-15T08:16:27Z</time></trkpt><trkpt lat="59.3495137151" lon="34.6342627052"><ele>170.29</ele><time>2026-08-15T08:16:39Z</time></trkpt><trkpt lat="59.3494800199" lon="34.6340026986"><ele>170.29</ele><time>2026-08-15T08:16:53Z</time></trkpt><trkpt lat="59.3494696263" lon="34.6338481363"><ele>170.29</ele><time>2026-08-15T08:17:04Z</time></trkpt><trkpt lat="59.3494666927" lon="34.6338195540"><ele>170.29</ele><time>2026-08-15T08:17:06Z</time></trkpt><trkpt lat="59.3494266272" lon="34.6336592920"><ele>170.77</ele><time>2026-08-15T08:17:22Z</time></trkpt><trkpt lat="59.3494182453" lon="34.6336283628"><ele>170.77</ele><time>2026-08-15T08:17:35Z</time></trkpt><trkpt lat="59.3493976258" lon="34.6335273609"><ele>171.25</ele><time>2026-08-15T08:17:51Z</time></trkpt><trkpt lat="59.3493877351" lon="34.6334269457"><ele>169.81</ele><time>2026-08-15T08:18:10Z</time></trkpt><trkpt lat="59.3493898306" lon="34.6334353276"><ele>171.25</ele><time>2026-08-15T08:18:18Z</time></trkpt><trkpt lat="59.3493785989" lon="34.6334002912"><ele>170.29</ele><time>2026-08-15T08:18:27Z</time></trkpt><trkpt lat="59.3494657706" lon="34.6334323939"><ele>171.25</ele><time>2026-08-15T08:18:50Z</time></trkpt><trkpt lat="59.3494544551" lon="34.6334275324"><ele>170.29</ele><time>2026-08-15T08:19:08Z</time></trkpt><trkpt lat="59.3494437262" lon="34.6334069967"><ele>170.29</ele><time>2026-08-15T08:19:32Z</time></trkpt><trkpt lat="59.3494457379" lon="34.6334002074"><ele>170.29</ele><time>2026-08-15T08:20:02Z</time></trkpt><trkpt lat="59.3494428881" lon="34.6333919093"><ele>170.29</ele><time>2026-08-15T08:20:28Z</time></trkpt><trkpt lat="59.3494381104" lon="34.6334025543"><ele>170.29</ele><time>2026-08-15T08:20:52Z</time></trkpt><trkpt lat="59.3494340032" lon="34.6334209107"><ele>171.25</ele><time>2026-08-15T08:21:09Z</time></trkpt><trkpt lat="59.3494329136" lon="34.6334271971"><ele>170.77</ele><time>2026-08-15T08:21:15Z</time></trkpt><trkpt lat="59.3494443968" lon="34.6334256884"><ele>170.77</ele><time>2026-08-15T08:21:51Z</time></trkpt><trkpt lat="59.3494461570" lon="34.6334240958"><ele>171.73</ele><time>2026-08-15T08:21:56Z</time></trkpt><trkpt lat="59.3494467437" lon="34.6334271133"><ele>170.29</ele><time>2026-08-15T08:22:00Z</time></trkpt><trkpt lat="59.3494464923" lon="34.6334320586"><ele>173.66</ele><time>2026-08-15T08:22:06Z</time></trkpt><trkpt lat="59.3494469114" lon="34.6334312204"><ele>173.66</ele><time>2026-08-15T08:22:07Z</time></trkpt><trkpt lat="59.3495172355" lon="34.6333906520"><ele>171.25</ele><time>2026-08-15T08:22:23Z</time></trkpt><trkpt lat="59.3496242724" lon="34.6333054081"><ele>170.29</ele><time>2026-08-15T08:22:39Z</time></trkpt><trkpt lat="59.3497141264" lon="34.6332669351"><ele>171.73</ele><time>2026-08-15T08:22:52Z</time></trkpt><trkpt lat="59.3497816846" lon="34.6332109440"><ele>171.73</ele><time>2026-08-15T08:23:07Z</time></trkpt><trkpt lat="59.3498494104" lon="34.6331688669"><ele>171.73</ele><time>2026-08-15T08:23:23Z</time></trkpt><trkpt lat="59.3499384262" lon="34.6331625804"><ele>171.73</ele><time>2026-08-15T08:23:35Z</time></trkpt><trkpt lat="59.3500278611" lon="34.6331732254"><ele>171.73</ele><time>2026-08-15T08:23:50Z</time></trkpt><trkpt lat="59.3501042202" lon="34.6331545338"><ele>171.73</ele><time>2026-08-15T08:24:05Z</time></trkpt><trkpt lat="59.3501720298" lon="34.6330933459"><ele>171.73</ele><time>2026-08-15T08:24:19Z</time></trkpt><trkpt lat="59.3502517417" lon="34.6330671944"><ele>172.21</ele><time>2026-08-15T08:24:32Z</time></trkpt><trkpt lat="59.3503194675" lon="34.6329600736"><ele>172.21</ele><time>2026-08-15T08:24:45Z</time></trkpt><trkpt lat="59.3503204733" lon="34.6329554636"><ele>170.77</ele><time>2026-08-15T08:24:48Z</time></trkpt><trkpt lat="59.3503231555" lon="34.6329594869"><ele>172.69</ele><time>2026-08-15T08:25:05Z</time></trkpt><trkpt lat="59.3503252510" lon="34.6329606604"><ele>171.25</ele><time>2026-08-15T08:25:08Z</time></trkpt><trkpt lat="59.3503395841" lon="34.6329660248"><ele>171.25</ele><time>2026-08-15T08:25:31Z</time></trkpt><trkpt lat="59.3503479660" lon="34.6329666115"><ele>172.21</ele><time>2026-08-15T08:25:49Z</time></trkpt><trkpt lat="59.3503584433" lon="34.6329661924"><ele>172.21</ele><time>2026-08-15T08:26:18Z</time></trkpt><trkpt lat="59.3503432721" lon="34.6329421364"><ele>172.69</ele><time>2026-08-15T08:26:58Z</time></trkpt><trkpt lat="59.3503503129" lon="34.6329523623"><ele>173.17</ele><time>2026-08-15T08:27:27Z</time></trkpt><trkpt lat="59.3504327908" lon="34.6328952815"><ele>173.17</ele><time>2026-08-15T08:27:43Z</time></trkpt><trkpt lat="59.3505393248" lon="34.6328643523"><ele>173.17</ele><time>2026-08-15T08:27:58Z</time></trkpt><trkpt lat="59.3506187014" lon="34.6328407992"><ele>173.17</ele><time>2026-08-15T08:28:11Z</time></trkpt><trkpt lat="59.3506680708" lon="34.6328241192"><ele>173.17</ele><time>2026-08-15T08:28:28Z</time></trkpt><trkpt lat="59.3507258222" lon="34.6328139771"><ele>173.17</ele><time>2026-08-15T08:28:42Z</time></trkpt><trkpt lat="59.3508474436" lon="34.6327904239"><ele>173.17</ele><time>2026-08-15T08:28:58Z</time></trkpt><trkpt lat="59.3508683983" lon="34.6327798627"><ele>173.17</ele><time>2026-08-15T08:29:02Z</time></trkpt><trkpt lat="59.3509419914" lon="34.6327294037"><ele>173.66</ele><time>2026-08-15T08:29:13Z</time></trkpt><trkpt lat="59.3510667142" lon="34.6325742546"><ele>174.14</ele><time>2026-08-15T08:29:29Z</time></trkpt><trkpt lat="59.3511642795" lon="34.6324704029"><ele>174.14</ele><time>2026-08-15T08:29:44Z</time></trkpt><trkpt lat="59.3511724938" lon="34.6324567404"><ele>174.14</ele><time>2026-08-15T08:29:59Z</time></trkpt><trkpt lat="59.3511995673" lon="34.6324535552"><ele>174.14</ele><time>2026-08-15T08:30:29Z</time></trkpt><trkpt lat="59.3512140680" lon="34.6324573271"><ele>174.14</ele><time>2026-08-15T08:31:11Z</time></trkpt><trkpt lat="59.3512345199" lon="34.6324527171"><ele>174.14</ele><time>2026-08-15T08:31:47Z</time></trkpt><trkpt lat="59.3512463383" lon="34.6323934570"><ele>174.14</ele><time>2026-08-15T08:32:00Z</time></trkpt><trkpt lat="59.3512704782" lon="34.6323343646"><ele>175.10</ele><time>2026-08-15T08:32:20Z</time></trkpt><trkpt lat="59.3512674607" lon="34.6323307604"><ele>173.66</ele><time>2026-08-15T08:32:46Z</time></trkpt><trkpt lat="59.3512698915" lon="34.6323389746"><ele>173.66</ele><time>2026-08-15T08:33:10Z</time></trkpt><trkpt lat="59.3512686342" lon="34.6323468536"><ele>173.66</ele><time>2026-08-15T08:33:47Z</time></trkpt><trkpt lat="59.3512732442" lon="34.6323257312"><ele>173.66</ele><time>2026-08-15T08:34:17Z</time></trkpt><trkpt lat="59.3512762617" lon="34.6323102247"><ele>173.66</ele><time>2026-08-15T08:34:44Z</time></trkpt><trkpt lat="59.3513356894" lon="34.6323857456"><ele>175.10</ele><time>2026-08-15T08:34:56Z</time></trkpt><trkpt lat="59.3513853103" lon="34.6324346960"><ele>174.14</ele><time>2026-08-15T08:35:04Z</time></trkpt><trkpt lat="59.3514416367" lon="34.6324851550"><ele>174.62</ele><time>2026-08-15T08:35:19Z</time></trkpt><trkpt lat="59.3514846358" lon="34.6324375458"><ele>174.62</ele><time>2026-08-15T08:35:36Z</time></trkpt><trkpt lat="59.3514884915" lon="34.6324304212"><ele>174.62</ele><time>2026-08-15T08:35:37Z</time></trkpt><trkpt lat="59.3515036628" lon="34.6324128192"><ele>175.10</ele><time>2026-08-15T08:35:52Z</time></trkpt><trkpt lat="59.3515441474" lon="34.6322176885"><ele>173.17</ele><time>2026-08-15T08:36:07Z</time></trkpt><trkpt lat="59.3515487574" lon="34.6321994159"><ele>175.58</ele><time>2026-08-15T08:36:08Z</time></trkpt><trkpt lat="59.3515547924" lon="34.6321761142"><ele>173.66</ele><time>2026-08-15T08:36:11Z</time></trkpt><trkpt lat="59.3515781779" lon="34.6321231406"><ele>174.62</ele><time>2026-08-15T08:36:16Z</time></trkpt><trkpt lat="59.3516112864" lon="34.6320791356"><ele>173.66</ele><time>2026-08-15T08:36:34Z</time></trkpt><trkpt lat="59.3516167346" lon="34.6320493799"><ele>173.66</ele><time>2026-08-15T08:36:37Z</time></trkpt><trkpt lat="59.3516847119" lon="34.6317756269"><ele>172.69</ele><time>2026-08-15T08:36:51Z</time></trkpt><trkpt lat="59.3517003022" lon="34.6316544246"><ele>172.69</ele><time>2026-08-15T08:37:06Z</time></trkpt><trkpt lat="59.3517047446" lon="34.6316581964"><ele>174.14</ele><time>2026-08-15T08:37:09Z</time></trkpt><trkpt lat="59.3517368473" lon="34.6316243336"><ele>174.14</ele><time>2026-08-15T08:37:21Z</time></trkpt><trkpt lat="59.3517975323" lon="34.6315776464"><ele>174.14</ele><time>2026-08-15T08:37:39Z</time></trkpt><trkpt lat="59.3518294673" lon="34.6315600444"><ele>174.14</ele><time>2026-08-15T08:38:05Z</time></trkpt><trkpt lat="59.3518834468" lon="34.6315418556"><ele>173.66</ele><time>2026-08-15T08:38:14Z</time></trkpt><trkpt lat="59.3519805092" lon="34.6315629780"><ele>173.66</ele><time>2026-08-15T08:38:30Z</time></trkpt><trkpt lat="59.3520747218" lon="34.6315872855"><ele>173.66</ele><time>2026-08-15T08:38:44Z</time></trkpt><trkpt lat="59.3521891348" lon="34.6315231640"><ele>174.62</ele><time>2026-08-15T08:38:58Z</time></trkpt><trkpt lat="59.3522628117" lon="34.6314271074"><ele>175.10</ele><time>2026-08-15T08:39:13Z</time></trkpt><trkpt lat="59.3522993568" lon="34.6313740499"><ele>175.10</ele><time>2026-08-15T08:39:32Z</time></trkpt><trkpt lat="59.3523653224" lon="34.6313723736"><ele>175.10</ele><time>2026-08-15T08:39:49Z</time></trkpt><trkpt lat="59.3524142727" lon="34.6313758101"><ele>175.10</ele><time>2026-08-15T08:40:05Z</time></trkpt><trkpt lat="59.3524299469" lon="34.6313639916"><ele>174.14</ele><time>2026-08-15T08:40:16Z</time></trkpt><trkpt lat="59.3524406757" lon="34.6313698590"><ele>173.66</ele><time>2026-08-15T08:40:34Z</time></trkpt><trkpt lat="59.3524594512" lon="34.6313740499"><ele>173.66</ele><time>2026-08-15T08:41:06Z</time></trkpt><trkpt lat="59.3524682522" lon="34.6313616447"><ele>175.10</ele><time>2026-08-15T08:41:19Z</time></trkpt><trkpt lat="59.3524989299" lon="34.6313857846"><ele>173.66</ele><time>2026-08-15T08:41:47Z</time></trkpt><trkpt lat="59.3525005225" lon="34.6313865390"><ele>175.58</ele><time>2026-08-15T08:41:52Z</time></trkpt><trkpt lat="59.3525032885" lon="34.6313866228"><ele>174.14</ele><time>2026-08-15T08:42:01Z</time></trkpt><trkpt lat="59.3525432702" lon="34.6313890535"><ele>174.14</ele><time>2026-08-15T08:42:17Z</time></trkpt><trkpt lat="59.3525746185" lon="34.6313819289"><ele>173.66</ele><time>2026-08-15T08:42:32Z</time></trkpt><trkpt lat="59.3526014406" lon="34.6314034704"><ele>173.66</ele><time>2026-08-15T08:42:45Z</time></trkpt><trkpt lat="59.3526601978" lon="34.6315120999"><ele>175.10</ele><time>2026-08-15T08:42:58Z</time></trkpt><trkpt lat="59.3527577631" lon="34.6316327155"><ele>175.10</ele><time>2026-08-15T08:43:13Z</time></trkpt><trkpt lat="59.3528244831" lon="34.6316770557"><ele>175.10</ele><time>2026-08-15T08:43:29Z</time></trkpt><trkpt lat="59.3528732657" lon="34.6317291912"><ele>175.10</ele><time>2026-08-15T08:43:41Z</time></trkpt><trkpt lat="59.3529492896" lon="34.6318056341"><ele>175.10</ele><time>2026-08-15T08:43:57Z</time></trkpt><trkpt lat="59.3529999163" lon="34.6318831667"><ele>175.10</ele><time>2026-08-15T08:44:15Z</time></trkpt><trkpt lat="59.3530343659" lon="34.6319170296"><ele>175.10</ele><time>2026-08-15T08:44:36Z</time></trkpt><trkpt lat="59.3530553207" lon="34.6319273394"><ele>175.10</ele><time>2026-08-15T08:45:03Z</time></trkpt><trkpt lat="59.3530561589" lon="34.6319178678"><ele>175.10</ele><time>2026-08-15T08:45:30Z</time></trkpt><trkpt lat="59.3530911114" lon="34.6319375653"><ele>175.10</ele><time>2026-08-15T08:45:43Z</time></trkpt><trkpt lat="59.3530952185" lon="34.6319358051"><ele>175.10</ele><time>2026-08-15T08:45:46Z</time></trkpt><trkpt lat="59.3531600107" lon="34.6319632139"><ele>175.10</ele><time>2026-08-15T08:46:00Z</time></trkpt><trkpt lat="59.3531990703" lon="34.6319578495"><ele>175.10</ele><time>2026-08-15T08:46:15Z</time></trkpt><trkpt lat="59.3533289060" lon="34.6320020221"><ele>175.10</ele><time>2026-08-15T08:46:29Z</time></trkpt><trkpt lat="59.3534605857" lon="34.6320661437"><ele>173.66</ele><time>2026-08-15T08:46:40Z</time></trkpt><trkpt lat="59.3535905890" lon="34.6320206299"><ele>173.66</ele><time>2026-08-15T08:46:52Z</time></trkpt><trkpt lat="59.3536551297" lon="34.6320304368"><ele>173.66</ele><time>2026-08-15T08:47:06Z</time></trkpt><trkpt lat="59.3537010625" lon="34.6320672333"><ele>173.66</ele><time>2026-08-15T08:47:18Z</time></trkpt><trkpt lat="59.3537821993" lon="34.6320538223"><ele>173.66</ele><time>2026-08-15T08:47:29Z</time></trkpt><trkpt lat="59.3538355082" lon="34.6320836619"><ele>173.66</ele><time>2026-08-15T08:47:41Z</time></trkpt><trkpt lat="59.3538645096" lon="34.6320455242"><ele>173.66</ele><time>2026-08-15T08:47:57Z</time></trkpt><trkpt lat="59.3538916670" lon="34.6320468653"><ele>172.69</ele><time>2026-08-15T08:48:12Z</time></trkpt><trkpt lat="59.3538827822" lon="34.6320745256"><ele>172.69</ele><time>2026-08-15T08:48:49Z</time></trkpt><trkpt lat="59.3538863864" lon="34.6320621204"><ele>172.21</ele><time>2026-08-15T08:49:21Z</time></trkpt><trkpt lat="59.3538799323" lon="34.6320537385"><ele>172.21</ele><time>2026-08-15T08:49:50Z</time></trkpt><trkpt lat="59.3538787588" lon="34.6320641320"><ele>172.21</ele><time>2026-08-15T08:50:32Z</time></trkpt><trkpt lat="59.3538834527" lon="34.6320611984"><ele>171.73</ele><time>2026-08-15T08:51:06Z</time></trkpt><trkpt lat="59.3538869731" lon="34.6320607793"><ele>172.69</ele><time>2026-08-15T08:51:38Z</time></trkpt><trkpt lat="59.3538869731" lon="34.6320736874"><ele>172.69</ele><time>2026-08-15T08:52:11Z</time></trkpt><trkpt lat="59.3538842909" lon="34.6320746932"><ele>172.69</ele><time>2026-08-15T08:52:48Z</time></trkpt><trkpt lat="59.3538876437" lon="34.6320700832"><ele>172.21</ele><time>2026-08-15T08:53:14Z</time></trkpt><trkpt lat="59.3538886495" lon="34.6320738550"><ele>172.21</ele><time>2026-08-15T08:53:43Z</time></trkpt><trkpt lat="59.3538873922" lon="34.6320825722"><ele>172.69</ele><time>2026-08-15T08:54:08Z</time></trkpt><trkpt lat="59.3538921699" lon="34.6320883557"><ele>172.69</ele><time>2026-08-15T08:54:31Z</time></trkpt><trkpt lat="59.3538902421" lon="34.6320848353"><ele>172.21</ele><time>2026-08-15T08:54:49Z</time></trkpt><trkpt lat="59.3538950197" lon="34.6320715081"><ele>172.21</ele><time>2026-08-15T08:55:15Z</time></trkpt><trkpt lat="59.3538978696" lon="34.6320812311"><ele>172.21</ele><time>2026-08-15T08:55:45Z</time></trkpt><trkpt lat="59.3538923375" lon="34.6320767887"><ele>172.21</ele><time>2026-08-15T08:56:13Z</time></trkpt><trkpt lat="59.3538930081" lon="34.6320745256"><ele>166.93</ele><time>2026-08-15T08:56:20Z</time></trkpt><trkpt lat="59.3538921699" lon="34.6320756152"><ele>173.17</ele><time>2026-08-15T08:56:21Z</time></trkpt><trkpt lat="59.3538870569" lon="34.6320780460"><ele>172.21</ele><time>2026-08-15T08:56:40Z</time></trkpt><trkpt lat="59.3538847938" lon="34.6320922114"><ele>172.21</ele><time>2026-08-15T08:57:10Z</time></trkpt><trkpt lat="59.3538930919" lon="34.6321111545"><ele>172.21</ele><time>2026-08-15T08:57:42Z</time></trkpt><trkpt lat="59.3538988754" lon="34.6321130823"><ele>172.21</ele><time>2026-08-15T08:58:12Z</time></trkpt><trkpt lat="59.3539013900" lon="34.6321094781"><ele>173.17</ele><time>2026-08-15T08:58:15Z</time></trkpt><trkpt lat="59.3538999651" lon="34.6321080532"><ele>172.21</ele><time>2026-08-15T08:58:39Z</time></trkpt><trkpt lat="59.3538987916" lon="34.6321038622"><ele>172.21</ele><time>2026-08-15T08:59:01Z</time></trkpt><trkpt lat="59.3539350852" lon="34.6322038583"><ele>173.17</ele><time>2026-08-15T08:59:20Z</time></trkpt><trkpt lat="59.3539233506" lon="34.6322147548"><ele>173.17</ele><time>2026-08-15T08:59:22Z</time></trkpt><trkpt lat="59.3539123703" lon="34.6322756913"><ele>170.29</ele><time>2026-08-15T08:59:26Z</time></trkpt><trkpt lat="59.3539035693" lon="34.6322979033"><ele>175.58</ele><time>2026-08-15T08:59:28Z</time></trkpt><trkpt lat="59.3538991269" lon="34.6323112305"><ele>175.58</ele><time>2026-08-15T08:59:29Z</time></trkpt><trkpt lat="59.3538898230" lon="34.6323482785"><ele>173.17</ele><time>2026-08-15T08:59:31Z</time></trkpt><trkpt lat="59.3538481649" lon="34.6325431578"><ele>172.69</ele><time>2026-08-15T08:59:46Z</time></trkpt><trkpt lat="59.3538175710" lon="34.6327029169"><ele>172.21</ele><time>2026-08-15T09:00:01Z</time></trkpt><trkpt lat="59.3537815288" lon="34.6327955369"><ele>172.21</ele><time>2026-08-15T09:00:15Z</time></trkpt><trkpt lat="59.3537482526" lon="34.6329112910"><ele>174.62</ele><time>2026-08-15T09:00:30Z</time></trkpt><trkpt lat="59.3537462410" lon="34.6329283062"><ele>175.10</ele><time>2026-08-15T09:00:31Z</time></trkpt><trkpt lat="59.3537336681" lon="34.6331658494"><ele>175.58</ele><time>2026-08-15T09:00:45Z</time></trkpt><trkpt lat="59.3537078518" lon="34.6332681924"><ele>174.14</ele><time>2026-08-15T09:00:54Z</time></trkpt><trkpt lat="59.3536442332" lon="34.6334132832"><ele>173.17</ele><time>2026-08-15T09:01:07Z</time></trkpt><trkpt lat="59.3535869010" lon="34.6335171349"><ele>172.69</ele><time>2026-08-15T09:01:18Z</time></trkpt><trkpt lat="59.3535611685" lon="34.6335748862"><ele>172.21</ele><time>2026-08-15T09:01:35Z</time></trkpt><trkpt lat="59.3535312451" lon="34.6337211505"><ele>172.21</ele><time>2026-08-15T09:01:47Z</time></trkpt><trkpt lat="59.3535309937" lon="34.6338848490"><ele>172.21</ele><time>2026-08-15T09:02:00Z</time></trkpt><trkpt lat="59.3535457458" lon="34.6339953225"><ele>173.66</ele><time>2026-08-15T09:02:07Z</time></trkpt><trkpt lat="59.3535220250" lon="34.6342125814"><ele>172.21</ele><time>2026-08-15T09:02:21Z</time></trkpt><trkpt lat="59.3534908444" lon="34.6344793774"><ele>171.73</ele><time>2026-08-15T09:02:36Z</time></trkpt><trkpt lat="59.3534295727" lon="34.6346538048"><ele>171.73</ele><time>2026-08-15T09:02:49Z</time></trkpt><trkpt lat="59.3534308299" lon="34.6347638592"><ele>171.73</ele><time>2026-08-15T09:03:00Z</time></trkpt><trkpt lat="59.3534203526" lon="34.6349563077"><ele>172.69</ele><time>2026-08-15T09:03:14Z</time></trkpt><trkpt lat="59.3533869926" lon="34.6351537015"><ele>172.69</ele><time>2026-08-15T09:03:28Z</time></trkpt><trkpt lat="59.3533755094" lon="34.6353117842"><ele>171.73</ele><time>2026-08-15T09:03:40Z</time></trkpt><trkpt lat="59.3533624336" lon="34.6354012191"><ele>171.73</ele><time>2026-08-15T09:03:53Z</time></trkpt><trkpt lat="59.3533024192" lon="34.6356277820"><ele>171.73</ele><time>2026-08-15T09:04:06Z</time></trkpt><trkpt lat="59.3532817159" lon="34.6357475594"><ele>171.73</ele><time>2026-08-15T09:04:18Z</time></trkpt><trkpt lat="59.3532823026" lon="34.6357840206"><ele>172.69</ele><time>2026-08-15T09:04:30Z</time></trkpt><trkpt lat="59.3532227911" lon="34.6360177081"><ele>172.69</ele><time>2026-08-15T09:04:46Z</time></trkpt><trkpt lat="59.3531768583" lon="34.6361424308"><ele>171.73</ele><time>2026-08-15T09:04:56Z</time></trkpt><trkpt lat="59.3531325180" lon="34.6363270842"><ele>171.25</ele><time>2026-08-15T09:05:09Z</time></trkpt><trkpt lat="59.3531191070" lon="34.6364658047"><ele>171.25</ele><time>2026-08-15T09:05:21Z</time></trkpt><trkpt lat="59.3530906923" lon="34.6365972329"><ele>172.21</ele><time>2026-08-15T09:05:35Z</time></trkpt><trkpt lat="59.3530589249" lon="34.6366533078"><ele>172.21</ele><time>2026-08-15T09:05:48Z</time></trkpt><trkpt lat="59.3530384731" lon="34.6367112268"><ele>170.77</ele><time>2026-08-15T09:06:02Z</time></trkpt><trkpt lat="59.3529772013" lon="34.6368543059"><ele>172.21</ele><time>2026-08-15T09:06:17Z</time></trkpt><trkpt lat="59.3529268261" lon="34.6370511129"><ele>172.21</ele><time>2026-08-15T09:06:31Z</time></trkpt><trkpt lat="59.3528610282" lon="34.6372133028"><ele>170.77</ele><time>2026-08-15T09:06:45Z</time></trkpt><trkpt lat="59.3528098986" lon="34.6373532806"><ele>170.77</ele><time>2026-08-15T09:06:59Z</time></trkpt><trkpt lat="59.3527660612" lon="34.6374960244"><ele>170.77</ele><time>2026-08-15T09:07:13Z</time></trkpt><trkpt lat="59.3527295999" lon="34.6375992894"><ele>170.77</ele><time>2026-08-15T09:07:26Z</time></trkpt><trkpt lat="59.3527285103" lon="34.6376256086"><ele>170.77</ele><time>2026-08-15T09:07:29Z</time></trkpt><trkpt lat="59.3526883610" lon="34.6377540193"><ele>170.77</ele><time>2026-08-15T09:07:43Z</time></trkpt><trkpt lat="59.3526068050" lon="34.6378326416"><ele>170.77</ele><time>2026-08-15T09:07:56Z</time></trkpt><trkpt lat="59.3525771331" lon="34.6380150318"><ele>170.77</ele><time>2026-08-15T09:08:08Z</time></trkpt><trkpt lat="59.3525500596" lon="34.6381357312"><ele>170.77</ele><time>2026-08-15T09:08:23Z</time></trkpt><trkpt lat="59.3524897099" lon="34.6383622941"><ele>170.77</ele><time>2026-08-15T09:08:39Z</time></trkpt><trkpt lat="59.3524519913" lon="34.6385008469"><ele>170.77</ele><time>2026-08-15T09:08:51Z</time></trkpt><trkpt lat="59.3524099980" lon="34.6386623662"><ele>170.77</ele><time>2026-08-15T09:09:03Z</time></trkpt><trkpt lat="59.3524125963" lon="34.6386891045"><ele>170.77</ele><time>2026-08-15T09:09:21Z</time></trkpt><trkpt lat="59.3524107523" lon="34.6386911161"><ele>170.77</ele><time>2026-08-15T09:09:41Z</time></trkpt><trkpt lat="59.3523972575" lon="34.6388528869"><ele>170.77</ele><time>2026-08-15T09:09:57Z</time></trkpt><trkpt lat="59.3523838464" lon="34.6390155796"><ele>170.77</ele><time>2026-08-15T09:10:10Z</time></trkpt><trkpt lat="59.3523505703" lon="34.6390604228"><ele>170.77</ele><time>2026-08-15T09:10:25Z</time></trkpt><trkpt lat="59.3522535078" lon="34.6391599998"><ele>170.77</ele><time>2026-08-15T09:10:36Z</time></trkpt><trkpt lat="59.3521447107" lon="34.6392303240"><ele>170.77</ele><time>2026-08-15T09:10:49Z</time></trkpt><trkpt lat="59.3520534318" lon="34.6392945293"><ele>170.77</ele><time>2026-08-15T09:11:02Z</time></trkpt><trkpt lat="59.3520067446" lon="34.6394655202"><ele>170.77</ele><time>2026-08-15T09:11:15Z</time></trkpt><trkpt lat="59.3519276194" lon="34.6396049950"><ele>170.77</ele><time>2026-08-15T09:11:27Z</time></trkpt><trkpt lat="59.3518954329" lon="34.6397557855"><ele>170.77</ele><time>2026-08-15T09:11:40Z</time></trkpt><trkpt lat="59.3518785015" lon="34.6398812626"><ele>170.77</ele><time>2026-08-15T09:11:58Z</time></trkpt><trkpt lat="59.3517963588" lon="34.6400237549"><ele>170.77</ele><time>2026-08-15T09:12:10Z</time></trkpt><trkpt lat="59.3517829478" lon="34.6401883755"><ele>170.77</ele><time>2026-08-15T09:12:20Z</time></trkpt><trkpt lat="59.3517337460" lon="34.6403683349"><ele>170.77</ele><time>2026-08-15T09:12:33Z</time></trkpt><trkpt lat="59.3516764976" lon="34.6405133419"><ele>170.77</ele><time>2026-08-15T09:12:47Z</time></trkpt><trkpt lat="59.3516275473" lon="34.6405684110"><ele>170.29</ele><time>2026-08-15T09:13:05Z</time></trkpt><trkpt lat="59.3515497632" lon="34.6406789683"><ele>170.29</ele><time>2026-08-15T09:13:18Z</time></trkpt><trkpt lat="59.3514811154" lon="34.6408450138"><ele>171.73</ele><time>2026-08-15T09:13:33Z</time></trkpt><trkpt lat="59.3514138926" lon="34.6408773679"><ele>171.73</ele><time>2026-08-15T09:13:46Z</time></trkpt><trkpt lat="59.3514081091" lon="34.6408887673"><ele>171.73</ele><time>2026-08-15T09:13:49Z</time></trkpt><trkpt lat="59.3512957077" lon="34.6409497876"><ele>171.73</ele><time>2026-08-15T09:14:03Z</time></trkpt><trkpt lat="59.3512351066" lon="34.6410618536"><ele>170.29</ele><time>2026-08-15T09:14:14Z</time></trkpt><trkpt lat="59.3512092065" lon="34.6411139891"><ele>171.25</ele><time>2026-08-15T09:14:36Z</time></trkpt><trkpt lat="59.3511801213" lon="34.6411548927"><ele>171.73</ele><time>2026-08-15T09:14:54Z</time></trkpt><trkpt lat="59.3511496950" lon="34.6412815433"><ele>171.73</ele><time>2026-08-15T09:15:07Z</time></trkpt><trkpt lat="59.3511503655" lon="34.6413034201"><ele>171.73</ele><time>2026-08-15T09:15:30Z</time></trkpt><trkpt lat="59.3511393014" lon="34.6413184237"><ele>170.29</ele><time>2026-08-15T09:15:51Z</time></trkpt><trkpt lat="59.3511308357" lon="34.6413264703"><ele>171.73</ele><time>2026-08-15T09:16:21Z</time></trkpt><trkpt lat="59.3511297461" lon="34.6413077787"><ele>171.73</ele><time>2026-08-15T09:16:46Z</time></trkpt><trkpt lat="59.3511303328" lon="34.6412955411"><ele>171.73</ele><time>2026-08-15T09:17:08Z</time></trkpt><trkpt lat="59.3511169218" lon="34.6413133107"><ele>171.73</ele><time>2026-08-15T09:17:31Z</time></trkpt><trkpt lat="59.3510529678" lon="34.6414242033"><ele>171.73</ele><time>2026-08-15T09:17:42Z</time></trkpt><trkpt lat="59.3509693164" lon="34.6415984631"><ele>171.73</ele><time>2026-08-15T09:17:56Z</time></trkpt><trkpt lat="59.3509295024" lon="34.6416874789"><ele>171.73</ele><time>2026-08-15T09:18:02Z</time></trkpt><trkpt lat="59.3508830667" lon="34.6418519318"><ele>171.73</ele><time>2026-08-15T09:18:14Z</time></trkpt><trkpt lat="59.3508219626" lon="34.6419478208"><ele>170.29</ele><time>2026-08-15T09:18:26Z</time></trkpt><trkpt lat="59.3507607747" lon="34.6421283670"><ele>171.73</ele><time>2026-08-15T09:18:40Z</time></trkpt><trkpt lat="59.3507310189" lon="34.6422258485"><ele>171.73</ele><time>2026-08-15T09:18:57Z</time></trkpt><trkpt lat="59.3507037777" lon="34.6422927361"><ele>171.73</ele><time>2026-08-15T09:19:12Z</time></trkpt><trkpt lat="59.3506674003" lon="34.6424408443"><ele>172.69</ele><time>2026-08-15T09:19:27Z</time></trkpt><trkpt lat="59.3505993392" lon="34.6425451152"><ele>172.69</ele><time>2026-08-15T09:19:40Z</time></trkpt><trkpt lat="59.3504928891" lon="34.6426977497"><ele>171.73</ele><time>2026-08-15T09:19:54Z</time></trkpt><trkpt lat="59.3504275102" lon="34.6428358834"><ele>172.69</ele><time>2026-08-15T09:20:06Z</time></trkpt><trkpt lat="59.3504125904" lon="34.6428625379"><ele>171.73</ele><time>2026-08-15T09:20:09Z</time></trkpt><trkpt lat="59.3503651489" lon="34.6429848298"><ele>170.77</ele><time>2026-08-15T09:20:21Z</time></trkpt><trkpt lat="59.3503570184" lon="34.6430158429"><ele>170.77</ele><time>2026-08-15T09:20:38Z</time></trkpt><trkpt lat="59.3503517378" lon="34.6430155076"><ele>170.77</ele><time>2026-08-15T09:21:03Z</time></trkpt><trkpt lat="59.3503448647" lon="34.6430360433"><ele>170.29</ele><time>2026-08-15T09:21:28Z</time></trkpt><trkpt lat="59.3503305316" lon="34.6430440061"><ele>171.25</ele><time>2026-08-15T09:21:39Z</time></trkpt><trkpt lat="59.3502985965" lon="34.6431446727"><ele>171.25</ele><time>2026-08-15T09:21:54Z</time></trkpt><trkpt lat="59.3502605427" lon="34.6433179267"><ele>171.25</ele><time>2026-08-15T09:22:07Z</time></trkpt><trkpt lat="59.3502155319" lon="34.6434496064"><ele>171.25</ele><time>2026-08-15T09:22:21Z</time></trkpt><trkpt lat="59.3501838483" lon="34.6435551345"><ele>171.25</ele><time>2026-08-15T09:22:35Z</time></trkpt><trkpt lat="59.3501264323" lon="34.6437451523"><ele>171.25</ele><time>2026-08-15T09:22:48Z</time></trkpt><trkpt lat="59.3501033820" lon="34.6438710485"><ele>169.81</ele><time>2026-08-15T09:23:01Z</time></trkpt><trkpt lat="59.3500899710" lon="34.6439792588"><ele>169.81</ele><time>2026-08-15T09:23:13Z</time></trkpt><trkpt lat="59.3500629812" lon="34.6441124473"><ele>169.81</ele><time>2026-08-15T09:23:26Z</time></trkpt><trkpt lat="59.3500095885" lon="34.6441431250"><ele>169.81</ele><time>2026-08-15T09:23:39Z</time></trkpt><trkpt lat="59.3499836046" lon="34.6441242658"><ele>169.81</ele><time>2026-08-15T09:23:45Z</time></trkpt><trkpt lat="59.3499369174" lon="34.6441244334"><ele>169.81</ele><time>2026-08-15T09:23:58Z</time></trkpt><trkpt lat="59.3499354087" lon="34.6441236790"><ele>172.21</ele><time>2026-08-15T09:24:01Z</time></trkpt><trkpt lat="59.3499352410" lon="34.6441230085"><ele>171.25</ele><time>2026-08-15T09:24:04Z</time></trkpt><trkpt lat="59.3499392644" lon="34.6441335697"><ele>170.77</ele><time>2026-08-15T09:24:20Z</time></trkpt><trkpt lat="59.3499381747" lon="34.6441372577"><ele>169.33</ele><time>2026-08-15T09:24:25Z</time></trkpt><trkpt lat="59.3499401025" lon="34.6441567037"><ele>169.33</ele><time>2026-08-15T09:24:47Z</time></trkpt><trkpt lat="59.3499413598" lon="34.6441607270"><ele>170.77</ele><time>2026-08-15T09:24:52Z</time></trkpt><trkpt lat="59.3499414437" lon="34.6441631578"><ele>168.85</ele><time>2026-08-15T09:24:55Z</time></trkpt><trkpt lat="59.3499415275" lon="34.6441644989"><ele>170.29</ele><time>2026-08-15T09:24:58Z</time></trkpt><trkpt lat="59.3499416113" lon="34.6441659238"><ele>173.17</ele><time>2026-08-15T09:25:02Z</time></trkpt><trkpt lat="59.3499411084" lon="34.6441694442"><ele>170.77</ele><time>2026-08-15T09:25:05Z</time></trkpt><trkpt lat="59.3499374203" lon="34.6441738028"><ele>171.25</ele><time>2026-08-15T09:25:24Z</time></trkpt><trkpt lat="59.3499388453" lon="34.6441801731"><ele>169.33</ele><time>2026-08-15T09:25:36Z</time></trkpt><trkpt lat="59.3499385100" lon="34.6441857051"><ele>170.77</ele><time>2026-08-15T09:25:55Z</time></trkpt><trkpt lat="59.3499398511" lon="34.6441977751"><ele>170.77</ele><time>2026-08-15T09:26:16Z</time></trkpt><trkpt lat="59.3499394320" lon="34.6442036424"><ele>171.73</ele><time>2026-08-15T09:26:33Z</time></trkpt><trkpt lat="59.3499309663" lon="34.6442178916"><ele>170.29</ele><time>2026-08-15T09:26:38Z</time></trkpt><trkpt lat="59.3498860393" lon="34.6442981064"><ele>170.29</ele><time>2026-08-15T09:26:49Z</time></trkpt><trkpt lat="59.3498129491" lon="34.6444279421"><ele>170.29</ele><time>2026-08-15T09:27:03Z</time></trkpt><trkpt lat="59.3497465644" lon="34.6445830911"><ele>170.29</ele><time>2026-08-15T09:27:18Z</time></trkpt><trkpt lat="59.3497173116" lon="34.6446148586"><ele>169.81</ele><time>2026-08-15T09:27:36Z</time></trkpt><trkpt lat="59.3497120310" lon="34.6446267609"><ele>170.29</ele><time>2026-08-15T09:27:49Z</time></trkpt><trkpt lat="59.3496630806" lon="34.6447305288"><ele>170.29</ele><time>2026-08-15T09:28:04Z</time></trkpt><trkpt lat="59.3495235220" lon="34.6449129190"><ele>171.25</ele><time>2026-08-15T09:28:19Z</time></trkpt><trkpt lat="59.3494393677" lon="34.6450896095"><ele>171.25</ele><time>2026-08-15T09:28:33Z</time></trkpt><trkpt lat="59.3493930157" lon="34.6452001669"><ele>171.25</ele><time>2026-08-15T09:28:47Z</time></trkpt><trkpt lat="59.3493712228" lon="34.6452537272"><ele>171.25</ele><time>2026-08-15T09:29:11Z</time></trkpt><trkpt lat="59.3493504357" lon="34.6452618577"><ele>170.29</ele><time>2026-08-15T09:29:34Z</time></trkpt><trkpt lat="59.3493361026" lon="34.6452558227"><ele>170.29</ele><time>2026-08-15T09:30:01Z</time></trkpt><trkpt lat="59.3493139744" lon="34.6453265660"><ele>170.29</ele><time>2026-08-15T09:30:17Z</time></trkpt><trkpt lat="59.3492627610" lon="34.6454735845"><ele>170.29</ele><time>2026-08-15T09:30:31Z</time></trkpt><trkpt lat="59.3491863180" lon="34.6457107924"><ele>170.29</ele><time>2026-08-15T09:30:52Z</time></trkpt><trkpt lat="59.3491495214" lon="34.6458148118"><ele>170.29</ele><time>2026-08-15T09:31:08Z</time></trkpt><trkpt lat="59.3491357751" lon="34.6458900813"><ele>170.29</ele><time>2026-08-15T09:31:21Z</time></trkpt><trkpt lat="59.3491193466" lon="34.6460175700"><ele>170.29</ele><time>2026-08-15T09:31:35Z</time></trkpt><trkpt lat="59.3490889203" lon="34.6461869683"><ele>172.21</ele><time>2026-08-15T09:31:49Z</time></trkpt><trkpt lat="59.3490429036" lon="34.6463590488"><ele>172.69</ele><time>2026-08-15T09:32:05Z</time></trkpt><trkpt lat="59.3489059433" lon="34.6464828495"><ele>172.69</ele><time>2026-08-15T09:32:18Z</time></trkpt><trkpt lat="59.3487937935" lon="34.6465550177"><ele>172.69</ele><time>2026-08-15T09:32:32Z</time></trkpt><trkpt lat="59.3487564102" lon="34.6465911437"><ele>171.25</ele><time>2026-08-15T09:32:46Z</time></trkpt><trkpt lat="59.3486440089" lon="34.6466244198"><ele>171.25</ele><time>2026-08-15T09:33:02Z</time></trkpt><trkpt lat="59.3486290891" lon="34.6466240007"><ele>171.25</ele><time>2026-08-15T09:33:13Z</time></trkpt><trkpt lat="59.3487520516" lon="34.6465713624"><ele>171.25</ele><time>2026-08-15T09:33:28Z</time></trkpt><trkpt lat="59.3488166761" lon="34.6465887967"><ele>172.69</ele><time>2026-08-15T09:33:41Z</time></trkpt><trkpt lat="59.3488400616" lon="34.6466068178"><ele>172.69</ele><time>2026-08-15T09:34:13Z</time></trkpt><trkpt lat="59.3488571607" lon="34.6465751342"><ele>172.69</ele><time>2026-08-15T09:34:41Z</time></trkpt><trkpt lat="59.3488537241" lon="34.6465722844"><ele>172.69</ele><time>2026-08-15T09:35:02Z</time></trkpt><trkpt lat="59.3489125650" lon="34.6465783194"><ele>172.69</ele><time>2026-08-15T09:35:16Z</time></trkpt><trkpt lat="59.3490016647" lon="34.6466700174"><ele>171.25</ele><time>2026-08-15T09:35:30Z</time></trkpt><trkpt lat="59.3491259683" lon="34.6468184609"><ele>171.25</ele><time>2026-08-15T09:35:48Z</time></trkpt><trkpt lat="59.3492024112" lon="34.6469429322"><ele>172.69</ele><time>2026-08-15T09:35:58Z</time></trkpt><trkpt lat="59.3492378667" lon="34.6469684131"><ele>172.69</ele><time>2026-08-15T09:36:02Z</time></trkpt><trkpt lat="59.3493417185" lon="34.6470819879"><ele>172.69</ele><time>2026-08-15T09:36:12Z</time></trkpt><trkpt lat="59.3494478334" lon="34.6471347939"><ele>172.69</ele><time>2026-08-15T09:36:25Z</time></trkpt><trkpt lat="59.3494749069" lon="34.6471394878"><ele>171.25</ele><time>2026-08-15T09:36:29Z</time></trkpt><trkpt lat="59.3496210035" lon="34.6471670642"><ele>170.77</ele><time>2026-08-15T09:36:43Z</time></trkpt><trkpt lat="59.3498224206" lon="34.6470618714"><ele>170.77</ele><time>2026-08-15T09:37:01Z</time></trkpt><trkpt lat="59.3499486521" lon="34.6469378192"><ele>170.77</ele><time>2026-08-15T09:37:14Z</time></trkpt><trkpt lat="59.3499886338" lon="34.6469135955"><ele>167.89</ele><time>2026-08-15T09:37:18Z</time></trkpt><trkpt lat="59.3499975186" lon="34.6469078958"><ele>172.21</ele><time>2026-08-15T09:37:19Z</time></trkpt><trkpt lat="59.3500065710" lon="34.6469033696"><ele>172.21</ele><time>2026-08-15T09:37:20Z</time></trkpt><trkpt lat="59.3500849418" lon="34.6468843427"><ele>170.29</ele><time>2026-08-15T09:37:33Z</time></trkpt><trkpt lat="59.3500197306" lon="34.6467861906"><ele>170.29</ele><time>2026-08-15T09:37:48Z</time></trkpt><trkpt lat="59.3500035536" lon="34.6467463765"><ele>171.73</ele><time>2026-08-15T09:37:55Z</time></trkpt><trkpt lat="59.3499720376" lon="34.6467524953"><ele>172.21</ele><time>2026-08-15T09:38:14Z</time></trkpt><trkpt lat="59.3499924894" lon="34.6468266752"><ele>172.21</ele><time>2026-08-15T09:38:29Z</time></trkpt><trkpt lat="59.3500553537" lon="34.6468557604"><ele>170.77</ele><time>2026-08-15T09:38:36Z</time></trkpt><trkpt lat="59.3501094170" lon="34.6468724404"><ele>170.77</ele><time>2026-08-15T09:38:41Z</time></trkpt><trkpt lat="59.3502556812" lon="34.6469995100"><ele>169.81</ele><time>2026-08-15T09:38:56Z</time></trkpt><trkpt lat="59.3503256701" lon="34.6470288467"><ele>169.33</ele><time>2026-08-15T09:39:11Z</time></trkpt><trkpt lat="59.3503866065" lon="34.6468463726"><ele>169.33</ele><time>2026-08-15T09:39:25Z</time></trkpt><trkpt lat="59.3504656479" lon="34.6466279402"><ele>168.85</ele><time>2026-08-15T09:39:37Z</time></trkpt><trkpt lat="59.3504840881" lon="34.6466108412"><ele>168.85</ele><time>2026-08-15T09:39:39Z</time></trkpt><trkpt lat="59.3505037017" lon="34.6464218292"><ele>168.37</ele><time>2026-08-15T09:39:51Z</time></trkpt><trkpt lat="59.3505245727" lon="34.6463649999"><ele>168.37</ele><time>2026-08-15T09:40:03Z</time></trkpt><trkpt lat="59.3505327869" lon="34.6463995334"><ele>168.37</ele><time>2026-08-15T09:40:05Z</time></trkpt><trkpt lat="59.3505492993" lon="34.6464713663"><ele>168.37</ele><time>2026-08-15T09:40:09Z</time></trkpt><trkpt lat="59.3505586032" lon="34.6466311254"><ele>167.89</ele><time>2026-08-15T09:40:18Z</time></trkpt><trkpt lat="59.3505394924" lon="34.6468111686"><ele>167.89</ele><time>2026-08-15T09:40:29Z</time></trkpt><trkpt lat="59.3505437672" lon="34.6470389888"><ele>167.89</ele><time>2026-08-15T09:40:41Z</time></trkpt><trkpt lat="59.3505417556" lon="34.6471458580"><ele>169.33</ele><time>2026-08-15T09:40:47Z</time></trkpt><trkpt lat="59.3505394086" lon="34.6472109016"><ele>169.33</ele><time>2026-08-15T09:40:52Z</time></trkpt><trkpt lat="59.3504919671" lon="34.6474311780"><ele>167.89</ele><time>2026-08-15T09:41:06Z</time></trkpt><trkpt lat="59.3504534103" lon="34.6476439945"><ele>167.89</ele><time>2026-08-15T09:41:18Z</time></trkpt><trkpt lat="59.3504099920" lon="34.6477892529"><ele>167.89</ele><time>2026-08-15T09:41:27Z</time></trkpt><trkpt lat="59.3504072260" lon="34.6478772629"><ele>169.33</ele><time>2026-08-15T09:41:32Z</time></trkpt><trkpt lat="59.3504496384" lon="34.6480726451"><ele>169.33</ele><time>2026-08-15T09:41:44Z</time></trkpt><trkpt lat="59.3505622912" lon="34.6483390220"><ele>168.37</ele><time>2026-08-15T09:42:00Z</time></trkpt><trkpt lat="59.3505692482" lon="34.6483554505"><ele>168.37</ele><time>2026-08-15T09:42:01Z</time></trkpt><trkpt lat="59.3505987525" lon="34.6484170575"><ele>168.37</ele><time>2026-08-15T09:42:05Z</time></trkpt><trkpt lat="59.3506952282" lon="34.6486205701"><ele>169.81</ele><time>2026-08-15T09:42:19Z</time></trkpt><trkpt lat="59.3507540692" lon="34.6488593705"><ele>169.81</ele><time>2026-08-15T09:42:33Z</time></trkpt><trkpt lat="59.3507767003" lon="34.6491621248"><ele>170.77</ele><time>2026-08-15T09:42:49Z</time></trkpt><trkpt lat="59.3508487009" lon="34.6494842414"><ele>171.73</ele><time>2026-08-15T09:43:06Z</time></trkpt><trkpt lat="59.3509328552" lon="34.6497271489"><ele>171.73</ele><time>2026-08-15T09:43:20Z</time></trkpt><trkpt lat="59.3509816378" lon="34.6498729102"><ele>171.73</ele><time>2026-08-15T09:43:29Z</time></trkpt><trkpt lat="59.3510811310" lon="34.6501916740"><ele>171.73</ele><time>2026-08-15T09:43:46Z</time></trkpt><trkpt lat="59.3511187658" lon="34.6503800992"><ele>171.73</ele><time>2026-08-15T09:43:55Z</time></trkpt><trkpt lat="59.3511420675" lon="34.6507094242"><ele>171.73</ele><time>2026-08-15T09:44:12Z</time></trkpt><trkpt lat="59.3511268124" lon="34.6509721968"><ele>171.73</ele><time>2026-08-15T09:44:26Z</time></trkpt><trkpt lat="59.3511073664" lon="34.6512196306"><ele>171.73</ele><time>2026-08-15T09:44:41Z</time></trkpt><trkpt lat="59.3511047680" lon="34.6514422540"><ele>171.73</ele><time>2026-08-15T09:44:55Z</time></trkpt><trkpt lat="59.3511573225" lon="34.6516172681"><ele>171.73</ele><time>2026-08-15T09:45:10Z</time></trkpt><trkpt lat="59.3511718232" lon="34.6516406536"><ele>171.73</ele><time>2026-08-15T09:45:12Z</time></trkpt><trkpt lat="59.3512296584" lon="34.6518046036"><ele>170.29</ele><time>2026-08-15T09:45:24Z</time></trkpt><trkpt lat="59.3513028324" lon="34.6520409733"><ele>170.29</ele><time>2026-08-15T09:45:39Z</time></trkpt><trkpt lat="59.3513912614" lon="34.6522584837"><ele>169.81</ele><time>2026-08-15T09:45:51Z</time></trkpt><trkpt lat="59.3514714763" lon="34.6525049955"><ele>168.85</ele><time>2026-08-15T09:46:04Z</time></trkpt><trkpt lat="59.3514930177" lon="34.6525690332"><ele>168.37</ele><time>2026-08-15T09:46:15Z</time></trkpt><trkpt lat="59.3515727296" lon="34.6526357532"><ele>168.37</ele><time>2026-08-15T09:46:27Z</time></trkpt><trkpt lat="59.3516438082" lon="34.6527210809"><ele>169.81</ele><time>2026-08-15T09:46:35Z</time></trkpt><trkpt lat="59.3517829478" lon="34.6528221667"><ele>170.29</ele><time>2026-08-15T09:46:49Z</time></trkpt><trkpt lat="59.3519256916" lon="34.6529517509"><ele>170.77</ele><time>2026-08-15T09:47:04Z</time></trkpt><trkpt lat="59.3520564493" lon="34.6531123482"><ele>170.77</ele><time>2026-08-15T09:47:20Z</time></trkpt><trkpt lat="59.3520587124" lon="34.6531145275"><ele>170.77</ele><time>2026-08-15T09:47:21Z</time></trkpt><trkpt lat="59.3521448784" lon="34.6531969216"><ele>169.33</ele><time>2026-08-15T09:47:31Z</time></trkpt><trkpt lat="59.3521480635" lon="34.6531987656"><ele>169.33</ele><time>2026-08-15T09:47:32Z</time></trkpt><trkpt lat="59.3523239158" lon="34.6534829959"><ele>168.85</ele><time>2026-08-15T09:47:49Z</time></trkpt><trkpt lat="59.3523908872" lon="34.6536725108"><ele>168.37</ele><time>2026-08-15T09:48:00Z</time></trkpt><trkpt lat="59.3524083216" lon="34.6537115704"><ele>168.37</ele><time>2026-08-15T09:48:02Z</time></trkpt><trkpt lat="59.3525237404" lon="34.6539680567"><ele>166.93</ele><time>2026-08-15T09:48:17Z</time></trkpt><trkpt lat="59.3526217248" lon="34.6542853955"><ele>166.93</ele><time>2026-08-15T09:48:34Z</time></trkpt><trkpt lat="59.3526310287" lon="34.6543458290"><ele>166.93</ele><time>2026-08-15T09:48:37Z</time></trkpt><trkpt lat="59.3527473696" lon="34.6546516847"><ele>166.93</ele><time>2026-08-15T09:48:54Z</time></trkpt><trkpt lat="59.3528424203" lon="34.6548973583"><ele>167.89</ele><time>2026-08-15T09:49:09Z</time></trkpt><trkpt lat="59.3528597709" lon="34.6549479011"><ele>166.93</ele><time>2026-08-15T09:49:12Z</time></trkpt><trkpt lat="59.3529566657" lon="34.6551709436"><ele>166.93</ele><time>2026-08-15T09:49:28Z</time></trkpt><trkpt lat="59.3529619463" lon="34.6551853605"><ele>166.93</ele><time>2026-08-15T09:49:29Z</time></trkpt><trkpt lat="59.3530436698" lon="34.6554338839"><ele>166.93</ele><time>2026-08-15T09:49:44Z</time></trkpt><trkpt lat="59.3530502077" lon="34.6554476302"><ele>166.93</ele><time>2026-08-15T09:49:45Z</time></trkpt><trkpt lat="59.3530678935" lon="34.6554651484"><ele>166.93</ele><time>2026-08-15T09:49:47Z</time></trkpt><trkpt lat="59.3531440012" lon="34.6557124145"><ele>166.93</ele><time>2026-08-15T09:50:02Z</time></trkpt><trkpt lat="59.3532452546" lon="34.6559564117"><ele>166.93</ele><time>2026-08-15T09:50:18Z</time></trkpt><trkpt lat="59.3533474300" lon="34.6561474353"><ele>166.93</ele><time>2026-08-15T09:50:32Z</time></trkpt><trkpt lat="59.3533760961" lon="34.6562206093"><ele>166.93</ele><time>2026-08-15T09:50:37Z</time></trkpt><trkpt lat="59.3534453306" lon="34.6564747486"><ele>166.93</ele><time>2026-08-15T09:50:51Z</time></trkpt><trkpt lat="59.3535279762" lon="34.6567049157"><ele>166.93</ele><time>2026-08-15T09:51:06Z</time></trkpt><trkpt lat="59.3536150642" lon="34.6569652576"><ele>167.89</ele><time>2026-08-15T09:51:21Z</time></trkpt><trkpt lat="59.3537057564" lon="34.6572157927"><ele>166.45</ele><time>2026-08-15T09:51:37Z</time></trkpt><trkpt lat="59.3537123781" lon="34.6572333109"><ele>166.45</ele><time>2026-08-15T09:51:38Z</time></trkpt><trkpt lat="59.3537915871" lon="34.6575040463"><ele>166.45</ele><time>2026-08-15T09:51:53Z</time></trkpt><trkpt lat="59.3538155593" lon="34.6577426791"><ele>166.45</ele><time>2026-08-15T09:52:04Z</time></trkpt><trkpt lat="59.3538251147" lon="34.6580768656"><ele>166.45</ele><time>2026-08-15T09:52:19Z</time></trkpt><trkpt lat="59.3538119551" lon="34.6581504587"><ele>165.96</ele><time>2026-08-15T09:52:23Z</time></trkpt><trkpt lat="59.3537805229" lon="34.6582920291"><ele>165.96</ele><time>2026-08-15T09:52:31Z</time></trkpt><trkpt lat="59.3536853883" lon="34.6586779319"><ele>165.96</ele><time>2026-08-15T09:52:46Z</time></trkpt><trkpt lat="59.3536240328" lon="34.6589200012"><ele>167.41</ele><time>2026-08-15T09:52:59Z</time></trkpt><trkpt lat="59.3535144813" lon="34.6591290459"><ele>167.41</ele><time>2026-08-15T09:53:15Z</time></trkpt><trkpt lat="59.3534628488" lon="34.6592432912"><ele>167.41</ele><time>2026-08-15T09:53:21Z</time></trkpt><trkpt lat="59.3533760961" lon="34.6593547706"><ele>167.89</ele><time>2026-08-15T09:53:32Z</time></trkpt><trkpt lat="59.3532259762" lon="34.6596861072"><ele>167.89</ele><time>2026-08-15T09:53:49Z</time></trkpt><trkpt lat="59.3531039357" lon="34.6599835809"><ele>167.41</ele><time>2026-08-15T09:54:06Z</time></trkpt><trkpt lat="59.3530940451" lon="34.6600049548"><ele>167.41</ele><time>2026-08-15T09:54:07Z</time></trkpt><trkpt lat="59.3530206196" lon="34.6602544002"><ele>166.45</ele><time>2026-08-15T09:54:18Z</time></trkpt><trkpt lat="59.3528967351" lon="34.6605847310"><ele>165.48</ele><time>2026-08-15T09:54:37Z</time></trkpt><trkpt lat="59.3528403249" lon="34.6607248764"><ele>165.00</ele><time>2026-08-15T09:54:45Z</time></trkpt><trkpt lat="59.3527674023" lon="34.6609749086"><ele>165.00</ele><time>2026-08-15T09:54:59Z</time></trkpt><trkpt lat="59.3526107445" lon="34.6613073349"><ele>165.96</ele><time>2026-08-15T09:55:17Z</time></trkpt><trkpt lat="59.3524858542" lon="34.6614585444"><ele>166.45</ele><time>2026-08-15T09:55:32Z</time></trkpt><trkpt lat="59.3523893785" lon="34.6615593787"><ele>166.45</ele><time>2026-08-15T09:55:42Z</time></trkpt><trkpt lat="59.3523117620" lon="34.6616437007"><ele>165.00</ele><time>2026-08-15T09:55:50Z</time></trkpt><trkpt lat="59.3521840218" lon="34.6618770529"><ele>165.00</ele><time>2026-08-15T09:56:06Z</time></trkpt><trkpt lat="59.3521231692" lon="34.6619989257"><ele>166.45</ele><time>2026-08-15T09:56:15Z</time></trkpt><trkpt lat="59.3520283699" lon="34.6622487903"><ele>166.45</ele><time>2026-08-15T09:56:30Z</time></trkpt><trkpt lat="59.3519231770" lon="34.6625081263"><ele>166.45</ele><time>2026-08-15T09:56:45Z</time></trkpt><trkpt lat="59.3518536072" lon="34.6626591682"><ele>166.93</ele><time>2026-08-15T09:56:54Z</time></trkpt><trkpt lat="59.3517474085" lon="34.6629793569"><ele>165.00</ele><time>2026-08-15T09:57:10Z</time></trkpt><trkpt lat="59.3516942672" lon="34.6631625853"><ele>164.04</ele><time>2026-08-15T09:57:19Z</time></trkpt><trkpt lat="59.3516190816" lon="34.6633623261"><ele>164.04</ele><time>2026-08-15T09:57:30Z</time></trkpt><trkpt lat="59.3515385315" lon="34.6635274496"><ele>164.04</ele><time>2026-08-15T09:57:43Z</time></trkpt><trkpt lat="59.3514626753" lon="34.6635913197"><ele>164.04</ele><time>2026-08-15T09:57:51Z</time></trkpt><trkpt lat="59.3513895012" lon="34.6636398509"><ele>165.00</ele><time>2026-08-15T09:57:58Z</time></trkpt><trkpt lat="59.3513065204" lon="34.6636995301"><ele>165.00</ele><time>2026-08-15T09:58:08Z</time></trkpt><trkpt lat="59.3512699753" lon="34.6637303755"><ele>165.00</ele><time>2026-08-15T09:58:11Z</time></trkpt><trkpt lat="59.3511635251" lon="34.6639639791"><ele>165.00</ele><time>2026-08-15T09:58:26Z</time></trkpt><trkpt lat="59.3511512037" lon="34.6640006080"><ele>165.00</ele><time>2026-08-15T09:58:28Z</time></trkpt><trkpt lat="59.3510730006" lon="34.6642886940"><ele>165.48</ele><time>2026-08-15T09:58:43Z</time></trkpt><trkpt lat="59.3509717472" lon="34.6645802166"><ele>165.48</ele><time>2026-08-15T09:58:59Z</time></trkpt><trkpt lat="59.3509346992" lon="34.6647921950"><ele>165.48</ele><time>2026-08-15T09:59:11Z</time></trkpt><trkpt lat="59.3509268202" lon="34.6651370265"><ele>165.96</ele><time>2026-08-15T09:59:27Z</time></trkpt><trkpt lat="59.3509172648" lon="34.6653895732"><ele>165.96</ele><time>2026-08-15T09:59:40Z</time></trkpt><trkpt lat="59.3509172648" lon="34.6654961072"><ele>165.96</ele><time>2026-08-15T09:59:45Z</time></trkpt><trkpt lat="59.3509017583" lon="34.6656715404"><ele>165.96</ele><time>2026-08-15T09:59:52Z</time></trkpt><trkpt lat="59.3508810550" lon="34.6659475565"><ele>165.00</ele><time>2026-08-15T10:00:05Z</time></trkpt><trkpt lat="59.3508726731" lon="34.6660221554"><ele>165.00</ele><time>2026-08-15T10:00:09Z</time></trkpt><trkpt lat="59.3508730084" lon="34.6663487982"><ele>164.52</ele><time>2026-08-15T10:00:24Z</time></trkpt><trkpt lat="59.3508719187" lon="34.6664929669"><ele>164.52</ele><time>2026-08-15T10:00:30Z</time></trkpt><trkpt lat="59.3508648779" lon="34.6665439289"><ele>164.52</ele><time>2026-08-15T10:00:32Z</time></trkpt><trkpt lat="59.3508297578" lon="34.6669065300"><ele>164.04</ele><time>2026-08-15T10:00:47Z</time></trkpt><trkpt lat="59.3508225493" lon="34.6669341065"><ele>165.00</ele><time>2026-08-15T10:00:50Z</time></trkpt><trkpt lat="59.3507777900" lon="34.6670812927"><ele>165.00</ele><time>2026-08-15T10:01:02Z</time></trkpt><trkpt lat="59.3507352937" lon="34.6672431473"><ele>165.00</ele><time>2026-08-15T10:01:14Z</time></trkpt><trkpt lat="59.3506712560" lon="34.6674022358"><ele>165.00</ele><time>2026-08-15T10:01:25Z</time></trkpt><trkpt lat="59.3505870178" lon="34.6676710434"><ele>165.00</ele><time>2026-08-15T10:01:40Z</time></trkpt><trkpt lat="59.3505260814" lon="34.6679355763"><ele>165.96</ele><time>2026-08-15T10:01:55Z</time></trkpt><trkpt lat="59.3504925538" lon="34.6682265121"><ele>165.96</ele><time>2026-08-15T10:02:06Z</time></trkpt><trkpt lat="59.3504762929" lon="34.6685930528"><ele>165.96</ele><time>2026-08-15T10:02:21Z</time></trkpt><trkpt lat="59.3505178671" lon="34.6688241418"><ele>166.45</ele><time>2026-08-15T10:02:34Z</time></trkpt><trkpt lat="59.3505247403" lon="34.6688883472"><ele>166.45</ele><time>2026-08-15T10:02:37Z</time></trkpt><trkpt lat="59.3505409174" lon="34.6692367829"><ele>166.93</ele><time>2026-08-15T10:02:51Z</time></trkpt><trkpt lat="59.3505356368" lon="34.6693900879"><ele>166.93</ele><time>2026-08-15T10:02:58Z</time></trkpt><trkpt lat="59.3505383190" lon="34.6694820374"><ele>166.93</ele><time>2026-08-15T10:03:02Z</time></trkpt><trkpt lat="59.3505368102" lon="34.6696103644"><ele>165.96</ele><time>2026-08-15T10:03:08Z</time></trkpt><trkpt lat="59.3505099881" lon="34.6697101090"><ele>165.96</ele><time>2026-08-15T10:03:14Z</time></trkpt><trkpt lat="59.3504619598" lon="34.6700364165"><ele>165.00</ele><time>2026-08-15T10:03:28Z</time></trkpt><trkpt lat="59.3504565116" lon="34.6703922283"><ele>164.52</ele><time>2026-08-15T10:03:42Z</time></trkpt><trkpt lat="59.3504546676" lon="34.6704977565"><ele>165.48</ele><time>2026-08-15T10:03:47Z</time></trkpt><trkpt lat="59.3504456989" lon="34.6707907878"><ele>165.96</ele><time>2026-08-15T10:04:01Z</time></trkpt><trkpt lat="59.3504992593" lon="34.6711237170"><ele>165.96</ele><time>2026-08-15T10:04:16Z</time></trkpt><trkpt lat="59.3505156878" lon="34.6712069493"><ele>165.00</ele><time>2026-08-15T10:04:20Z</time></trkpt><trkpt lat="59.3505848385" lon="34.6715021599"><ele>165.00</ele><time>2026-08-15T10:04:34Z</time></trkpt><trkpt lat="59.3506680708" lon="34.6718688682"><ele>165.00</ele><time>2026-08-15T10:04:51Z</time></trkpt><trkpt lat="59.3506765366" lon="34.6719354205"><ele>164.52</ele><time>2026-08-15T10:04:54Z</time></trkpt><trkpt lat="59.3507024366" lon="34.6720763203"><ele>164.52</ele><time>2026-08-15T10:05:01Z</time></trkpt><trkpt lat="59.3507005926" lon="34.6721641626"><ele>164.52</ele><time>2026-08-15T10:05:05Z</time></trkpt><trkpt lat="59.3507036101" lon="34.6723119356"><ele>164.52</ele><time>2026-08-15T10:05:13Z</time></trkpt><trkpt lat="59.3507128302" lon="34.6726023685"><ele>164.04</ele><time>2026-08-15T10:05:27Z</time></trkpt><trkpt lat="59.3506675679" lon="34.6728135925"><ele>164.04</ele><time>2026-08-15T10:05:41Z</time></trkpt><trkpt lat="59.3506512232" lon="34.6728446055"><ele>163.56</ele><time>2026-08-15T10:05:57Z</time></trkpt><trkpt lat="59.3506506365" lon="34.6728350502"><ele>164.52</ele><time>2026-08-15T10:06:12Z</time></trkpt><trkpt lat="59.3506618682" lon="34.6728974115"><ele>164.52</ele><time>2026-08-15T10:06:33Z</time></trkpt><trkpt lat="59.3506720103" lon="34.6731513832"><ele>164.52</ele><time>2026-08-15T10:06:46Z</time></trkpt><trkpt lat="59.3507340364" lon="34.6735397168"><ele>164.52</ele><time>2026-08-15T10:07:02Z</time></trkpt><trkpt lat="59.3507508840" lon="34.6736754198"><ele>164.52</ele><time>2026-08-15T10:07:08Z</time></trkpt><trkpt lat="59.3507927936" lon="34.6737900004"><ele>164.52</ele><time>2026-08-15T10:07:14Z</time></trkpt><trkpt lat="59.3507970683" lon="34.6738573909"><ele>164.52</ele><time>2026-08-15T10:07:17Z</time></trkpt><trkpt lat="59.3508454319" lon="34.6742086764"><ele>164.52</ele><time>2026-08-15T10:07:33Z</time></trkpt><trkpt lat="59.3508390617" lon="34.6743684355"><ele>164.52</ele><time>2026-08-15T10:07:48Z</time></trkpt><trkpt lat="59.3508322723" lon="34.6743814275"><ele>163.08</ele><time>2026-08-15T10:07:51Z</time></trkpt><trkpt lat="59.3508247286" lon="34.6745584533"><ele>164.52</ele><time>2026-08-15T10:08:03Z</time></trkpt><trkpt lat="59.3507452682" lon="34.6747917216"><ele>164.52</ele><time>2026-08-15T10:08:16Z</time></trkpt><trkpt lat="59.3507186975" lon="34.6748620458"><ele>164.52</ele><time>2026-08-15T10:08:19Z</time></trkpt><trkpt lat="59.3506713398" lon="34.6749789733"><ele>163.08</ele><time>2026-08-15T10:08:33Z</time></trkpt><trkpt lat="59.3506464455" lon="34.6750251576"><ele>163.08</ele><time>2026-08-15T10:08:49Z</time></trkpt><trkpt lat="59.3505593576" lon="34.6752533130"><ele>165.00</ele><time>2026-08-15T10:09:04Z</time></trkpt><trkpt lat="59.3504638039" lon="34.6755406447"><ele>165.48</ele><time>2026-08-15T10:09:19Z</time></trkpt><trkpt lat="59.3504446093" lon="34.6759363543"><ele>165.48</ele><time>2026-08-15T10:09:36Z</time></trkpt><trkpt lat="59.3503493909" lon="34.6762687806"><ele>165.48</ele><time>2026-08-15T10:09:52Z</time></trkpt><trkpt lat="59.3503270950" lon="34.6764446329"><ele>164.04</ele><time>2026-08-15T10:10:00Z</time></trkpt><trkpt lat="59.3503175396" lon="34.6765950881"><ele>164.04</ele><time>2026-08-15T10:10:08Z</time></trkpt><trkpt lat="59.3502884544" lon="34.6767503209"><ele>165.48</ele><time>2026-08-15T10:10:15Z</time></trkpt><trkpt lat="59.3502648175" lon="34.6768227406"><ele>165.48</ele><time>2026-08-15T10:10:18Z</time></trkpt><trkpt lat="59.3501960021" lon="34.6770485491"><ele>164.52</ele><time>2026-08-15T10:10:30Z</time></trkpt><trkpt lat="59.3501390051" lon="34.6771982498"><ele>164.52</ele><time>2026-08-15T10:10:36Z</time></trkpt><trkpt lat="59.3501007836" lon="34.6774467733"><ele>164.52</ele><time>2026-08-15T10:10:49Z</time></trkpt><trkpt lat="59.3500625622" lon="34.6777194366"><ele>164.04</ele><time>2026-08-15T10:11:04Z</time></trkpt><trkpt lat="59.3499851134" lon="34.6780614182"><ele>164.04</ele><time>2026-08-15T10:11:20Z</time></trkpt><trkpt lat="59.3499606382" lon="34.6783750691"><ele>165.48</ele><time>2026-08-15T10:11:34Z</time></trkpt><trkpt lat="59.3499656674" lon="34.6787836868"><ele>164.04</ele><time>2026-08-15T10:11:52Z</time></trkpt><trkpt lat="59.3499713670" lon="34.6791784745"><ele>164.04</ele><time>2026-08-15T10:12:09Z</time></trkpt><trkpt lat="59.3499783240" lon="34.6793570090"><ele>164.04</ele><time>2026-08-15T10:12:17Z</time></trkpt><trkpt lat="59.3500063196" lon="34.6796776168"><ele>164.04</ele><time>2026-08-15T10:12:33Z</time></trkpt><trkpt lat="59.3499878794" lon="34.6797571611"><ele>164.04</ele><time>2026-08-15T10:12:52Z</time></trkpt><trkpt lat="59.3499780726" lon="34.6797724161"><ele>163.56</ele><time>2026-08-15T10:13:12Z</time></trkpt><trkpt lat="59.3499782402" lon="34.6797996573"><ele>163.56</ele><time>2026-08-15T10:13:33Z</time></trkpt><trkpt lat="59.3499941658" lon="34.6798126493"><ele>163.56</ele><time>2026-08-15T10:13:56Z</time></trkpt><trkpt lat="59.3500020448" lon="34.6798168402"><ele>163.56</ele><time>2026-08-15T10:14:23Z</time></trkpt><trkpt lat="59.3500011228" lon="34.6798201930"><ele>165.00</ele><time>2026-08-15T10:14:33Z</time></trkpt><trkpt lat="59.3499929085" lon="34.6798307542"><ele>165.00</ele><time>2026-08-15T10:14:55Z</time></trkpt><trkpt lat="59.3499886338" lon="34.6798332687"><ele>165.00</ele><time>2026-08-15T10:15:18Z</time></trkpt><trkpt lat="59.3499922380" lon="34.6798411477"><ele>165.00</ele><time>2026-08-15T10:15:43Z</time></trkpt><trkpt lat="59.3499894720" lon="34.6798307542"><ele>165.00</ele><time>2026-08-15T10:16:02Z</time></trkpt><trkpt lat="59.3499913160" lon="34.6798325982"><ele>165.00</ele><time>2026-08-15T10:16:26Z</time></trkpt><trkpt lat="59.3499903940" lon="34.6798341908"><ele>165.00</ele><time>2026-08-15T10:16:56Z</time></trkpt><trkpt lat="59.3499913160" lon="34.6798389684"><ele>164.52</ele><time>2026-08-15T10:17:25Z</time></trkpt><trkpt lat="59.3499841075" lon="34.6798382979"><ele>165.48</ele><time>2026-08-15T10:17:53Z</time></trkpt><trkpt lat="59.3499821797" lon="34.6798410639"><ele>165.48</ele><time>2026-08-15T10:18:31Z</time></trkpt><trkpt lat="59.3499808386" lon="34.6798411477"><ele>165.48</ele><time>2026-08-15T10:19:00Z</time></trkpt><trkpt lat="59.3499836046" lon="34.6798334364"><ele>165.48</ele><time>2026-08-15T10:19:25Z</time></trkpt><trkpt lat="59.3499504961" lon="34.6799165849"><ele>165.48</ele><time>2026-08-15T10:19:51Z</time></trkpt><trkpt lat="59.3498940859" lon="34.6801020764"><ele>165.48</ele><time>2026-08-15T10:20:06Z</time></trkpt><trkpt lat="59.3499383423" lon="34.6804091055"><ele>165.96</ele><time>2026-08-15T10:20:24Z</time></trkpt><trkpt lat="59.3499437906" lon="34.6805761568"><ele>165.96</ele><time>2026-08-15T10:20:39Z</time></trkpt><trkpt lat="59.3499246798" lon="34.6807597205"><ele>165.96</ele><time>2026-08-15T10:21:00Z</time></trkpt><trkpt lat="59.3498977739" lon="34.6810416039"><ele>165.96</ele><time>2026-08-15T10:21:17Z</time></trkpt><trkpt lat="59.3498823512" lon="34.6811444499"><ele>165.96</ele><time>2026-08-15T10:21:30Z</time></trkpt><trkpt lat="59.3498495780" lon="34.6813661512"><ele>165.96</ele><time>2026-08-15T10:21:45Z</time></trkpt><trkpt lat="59.3498455547" lon="34.6814254113"><ele>165.96</ele><time>2026-08-15T10:21:58Z</time></trkpt><trkpt lat="59.3498236779" lon="34.6816782095"><ele>164.52</ele><time>2026-08-15T10:22:06Z</time></trkpt><trkpt lat="59.3497515935" lon="34.6819763537"><ele>164.52</ele><time>2026-08-15T10:22:21Z</time></trkpt><trkpt lat="59.3497166410" lon="34.6822521184"><ele>164.52</ele><time>2026-08-15T10:22:35Z</time></trkpt><trkpt lat="59.3497147132" lon="34.6822998952"><ele>165.96</ele><time>2026-08-15T10:22:37Z</time></trkpt><trkpt lat="59.3496324867" lon="34.6826944314"><ele>165.96</ele><time>2026-08-15T10:22:55Z</time></trkpt><trkpt lat="59.3496164773" lon="34.6827852074"><ele>165.96</ele><time>2026-08-15T10:22:59Z</time></trkpt><trkpt lat="59.3495373521" lon="34.6830935776"><ele>165.96</ele><time>2026-08-15T10:23:14Z</time></trkpt><trkpt lat="59.3495054170" lon="34.6833360661"><ele>165.96</ele><time>2026-08-15T10:23:28Z</time></trkpt><trkpt lat="59.3494665250" lon="34.6836737730"><ele>165.96</ele><time>2026-08-15T10:23:44Z</time></trkpt><trkpt lat="59.3494561315" lon="34.6837221365"><ele>165.96</ele><time>2026-08-15T10:23:46Z</time></trkpt><trkpt lat="59.3493944407" lon="34.6841559000"><ele>165.96</ele><time>2026-08-15T10:24:04Z</time></trkpt><trkpt lat="59.3493752461" lon="34.6843359433"><ele>165.96</ele><time>2026-08-15T10:24:12Z</time></trkpt><trkpt lat="59.3493165728" lon="34.6847005561"><ele>165.96</ele><time>2026-08-15T10:24:29Z</time></trkpt><trkpt lat="59.3493191712" lon="34.6850976907"><ele>165.96</ele><time>2026-08-15T10:24:43Z</time></trkpt><trkpt lat="59.3493174110" lon="34.6851486526"><ele>164.52</ele><time>2026-08-15T10:24:45Z</time></trkpt><trkpt lat="59.3493091967" lon="34.6852343157"><ele>164.52</ele><time>2026-08-15T10:24:49Z</time></trkpt><trkpt lat="59.3492853921" lon="34.6856208891"><ele>164.52</ele><time>2026-08-15T10:25:06Z</time></trkpt><trkpt lat="59.3492546305" lon="34.6860102285"><ele>165.48</ele><time>2026-08-15T10:25:23Z</time></trkpt><trkpt lat="59.3492367771" lon="34.6861416567"><ele>165.48</ele><time>2026-08-15T10:25:29Z</time></trkpt><trkpt lat="59.3491978850" lon="34.6865563095"><ele>165.96</ele><time>2026-08-15T10:25:49Z</time></trkpt><trkpt lat="59.3491865695" lon="34.6867453214"><ele>165.96</ele><time>2026-08-15T10:26:04Z</time></trkpt><trkpt lat="59.3491947837" lon="34.6869087685"><ele>165.96</ele><time>2026-08-15T10:26:18Z</time></trkpt><trkpt lat="59.3492047582" lon="34.6871272847"><ele>165.96</ele><time>2026-08-15T10:26:33Z</time></trkpt><trkpt lat="59.3492158223" lon="34.6873662528"><ele>164.52</ele><time>2026-08-15T10:26:49Z</time></trkpt><trkpt lat="59.3492254615" lon="34.6875610482"><ele>164.52</ele><time>2026-08-15T10:27:05Z</time></trkpt><trkpt lat="59.3492319155" lon="34.6875950787"><ele>164.52</ele><time>2026-08-15T10:27:07Z</time></trkpt><trkpt lat="59.3492379505" lon="34.6879284270"><ele>164.52</ele><time>2026-08-15T10:27:25Z</time></trkpt><trkpt lat="59.3492341787" lon="34.6879676543"><ele>164.52</ele><time>2026-08-15T10:27:41Z</time></trkpt><trkpt lat="59.3492372800" lon="34.6877919696"><ele>164.52</ele><time>2026-08-15T10:27:57Z</time></trkpt><trkpt lat="59.3492351007" lon="34.6876759641"><ele>164.52</ele><time>2026-08-15T10:28:15Z</time></trkpt><trkpt lat="59.3492329214" lon="34.6875481401"><ele>164.52</ele><time>2026-08-15T10:28:30Z</time></trkpt><trkpt lat="59.3492313288" lon="34.6873502433"><ele>164.52</ele><time>2026-08-15T10:28:48Z</time></trkpt><trkpt lat="59.3492315803" lon="34.6873749699"><ele>164.52</ele><time>2026-08-15T10:29:04Z</time></trkpt><trkpt lat="59.3492310774" lon="34.6874426957"><ele>164.52</ele><time>2026-08-15T10:29:19Z</time></trkpt><trkpt lat="59.3491574842" lon="34.6874592081"><ele>165.96</ele><time>2026-08-15T10:29:36Z</time></trkpt><trkpt lat="59.3490848970" lon="34.6875297837"><ele>166.45</ele><time>2026-08-15T10:29:47Z</time></trkpt><trkpt lat="59.3490190990" lon="34.6875561029"><ele>165.48</ele><time>2026-08-15T10:30:05Z</time></trkpt><trkpt lat="59.3489171751" lon="34.6875185519"><ele>165.48</ele><time>2026-08-15T10:30:20Z</time></trkpt><trkpt lat="59.3489057757" lon="34.6874288656"><ele>165.00</ele><time>2026-08-15T10:30:39Z</time></trkpt><trkpt lat="59.3488898501" lon="34.6873521712"><ele>165.00</ele><time>2026-08-15T10:30:55Z</time></trkpt><trkpt lat="59.3487838190" lon="34.6873478964"><ele>165.00</ele><time>2026-08-15T10:31:09Z</time></trkpt><trkpt lat="59.3487751856" lon="34.6873585414"><ele>166.45</ele><time>2026-08-15T10:31:18Z</time></trkpt><trkpt lat="59.3487321865" lon="34.6874291170"><ele>165.00</ele><time>2026-08-15T10:31:27Z</time></trkpt><trkpt lat="59.3487136625" lon="34.6874507423"><ele>165.00</ele><time>2026-08-15T10:31:44Z</time></trkpt><trkpt lat="59.3487471901" lon="34.6873298753"><ele>165.00</ele><time>2026-08-15T10:31:56Z</time></trkpt><trkpt lat="59.3487281632" lon="34.6872862894"><ele>165.00</ele><time>2026-08-15T10:32:15Z</time></trkpt><trkpt lat="59.3487378024" lon="34.6872202400"><ele>165.00</ele><time>2026-08-15T10:32:57Z</time></trkpt><trkpt lat="59.3487429991" lon="34.6872213297"><ele>165.00</ele><time>2026-08-15T10:33:28Z</time></trkpt><trkpt lat="59.3487595953" lon="34.6872407757"><ele>165.00</ele><time>2026-08-15T10:33:48Z</time></trkpt><trkpt lat="59.3487903569" lon="34.6873631515"><ele>164.52</ele><time>2026-08-15T10:34:14Z</time></trkpt><trkpt lat="59.3488516286" lon="34.6874443721"><ele>164.52</ele><time>2026-08-15T10:34:26Z</time></trkpt><trkpt lat="59.3489513732" lon="34.6874401812"><ele>164.52</ele><time>2026-08-15T10:34:39Z</time></trkpt><trkpt lat="59.3490660377" lon="34.6874914784"><ele>165.96</ele><time>2026-08-15T10:34:51Z</time></trkpt><trkpt lat="59.3491106294" lon="34.6875125170"><ele>164.52</ele><time>2026-08-15T10:34:56Z</time></trkpt><trkpt lat="59.3491338473" lon="34.6875136066"><ele>164.52</ele><time>2026-08-15T10:35:01Z</time></trkpt><trkpt lat="59.3492288142" lon="34.6876022872"><ele>164.52</ele><time>2026-08-15T10:35:13Z</time></trkpt><trkpt lat="59.3492320832" lon="34.6876384970"><ele>164.52</ele><time>2026-08-15T10:35:15Z</time></trkpt><trkpt lat="59.3492500205" lon="34.6880877670"><ele>164.04</ele><time>2026-08-15T10:35:33Z</time></trkpt><trkpt lat="59.3492511101" lon="34.6884753462"><ele>162.12</ele><time>2026-08-15T10:35:49Z</time></trkpt><trkpt lat="59.3492501881" lon="34.6885414794"><ele>164.52</ele><time>2026-08-15T10:35:52Z</time></trkpt><trkpt lat="59.3492742442" lon="34.6888749953"><ele>164.52</ele><time>2026-08-15T10:36:11Z</time></trkpt><trkpt lat="59.3492789380" lon="34.6888874006"><ele>163.08</ele><time>2026-08-15T10:36:14Z</time></trkpt><trkpt lat="59.3492806144" lon="34.6889096964"><ele>163.08</ele><time>2026-08-15T10:36:15Z</time></trkpt><trkpt lat="59.3493563030" lon="34.6892947610"><ele>164.52</ele><time>2026-08-15T10:36:32Z</time></trkpt><trkpt lat="59.3493930157" lon="34.6896896325"><ele>164.52</ele><time>2026-08-15T10:36:47Z</time></trkpt><trkpt lat="59.3495019805" lon="34.6901915409"><ele>164.52</ele><time>2026-08-15T10:37:08Z</time></trkpt><trkpt lat="59.3496408686" lon="34.6907149907"><ele>165.00</ele><time>2026-08-15T10:37:31Z</time></trkpt><trkpt lat="59.3496827781" lon="34.6912141331"><ele>165.00</ele><time>2026-08-15T10:37:51Z</time></trkpt><trkpt lat="59.3497231789" lon="34.6917150356"><ele>163.56</ele><time>2026-08-15T10:38:11Z</time></trkpt><trkpt lat="59.3497415353" lon="34.6921987552"><ele>163.56</ele><time>2026-08-15T10:38:30Z</time></trkpt><trkpt lat="59.3497240171" lon="34.6924507152"><ele>165.00</ele><time>2026-08-15T10:38:40Z</time></trkpt><trkpt lat="59.3497436307" lon="34.6928516217"><ele>163.08</ele><time>2026-08-15T10:38:55Z</time></trkpt><trkpt lat="59.3497880548" lon="34.6932372730"><ele>162.60</ele><time>2026-08-15T10:39:11Z</time></trkpt><trkpt lat="59.3498087581" lon="34.6934799291"><ele>162.60</ele><time>2026-08-15T10:39:20Z</time></trkpt><trkpt lat="59.3498697784" lon="34.6940493118"><ele>162.12</ele><time>2026-08-15T10:39:44Z</time></trkpt><trkpt lat="59.3498858716" lon="34.6942898724"><ele>163.08</ele><time>2026-08-15T10:39:54Z</time></trkpt><trkpt lat="59.3498993665" lon="34.6946077142"><ele>163.08</ele><time>2026-08-15T10:40:06Z</time></trkpt><trkpt lat="59.3498955946" lon="34.6946516354"><ele>163.08</ele><time>2026-08-15T10:40:08Z</time></trkpt><trkpt lat="59.3499391805" lon="34.6950612590"><ele>164.04</ele><time>2026-08-15T10:40:25Z</time></trkpt><trkpt lat="59.3499639072" lon="34.6956157219"><ele>164.04</ele><time>2026-08-15T10:40:46Z</time></trkpt><trkpt lat="59.3500027154" lon="34.6962425206"><ele>164.04</ele><time>2026-08-15T10:41:09Z</time></trkpt><trkpt lat="59.3501189724" lon="34.6966788825"><ele>164.04</ele><time>2026-08-15T10:41:27Z</time></trkpt><trkpt lat="59.3502277695" lon="34.6970594209"><ele>164.04</ele><time>2026-08-15T10:41:44Z</time></trkpt><trkpt lat="59.3503246643" lon="34.6975334175"><ele>164.04</ele><time>2026-08-15T10:42:04Z</time></trkpt><trkpt lat="59.3503701780" lon="34.6979824360"><ele>164.52</ele><time>2026-08-15T10:42:22Z</time></trkpt><trkpt lat="59.3504135124" lon="34.6983913891"><ele>163.56</ele><time>2026-08-15T10:42:38Z</time></trkpt><trkpt lat="59.3505104072" lon="34.6989130788"><ele>164.52</ele><time>2026-08-15T10:42:59Z</time></trkpt><trkpt lat="59.3505390733" lon="34.6991652064"><ele>164.52</ele><time>2026-08-15T10:43:15Z</time></trkpt><trkpt lat="59.3505394924" lon="34.6991824731"><ele>164.52</ele><time>2026-08-15T10:43:29Z</time></trkpt><trkpt lat="59.3505467847" lon="34.6991953813"><ele>164.52</ele><time>2026-08-15T10:43:53Z</time></trkpt><trkpt lat="59.3505510595" lon="34.6991973091"><ele>164.52</ele><time>2026-08-15T10:44:23Z</time></trkpt><trkpt lat="59.3505540770" lon="34.6991895977"><ele>163.56</ele><time>2026-08-15T10:44:36Z</time></trkpt><trkpt lat="59.3505535740" lon="34.6991881728"><ele>163.56</ele><time>2026-08-15T10:44:55Z</time></trkpt><trkpt lat="59.3505504727" lon="34.6991878375"><ele>164.52</ele><time>2026-08-15T10:45:13Z</time></trkpt><trkpt lat="59.3505531549" lon="34.6991808806"><ele>164.52</ele><time>2026-08-15T10:45:38Z</time></trkpt><trkpt lat="59.3505493831" lon="34.6991598420"><ele>165.00</ele><time>2026-08-15T10:45:49Z</time></trkpt><trkpt lat="59.3505464494" lon="34.6991618536"><ele>165.00</ele><time>2026-08-15T10:46:08Z</time></trkpt><trkpt lat="59.3505507242" lon="34.6991792880"><ele>164.04</ele><time>2026-08-15T10:46:37Z</time></trkpt><trkpt lat="59.3505492155" lon="34.6991804615"><ele>164.04</ele><time>2026-08-15T10:46:55Z</time></trkpt><trkpt lat="59.3505456112" lon="34.6991869994"><ele>164.04</ele><time>2026-08-15T10:47:15Z</time></trkpt><trkpt lat="59.3505465332" lon="34.6991910227"><ele>164.04</ele><time>2026-08-15T10:47:22Z</time></trkpt><trkpt lat="59.3505539931" lon="34.6992308367"><ele>164.04</ele><time>2026-08-15T10:47:24Z</time></trkpt><trkpt lat="59.3505445216" lon="34.6994226985"><ele>164.04</ele><time>2026-08-15T10:47:39Z</time></trkpt><trkpt lat="59.3505327869" lon="34.6994230337"><ele>164.04</ele><time>2026-08-15T10:48:02Z</time></trkpt><trkpt lat="59.3505298533" lon="34.6994247101"><ele>164.52</ele><time>2026-08-15T10:48:17Z</time></trkpt><trkpt lat="59.3505263329" lon="34.6994307451"><ele>164.52</ele><time>2026-08-15T10:48:38Z</time></trkpt><trkpt lat="59.3505258299" lon="34.6994316671"><ele>164.52</ele><time>2026-08-15T10:48:59Z</time></trkpt></trkseg><trkseg><trkpt lat="59.3505228963" lon="34.6994449943"><ele>163.56</ele><time>2026-08-15T10:49:32Z</time></trkpt><trkpt lat="59.3505286798" lon="34.6994460840"><ele>163.08</ele><time>2026-08-15T10:49:54Z</time></trkpt></trkseg></trk></gpx>